[[{"header":{"parameterUnit":"m.s-1","parameterCategory":1,"la1":30.6,"la2":29.2853,"lo1":-89.7004,"lo2":-87.6739,"dy":0.0162,"dx":0.0183,"nx":112,"ny":82,"refTime":"2025-07-07T00:00:00:Z","depth":0,"parameterNumber":2,"parameterNumberName":"U-component_of_WINDS"},"data":[0.0,0.0,0.0,0.0,0.0,0.0,0.0,0.0,0.0,0.0,0.0,0.0,0.0,0.0,0.0,0.0,0.0,0.0,0.0,0.0,0.0,0.0,0.0,0.0,0.0,0.0,0.0,0.0,0.0,0.0,0.0,0.0,0.0,0.0,0.0,0.0,0.0,0.0,0.0,0.0,0.0,0.0,0.0,0.0,0.0,0.0,0.0,0.0,0.0,0.0,0.0,0.0,0.0,0.0,0.0,0.0,0.0,0.0,0.0,0.0,0.0,0.0,0.0,0.0,0.0,0.0,0.0,0.0,0.0,0.0,0.0,0.0,0.0,0.0,0.0,0.0,0.0,0.0,0.0,0.0,0.0,0.0,0.0,0.0,0.0,0.0,0.0,0.0,0.0,0.0,0.419,0.4502,0.4983,0.5312,0.5312,0.5312,0.5027,0.4439,0.0,0.0,0.0,0.0,0.0,0.0,0.0,0.0,0.0,0.0,0.0,0.0,0.0,0.0,0.0,0.0,0.0,0.0,0.0,0.0,0.0,0.0,0.0,0.0,0.0,0.0,0.0,0.0,0.0,0.0,0.0,0.0,0.0,0.0,0.0,0.0,0.0,0.0,0.0,0.0,0.0,0.0,0.0,0.0,0.0,0.0,0.0,0.0,0.0,0.0,0.0,0.0,0.0,0.0,0.0,0.0,0.0,0.0,0.0,0.0,0.0,0.0,0.0,0.0,0.0,0.0,0.0,0.0,0.0,0.0,0.0,0.0,0.0,0.0,0.0,0.0,0.0,0.0,0.0,0.0,0.0,0.0,0.0,0.0,0.0,0.0,0.0,0.0,0.0,0.0,0.0,0.0,0.0,0.0,0.0,0.0,0.0,0.0,0.0,0.0,0.0,0.0,0.0,0.0,0.4546,0.509,0.5258,0.5312,0.5312,0.5312,0.5027,0.4439,0.0,0.0,0.0,0.0,0.0,0.0,0.0,0.0,0.0,0.0,0.0,0.0,0.0,0.0,0.0,0.0,0.0,0.0,0.0,0.0,0.0,0.0,0.0,0.0,0.0,0.0,0.0,0.0,0.0,0.0,0.0,0.0,0.0,0.0,0.0,0.0,0.0,0.0,0.0,0.0,0.0,0.0,0.0,0.0,0.0,0.0,0.0,0.0,0.0,0.0,0.0,0.0,0.0,0.0,0.0,0.0,0.0,0.0,0.0,0.0,0.0,0.0,0.0,0.0,0.0,0.0,0.0,0.0,0.0,0.0,0.0,0.0,0.0,0.0,0.0,0.0,0.0,0.0,0.0,0.0,0.0,0.0,0.0,0.0,0.0,0.0,0.0,0.0,0.0,0.0,0.0,0.0,0.0,0.0,0.0,0.0,0.0,0.0,0.0,0.0,0.0,0.0,0.0,0.4235,0.4629,0.5248,0.5312,0.5312,0.5312,0.5312,0.5027,0.4439,0.4402,0.0,0.0,0.0,0.0,0.0,0.0,0.0,0.0,0.0,0.0,0.0,0.0,0.0,0.0,0.0,0.0,0.0,0.0,0.0,0.0,0.0,0.0,0.0,0.0,0.0,0.0,0.0,0.0,0.0,0.0,0.0,0.0,0.0,0.0,0.0,0.0,0.0,0.0,0.0,0.0,0.0,0.0,0.0,0.0,0.0,0.0,0.0,0.0,0.0,0.0,0.0,0.0,0.0,0.0,0.0,0.0,0.0,0.0,0.0,0.0,0.0,0.0,0.0,0.0,0.0,0.0,0.0,0.0,0.0,0.0,0.0,0.0,0.0,0.0,0.0,0.0,0.0,0.0,0.0,0.0,0.0,0.0,0.0,0.0,0.0,0.0,0.0,0.0,0.0,0.0,0.0,0.0,0.0,0.0,0.0,0.0,0.0,0.0,0.0,0.0,0.0,0.0,0.4466,0.4706,0.5255,0.5312,0.5312,0.5312,0.5217,0.4983,0.4512,0.4439,0.0,0.0,0.0,0.0,0.0,0.0,0.0,0.0,0.0,0.0,0.0,0.0,0.0,0.0,0.0,0.0,0.0,0.0,0.0,0.0,0.0,0.0,0.0,0.0,0.0,0.0,0.0,0.0,0.0,0.0,0.0,0.0,0.0,0.0,0.0,0.0,0.0,0.0,0.0,0.0,0.0,0.0,0.0,0.0,0.0,0.0,0.0,0.0,0.0,0.0,0.0,0.0,0.0,0.0,0.0,0.0,0.0,0.0,0.0,0.0,0.0,0.0,0.0,0.0,0.0,0.0,0.0,0.0,0.0,0.0,0.0,0.0,0.0,0.0,0.0,0.0,0.0,0.0,0.0,0.0,0.0,0.0,0.0,0.0,0.0,0.0,0.0,0.0,0.0,0.0,0.0,0.0,0.0,0.0,0.0,0.0,0.0,0.0,0.0,0.0,0.0,0.0,0.4611,0.49,0.5247,0.5312,0.5312,0.5312,0.5023,0.4814,0.478,0.4529,0.0,0.0,0.0,0.0,0.0,0.0,0.0,0.0,0.0,0.0,0.0,0.0,0.0,0.0,0.0,0.0,0.0,0.0,0.0,0.0,0.0,0.0,0.0,0.0,0.0,0.0,0.0,0.0,0.0,0.0,0.0,0.0,0.0,0.0,0.0,0.0,0.0,0.0,0.0,0.0,0.0,0.0,0.0,0.0,0.0,0.0,0.0,0.0,0.0,0.0,0.0,0.0,0.0,0.0,0.0,0.0,0.0,0.0,0.0,0.0,0.0,0.0,0.0,0.0,0.0,0.0,0.0,0.0,0.0,0.0,0.0,0.0,0.0,0.0,0.0,0.0,0.0,0.0,0.0,0.0,0.0,0.0,0.0,0.0,0.0,0.0,0.0,0.0,0.0,0.0,0.0,0.0,0.0,0.0,0.0,0.0,0.0,0.0,0.0,0.0,0.0,0.0,0.4628,0.499,0.5498,0.5387,0.5354,0.5534,0.5281,0.5021,0.4814,0.0,0.0,0.0,0.0,0.0,0.0,0.0,0.0,0.0,0.0,0.0,0.0,0.0,0.0,0.0,0.0,0.0,0.0,0.0,0.0,0.0,0.0,0.0,0.0,0.0,0.0,0.0,0.0,0.0,0.0,0.0,0.0,0.0,0.0,0.0,0.0,0.0,0.0,0.0,0.0,0.0,0.0,0.0,0.0,0.0,0.0,0.0,0.0,0.0,0.0,0.0,0.0,0.0,0.0,0.0,0.0,0.0,0.0,0.0,0.0,0.0,0.0,0.0,0.0,0.0,0.0,0.0,0.0,0.0,0.0,0.0,0.0,0.0,0.0,0.0,0.0,0.0,0.0,0.0,0.0,0.0,0.0,0.0,0.0,0.0,0.0,0.0,0.0,0.0,0.0,0.0,0.0,0.0,0.0,0.0,0.0,0.0,0.0,0.0,0.0,0.0,0.0,0.4379,0.474,0.5136,0.5661,0.5534,0.5498,0.5695,0.5571,0.5316,0.4952,0.0,0.0,0.0,0.0,0.0,0.0,0.0,0.0,0.0,0.0,0.0,0.0,0.0,0.0,0.0,0.0,0.0,0.0,0.0,0.0,0.0,0.0,0.0,0.0,0.0,0.0,0.0,0.0,0.0,0.0,0.0,0.0,0.0,0.0,0.0,0.0,0.0,0.0,0.0,0.0,0.0,0.0,0.0,0.0,0.0,0.0,0.0,0.0,0.0,0.0,0.0,0.0,0.0,0.0,0.0,0.0,0.0,0.0,0.0,0.0,0.0,0.0,0.0,0.0,0.0,0.0,0.0,0.0,0.0,0.0,0.0,0.0,0.0,0.0,0.0,0.0,0.0,0.0,0.0,0.0,0.0,0.0,0.0,0.0,0.0,0.0,0.0,0.0,0.0,0.0,0.0,0.0,0.0,0.0,0.0,0.0,0.0,0.0,0.0,0.0,0.0,0.0,0.4402,0.492,0.5394,0.5688,0.5718,0.5718,0.5718,0.5827,0.5694,0.0,0.0,0.0,0.0,0.0,0.0,0.0,0.0,0.0,0.0,0.0,0.0,0.0,0.0,0.0,0.0,0.0,0.0,0.0,0.0,0.0,0.0,0.0,0.0,0.0,0.0,0.0,0.0,0.0,0.0,0.0,0.0,0.0,0.0,0.0,0.0,0.0,0.0,0.0,0.0,0.0,0.0,0.0,0.0,0.0,0.0,0.0,0.0,0.0,0.0,0.0,0.0,0.0,0.0,0.0,0.0,0.0,0.0,0.0,0.0,0.0,0.0,0.0,0.0,0.0,0.0,0.0,0.0,0.0,0.0,0.0,0.0,0.0,0.0,0.0,0.0,0.0,0.0,0.0,0.0,0.0,0.0,0.0,0.0,0.0,0.0,0.0,0.0,0.0,0.0,0.0,0.0,0.0,0.0,0.0,0.0,0.0,0.0,0.0,0.0,0.0,0.0,0.0,0.4402,0.5094,0.5698,0.6031,0.6065,0.6065,0.6065,0.6115,0.5906,0.5241,0.0,0.0,0.0,0.0,0.0,0.0,0.0,0.0,0.0,0.0,0.0,0.0,0.0,0.0,0.0,0.0,0.0,0.0,0.0,0.0,0.0,0.0,0.0,0.0,0.0,0.0,0.0,0.0,0.0,0.0,0.0,0.0,0.0,0.0,0.0,0.0,0.0,0.0,0.0,0.0,0.0,0.0,0.0,0.0,0.0,0.0,0.0,0.0,0.0,0.0,0.0,0.0,0.0,0.0,0.0,0.0,0.0,0.0,0.0,0.0,0.0,0.0,0.0,0.0,0.0,0.0,0.0,0.0,0.0,0.0,0.0,0.0,0.0,0.0,0.0,0.0,0.0,0.0,0.0,0.0,0.0,0.0,0.0,0.0,0.0,0.0,0.0,0.0,0.0,0.0,0.0,0.0,0.0,0.0,0.0,0.0,0.0,0.0,0.0,0.0,0.0,0.0,0.5063,0.5574,0.6138,0.661,0.6474,0.6367,0.6367,0.6589,0.6436,0.568,0.0,0.0,0.0,0.0,0.0,0.0,0.0,0.0,0.0,0.0,0.0,0.0,0.0,0.0,0.0,0.0,0.0,0.0,0.0,0.0,0.0,0.0,0.0,0.0,0.0,0.0,0.0,0.0,0.0,0.0,0.0,0.0,0.0,0.0,0.0,0.0,0.0,0.0,0.0,0.0,0.0,0.0,0.0,0.0,0.0,0.0,0.0,0.0,0.0,0.0,0.0,0.0,0.0,0.0,0.0,0.0,0.0,0.0,0.0,0.0,0.0,0.0,0.0,0.0,0.0,0.0,0.0,0.0,0.0,0.0,0.0,0.0,0.0,0.0,0.0,0.0,0.0,0.0,0.0,0.0,0.0,0.0,0.0,0.0,0.0,0.0,0.0,0.0,0.0,0.0,0.0,0.0,0.0,0.0,0.0,0.0,0.0,0.0,0.0,0.0,0.0,0.0,0.6048,0.6301,0.6691,0.7391,0.7072,0.6775,0.6744,0.7178,0.7114,0.6349,0.0,0.0,0.0,0.0,0.0,0.0,0.0,0.0,0.0,0.0,0.0,0.0,0.0,0.0,0.0,0.0,0.0,0.0,0.0,0.0,0.0,0.0,0.0,0.0,0.0,0.0,0.0,0.0,0.0,0.0,0.0,0.0,0.0,0.0,0.0,0.0,0.0,0.0,0.0,0.0,0.0,0.0,0.0,0.0,0.0,0.0,0.0,0.0,0.0,0.0,0.0,0.0,0.0,0.0,0.0,0.0,0.0,0.0,0.0,0.0,0.737,0.6845,0.0,0.0,0.0,0.0,0.0,0.0,0.0,0.0,0.0,0.0,0.0,0.0,0.0,0.0,0.0,0.0,0.0,0.0,0.0,0.0,0.0,0.0,0.0,0.0,0.0,0.0,0.0,0.0,0.0,0.0,0.0,0.0,0.0,0.0,0.0,0.0,0.0,0.0,0.0,0.0,0.6048,0.6811,0.75,0.7963,0.8146,0.8167,0.7883,0.7654,0.7246,0.6503,0.6371,0.0,0.0,0.0,0.0,0.0,0.0,0.0,0.0,0.0,0.0,0.0,0.0,0.0,0.0,0.0,0.0,0.0,0.0,0.0,0.0,0.0,0.0,0.0,0.0,0.0,0.0,0.0,0.0,0.0,0.0,0.0,0.0,0.0,0.0,0.0,0.0,0.0,0.0,0.0,0.0,0.0,0.0,0.0,0.0,0.0,0.0,0.0,0.0,0.0,0.0,0.0,0.0,0.0,0.0,0.0,0.0,0.0,0.0,0.0,0.8738,0.8181,0.0,0.0,0.0,0.0,0.0,0.0,0.0,0.0,0.0,0.0,0.0,0.0,0.0,0.0,0.0,0.0,0.0,0.0,0.0,0.0,0.0,0.0,0.0,0.0,0.0,0.0,0.0,0.0,0.0,0.0,0.0,0.0,0.0,0.0,0.0,0.0,0.0,0.0,0.0,0.0,0.7129,0.7762,0.8325,0.8781,0.8759,0.852,0.8099,0.7913,0.7472,0.668,0.6382,0.0,0.0,0.0,0.0,0.0,0.0,0.0,0.0,0.0,0.0,0.0,0.0,0.0,0.0,0.0,0.0,0.0,0.0,0.0,0.0,0.0,0.0,0.0,0.0,0.0,0.0,0.0,0.0,0.0,0.0,0.0,0.0,0.0,0.0,0.0,0.0,0.0,0.0,0.0,0.0,0.0,0.0,0.0,0.0,0.0,0.0,0.0,0.0,0.0,0.0,0.0,0.0,0.0,0.957,0.9785,0.9971,1.0127,1.0352,1.0626,1.0203,0.9712,0.92,0.8715,0.0,0.0,0.0,0.0,0.0,0.0,0.0,0.0,0.0,0.0,0.0,0.0,0.0,0.0,0.0,0.0,0.0,0.0,0.0,0.0,0.0,0.0,1.2237,1.2275,1.2564,1.231,1.0391,0.0,0.0,0.0,0.0,0.0,0.0,0.0,0.0,0.0,0.0,0.0,0.8308,0.8721,0.9074,0.9477,0.9119,0.8639,0.8077,0.7953,0.7618,0.6962,0.6472,0.6173,0.0,0.0,0.0,0.0,0.0,0.0,0.0,0.0,0.0,0.0,0.0,0.0,0.0,0.0,0.0,0.0,0.0,0.0,0.0,0.0,0.0,0.0,0.0,0.0,0.0,0.0,0.0,0.0,0.0,0.0,0.0,0.0,0.5315,0.592,0.0,0.0,0.0,0.0,0.0,0.0,0.0,0.0,0.0,0.0,0.0,0.0,0.0,0.9257,0.9432,1.0581,1.1018,1.0674,1.1821,1.1997,1.1376,1.21,1.228,1.1992,1.2302,0.0,1.0073,0.9616,0.0,0.0,0.0,0.0,0.0,0.0,0.0,0.0,0.0,0.0,0.0,0.0,0.0,0.0,0.0,0.0,0.0,0.0,0.0,0.0,0.0,0.0,1.491,1.4018,1.4216,1.4368,1.3594,1.1933,1.0332,0.9449,0.8912,0.8496,0.0,0.0,0.0,0.0,0.0,0.0,0.8347,0.9042,0.9493,0.9517,0.9439,0.9159,0.8639,0.7898,0.744,0.7318,0.6334,0.5774,0.5761,0.5428,0.0,0.0,0.0,0.0,0.0,0.0,0.0,0.0,0.0,0.0,0.0,0.0,0.0,0.0,0.0,0.0,0.0,0.0,0.0,0.0,0.0,0.0,0.0,0.0,0.0,0.0,0.0,0.0,0.0,0.5205,0.594,0.5965,0.6314,0.6416,0.0,0.0,0.0,0.0,0.0,0.0,0.0,0.0,0.0,0.9469,1.0034,1.0586,1.1047,1.165,1.1963,1.2021,1.2603,1.2681,1.2371,1.2949,1.313,1.2954,1.3149,1.2798,1.2021,1.1303,1.1074,1.1146,0.0,0.0,0.0,0.0,1.2537,1.2775,1.4266,1.4578,1.4252,1.4208,0.0,0.0,0.0,0.0,0.0,0.0,0.0,1.4419,1.4148,1.4972,1.5788,1.5139,1.5398,1.5561,1.4688,1.3713,1.2553,1.0968,1.0511,0.9985,0.8671,0.8121,0.0,0.0,0.0,0.8649,0.8636,0.917,0.9401,0.9102,0.9039,0.8837,0.8275,0.7887,0.7481,0.698,0.6479,0.6072,0.5726,0.556,0.5173,0.0,0.0,0.0,0.0,0.0,0.0,0.0,0.0,0.0,0.0,0.0,0.0,0.0,0.0,0.0,0.0,0.0,0.0,0.0,0.0,0.0,0.0,0.0,0.0,0.0,0.0,0.0,0.0,0.5703,0.6263,0.601,0.6808,0.7206,0.0,0.0,0.0,0.0,0.0,0.0,0.9019,0.9727,1.0327,1.0767,1.1191,1.1782,1.2549,1.2506,1.2773,1.3203,1.3203,1.3203,1.3213,1.3525,1.3667,1.3667,1.3667,1.3667,1.3569,1.2711,1.2536,1.2742,1.2319,1.2763,1.3736,1.4371,1.4625,1.49,1.6837,1.722,1.6803,1.6535,1.63,1.592,1.4732,0.0,0.0,0.0,0.0,1.563,1.5729,1.6089,1.6277,1.5775,1.599,1.6003,1.5,1.4641,1.4019,1.2246,1.1838,1.1263,0.9483,0.8989,0.0,0.833,0.8834,0.917,0.8871,0.9207,0.9284,0.8658,0.8609,0.8328,0.7708,0.7663,0.7393,0.6757,0.663,0.6359,0.5848,0.5736,0.5328,0.4507,0.0,0.0,0.0,0.0,0.0,0.0,0.0,0.0,0.0,0.0,0.0,0.0,0.0,0.0,0.0,0.0,0.0,0.0,0.0,0.0,0.0,0.0,0.0,0.0,0.0,0.0,0.0,0.0,0.0,0.6448,0.7472,0.0,0.0,0.0,0.0,0.9442,0.951,0.9884,1.0737,1.1258,1.167,1.2068,1.2554,1.2993,1.3437,1.3442,1.3657,1.4019,1.4019,1.4019,1.4019,1.4038,1.4048,1.4048,1.4048,1.4048,1.3999,1.334,1.3339,1.3841,1.3918,1.4334,1.4929,1.597,1.6355,1.6525,1.7666,1.7969,1.7921,1.8532,1.8206,1.7485,1.6889,1.6644,0.0,0.0,1.7155,1.7627,1.7135,1.7134,1.6966,1.5891,1.5614,1.5493,1.4852,1.4207,1.3568,1.3037,1.2522,1.1935,1.1194,0.0,0.9497,0.8867,0.8861,0.8919,0.8896,0.9246,0.9203,0.8408,0.833,0.7983,0.7129,0.7063,0.7014,0.7001,0.674,0.6492,0.6182,0.5883,0.5222,0.4231,0.435,0.0,0.0,0.0,0.0,0.0,0.0,0.0,0.0,0.0,0.0,0.0,0.0,0.0,0.0,0.0,0.0,0.0,0.0,0.0,0.0,0.0,0.0,0.0,0.0,0.0,0.0,0.0,0.0,0.7428,0.8148,0.0,0.8139,0.901,0.9646,0.9793,1.0727,1.1397,1.1743,1.2173,1.2607,1.3037,1.3203,1.3486,1.3906,1.3911,1.3984,1.4082,1.4082,1.4082,1.4087,1.3861,1.3756,1.376,1.3246,1.3302,1.3756,1.3033,1.3515,1.4665,1.4725,1.5399,1.6393,1.7143,1.7719,1.8256,1.9405,1.9743,1.9735,1.9985,1.9872,1.9527,1.8887,1.8669,1.8566,1.8218,1.8318,1.8233,1.6989,1.6703,1.6329,1.4761,1.4402,1.4068,1.3017,1.258,1.2253,1.1694,1.1535,1.1206,1.0259,0.9809,0.943,0.895,0.9096,0.915,0.8796,0.8898,0.8747,0.8097,0.76,0.7338,0.7331,0.69,0.6737,0.6992,0.6924,0.6653,0.6213,0.6088,0.5512,0.4474,0.4325,0.3946,0.0,0.0,0.0,0.0,0.0,0.0,0.0,0.0,0.0,0.0,0.0,0.0,0.0,0.0,0.0,0.0,0.0,0.0,0.0,0.0,0.0,0.0,0.0,0.0,0.0,0.7381,0.771,0.8193,0.8723,0.8906,0.8528,0.9733,1.0472,1.0198,1.1475,1.2161,1.1905,1.2291,1.274,1.328,1.3013,1.3208,1.39,1.3681,1.358,1.3714,1.3714,1.3714,1.3723,1.3473,1.3414,1.336,1.2835,1.289,1.3334,1.2919,1.3379,1.4447,1.4848,1.5698,1.6802,1.7346,1.7824,1.8452,1.9598,2.0196,2.0415,2.0414,2.0411,2.0324,1.988,1.9589,1.9317,1.8757,1.8335,1.7679,1.6175,1.563,1.5043,1.3109,1.2686,1.2339,1.0968,1.0467,1.0281,1.0124,1.0586,1.0693,0.9763,0.9588,0.9419,0.8926,0.9076,0.9119,0.879,0.8539,0.8209,0.774,0.7019,0.671,0.6886,0.6416,0.6296,0.6786,0.6734,0.6603,0.6361,0.6094,0.5527,0.454,0.3911,0.3359,0.2899,0.0,0.0,0.0,0.0,0.0,0.0,0.0,0.0,0.0,0.0,0.0,0.0,0.0,0.0,0.0,0.0,0.0,0.0,0.0,0.0,0.0,0.0,0.0,0.8349,0.8081,0.8047,0.8643,0.9124,0.9272,0.8945,1.0607,1.1479,1.0834,1.1714,1.1982,1.1329,1.1544,1.2074,1.2881,1.2146,1.2323,1.3588,1.2784,1.2607,1.3009,1.3009,1.3005,1.2944,1.2944,1.2883,1.2879,1.2879,1.2879,1.2879,1.2879,1.2879,1.3043,1.4271,1.5231,1.5991,1.652,1.675,1.6988,1.8247,1.9176,1.9778,1.9758,1.9744,1.9744,1.9724,1.9287,1.8697,1.8107,1.7108,1.6009,1.4705,1.3962,1.3087,1.1079,1.0581,1.0229,0.892,0.8063,0.7767,0.8518,0.9721,1.0462,0.9862,0.9766,0.9566,0.8854,0.8755,0.0,0.8752,0.8103,0.7573,0.7329,0.6619,0.6061,0.5846,0.559,0.5738,0.6316,0.6226,0.6273,0.6521,0.5853,0.5145,0.4405,0.3105,0.2297,0.2011,0.0,0.0,0.0,0.0,0.0,0.0,0.0,0.0,0.0,0.0,0.0,0.0,0.0,0.0,0.0,0.0,0.0,0.0,0.0,0.0,0.0,0.8549,0.896,0.8599,0.8561,0.8689,0.9027,0.8991,0.8906,0.8817,0.9978,1.0641,1.0436,1.1335,1.1809,1.1585,1.1674,1.1974,1.255,1.2319,1.2493,1.3156,1.292,1.2914,1.3009,1.3009,1.2675,1.2016,1.148,1.0847,1.0197,0.9657,0.9714,1.0197,0.9591,1.0087,1.1287,1.2894,1.3932,1.4639,1.4785,1.5842,1.7392,1.828,1.9052,1.9519,1.9086,1.8917,1.8833,1.8359,1.7666,1.691,1.6395,1.5078,1.3534,1.2323,1.1379,1.0332,0.8813,0.8469,0.8217,0.7357,0.6999,0.695,0.7111,0.7481,0.8016,0.8949,0.9057,0.8844,0.8099,0.7993,0.783,0.7292,0.702,0.6886,0.6826,0.6112,0.5809,0.6068,0.547,0.5246,0.5698,0.5608,0.5506,0.5392,0.5158,0.4707,0.3972,0.3462,0.2249,0.0,0.0,0.0,0.0,0.0,0.0,0.0,0.0,0.0,0.0,0.0,0.0,0.0,0.0,0.0,0.0,0.0,0.0,0.0,0.0,0.0,0.0,0.9888,1.0174,0.9387,0.935,0.9448,0.945,0.9054,0.8854,0.8978,0.9778,1.021,1.0075,1.0922,1.133,1.1049,1.1184,1.1527,1.215,1.1801,1.1962,1.2664,1.2359,1.2242,1.2315,1.1908,1.1435,1.0893,1.0058,0.9334,0.8862,0.8358,0.8418,0.8854,0.8327,0.8668,0.9596,0.0,0.0,0.0,0.0,1.466,1.6079,1.6557,1.7137,1.7642,1.7268,1.7183,1.701,1.6288,1.5539,1.4873,1.4467,1.338,1.1963,1.049,0.9684,0.8819,0.7256,0.6891,0.6676,0.5878,0.5721,0.5837,0.6218,0.5989,0.0,0.7625,0.7889,0.7723,0.7292,0.7238,0.7074,0.664,0.6312,0.6204,0.6273,0.5555,0.5181,0.5451,0.497,0.0,0.0,0.0,0.4961,0.4712,0.47,0.0,0.0,0.0,0.0,0.0,-0.1534,0.0,0.0,0.1715,0.2364,0.0,0.0,0.0,0.0,0.0,0.0,0.0,0.0,0.0,0.0,0.0,0.0,0.0,0.0,0.0,0.0,1.1015,1.1225,1.0293,1.0153,1.0028,0.9732,0.919,0.8958,0.916,0.984,1.0107,0.9771,1.0454,1.0625,1.0038,1.0289,0.0,0.0,0.0,1.1053,1.1909,1.1217,1.0961,1.107,1.0158,0.9667,0.9528,0.8686,0.8192,0.8122,0.8122,0.8122,0.8108,0.8,0.7913,0.8003,0.8787,0.9998,1.1381,1.2362,1.3137,1.3745,1.3932,0.0,0.0,1.4845,1.484,1.4657,1.3902,1.33,1.2787,1.2538,1.1687,1.0497,0.8752,0.8149,0.7538,0.5879,0.5593,0.5525,0.4689,0.4473,0.4643,0.5122,0.4553,0.438,0.5651,0.6258,0.6593,0.6598,0.6601,0.6542,0.6376,0.5769,0.5502,0.569,0.4851,0.0,0.448,0.4341,0.4401,0.4807,0.467,0.4474,0.4331,0.4183,0.3654,0.2722,0.0671,-0.0698,-0.1265,-0.3112,-0.3997,-0.3929,-0.0814,0.0672,0.0,0.0,0.0,0.0,0.0,0.0,0.0,0.0,0.0,0.0,0.0,0.0,0.0,0.0,0.0,1.0476,1.0958,1.0971,1.0019,0.987,0.9644,0.9054,0.9062,0.9123,0.9176,0.9782,1.0086,1.0027,0.9796,0.9572,0.9452,0.9503,0.975,1.0092,1.0637,1.0767,1.0346,1.0215,0.976,0.8964,0.8754,0.0,0.7641,0.7429,0.6934,0.6294,0.6294,0.6294,0.6292,0.6264,0.6178,0.6251,0.7647,0.846,0.8904,1.0418,1.1041,1.1399,1.2724,1.3283,1.3322,1.2591,1.2389,1.2413,1.2421,1.1768,0.0,1.0853,0.8725,0.6439,0.6026,0.4703,0.3355,0.3014,0.3876,0.4714,0.4546,0.4492,0.3859,0.1551,0.0996,0.094,0.1213,0.4245,0.6623,0.6609,0.6614,0.6163,0.5041,0.4764,0.4709,0.4768,0.352,0.3128,0.4379,0.4471,0.4481,0.4554,0.4082,0.3772,0.3765,0.2823,0.1645,0.0288,-0.0145,-0.1463,-0.3552,-0.3983,-0.4094,-0.398,-0.3308,-0.248,0.0,0.0,0.0,0.0,0.0,0.0,0.0,0.0,0.0,0.0,0.0,0.9282,0.973,0.0,1.033,1.0668,1.0866,1.0603,0.94,0.927,0.9187,0.9001,0.9097,0.9299,0.9649,0.9943,0.9991,0.9697,0.9455,0.913,0.8791,0.8733,0.8839,0.907,0.9968,1.009,0.9346,0.9854,0.9702,0.8809,0.8373,0.7863,0.743,0.6916,0.6476,0.603,0.603,0.603,0.6025,0.5947,0.5828,0.5749,0.6543,0.7008,0.7565,0.9238,0.997,1.0212,1.0978,1.1328,1.1307,1.0656,1.0425,1.0348,1.01,0.9054,0.7912,0.7897,0.6645,0.4962,0.3143,0.1864,0.1078,0.1118,0.168,0.2453,0.32,0.2793,0.1783,0.0278,-0.1774,-0.3053,-0.2388,-0.044,0.1535,0.3098,0.3324,0.3049,0.2333,0.2673,0.307,0.3301,0.268,0.2513,0.3307,0.3373,0.3361,0.3361,0.2935,0.2367,0.1608,0.1004,0.005,-0.1256,-0.1959,-0.2993,-0.4355,-0.4249,-0.423,-0.4241,-0.4253,-0.3863,0.0,0.0,0.0,0.0,0.0,0.0,0.0,0.0,0.903,0.9777,0.974,0.9761,1.0395,1.0278,1.0176,1.0351,1.0289,0.9714,0.8472,0.8317,0.8432,0.875,0.8829,0.9004,0.9567,0.9668,0.9544,0.9058,0.8877,0.8524,0.7947,0.796,0.8002,0.8248,0.917,0.9354,0.8641,0.9455,0.9482,0.8692,0.7933,0.748,0.7482,0.6646,0.6264,0.6264,0.6263,0.6338,0.6252,0.6125,0.5984,0.5835,0.572,0.6054,0.6693,0.8241,0.8942,0.9184,0.9372,0.9588,0.9586,0.8373,0.7876,0.7536,0.667,0.544,0.4204,0.3896,0.3843,0.3255,0.065,-0.0254,-0.0618,-0.0963,-0.0711,-0.0116,0.1075,0.0391,-0.0556,-0.1055,-0.4006,-0.6115,-0.5098,-0.4794,-0.3822,-0.1272,-0.0885,-0.0885,-0.0885,-0.0166,0.0611,0.128,0.1337,0.145,0.1734,0.18,0.1502,0.0911,0.0678,0.0154,-0.0718,-0.1026,-0.1642,-0.2622,-0.3708,-0.4339,-0.451,-0.4345,-0.435,-0.4517,-0.4517,-0.4406,0.5573,0.6734,0.7849,0.8804,0.8996,0.9541,0.0,0.0,1.0496,1.0926,1.0807,1.0553,1.0268,0.9986,0.9599,0.9034,0.84,0.7717,0.6953,0.6851,0.6937,0.7287,0.7428,0.7589,0.7788,0.8061,0.8195,0.8156,0.7437,0.7001,0.7063,0.7074,0.7237,0.7595,0.8471,0.8574,0.7899,0.8051,0.7611,0.6642,0.649,0.6497,0.643,0.6354,0.6276,0.6276,0.6266,0.6338,0.6337,0.624,0.6144,0.6003,0.5988,0.5959,0.6013,0.6832,0.719,0.7375,0.8715,0.9173,0.8594,0.5218,0.3368,0.2339,0.1241,0.0746,0.0266,-0.1335,-0.1802,-0.1531,-0.0333,-0.1174,-0.2811,-0.443,-0.3311,-0.1931,-0.1749,-0.1822,-0.2617,-0.4838,-0.5629,-0.6073,-0.6327,-0.5821,-0.5056,-0.4141,-0.3979,-0.3979,-0.3979,-0.3922,-0.3299,-0.1839,-0.1727,-0.117,0.0112,0.0223,-0.0889,-0.3577,-0.379,-0.3272,-0.204,-0.3321,-0.4102,-0.4262,-0.4373,-0.4489,-0.4494,-0.4494,-0.4501,-0.4517,-0.4517,-0.451,0.6662,0.7605,0.0,0.0,0.9533,0.9965,1.1084,1.0495,0.9827,1.0221,0.9595,0.9003,0.9256,0.8812,0.8193,0.0,0.7234,0.6895,0.6658,0.6609,0.634,0.564,0.5661,0.6187,0.7479,0.7825,0.7765,0.7307,0.6955,0.6631,0.6255,0.6358,0.652,0.6757,0.7733,0.7772,0.6947,0.748,0.733,0.6271,0.6271,0.6276,0.6286,0.5011,0.5089,0.6278,0.6273,0.6268,0.6338,0.6338,0.6224,0.6156,0.6073,0.6001,0.5997,0.6909,0.7334,0.7362,0.623,0.5478,0.4551,0.221,0.0583,-0.0863,-0.2599,-0.3113,-0.3281,-0.4046,-0.43,-0.4097,-0.3354,-0.2922,-0.3147,-0.5,-0.4692,-0.426,-0.509,-0.4877,-0.4874,-0.6023,-0.6641,-0.6758,-0.6093,-0.6036,-0.5878,-0.5181,-0.4748,-0.4475,-0.4475,-0.4482,-0.426,-0.3584,-0.3527,-0.3302,-0.2685,-0.1786,-0.1842,-0.3079,-0.3988,-0.4212,-0.3576,-0.4144,-0.448,-0.4524,-0.4524,-0.4684,-0.5056,-0.4679,-0.4679,-0.5056,-0.468,-0.4517,0.6764,0.0,0.0,0.8788,0.9274,0.9704,1.0094,0.9572,0.9096,0.9341,0.7782,0.6455,0.6983,0.633,0.5531,0.5079,0.4851,0.4842,0.5098,0.5131,0.481,0.3994,0.3887,0.4475,0.6023,0.6861,0.6992,0.6404,0.6435,0.6335,0.5793,0.5947,0.6101,0.6256,0.7022,0.7022,0.6338,0.7028,0.7034,0.6278,0.5721,0.5729,0.6225,0.3522,0.3125,0.4618,0.5803,0.6278,0.6271,0.6271,0.6271,0.6261,0.6156,0.5338,0.4398,0.5127,0.5494,0.5393,0.3308,0.1826,0.0538,-0.1591,-0.2933,-0.4014,-0.5511,-0.5914,-0.5781,-0.5495,-0.5386,-0.5387,-0.5391,-0.4431,-0.3799,-0.5117,-0.5387,-0.5642,-0.6896,-0.6685,-0.6267,-0.6613,-0.7136,-0.7147,-0.5989,-0.6091,-0.6093,-0.5597,-0.4948,-0.4517,-0.4517,-0.4524,-0.4477,-0.4485,-0.4485,-0.4489,-0.4492,-0.3466,-0.2845,-0.2845,-0.3863,-0.4485,-0.4475,-0.4693,-0.4796,-0.4787,-0.4952,-0.5332,-0.5817,-0.5332,-0.5222,-0.5485,-0.5003,-0.468,0.0,0.0,0.7298,0.741,0.7785,0.8443,0.9803,0.938,0.8737,0.8723,0.5671,0.3052,0.3062,0.2124,0.1269,0.1083,0.0462,0.0352,0.1215,0.1368,0.1595,0.2203,0.2273,0.23,0.0,0.4223,0.5444,0.5442,0.5576,0.572,0.5794,0.5947,0.6101,0.6256,0.6338,0.6338,0.6338,0.635,0.6355,0.6278,0.4222,0.4312,0.6167,0.196,0.0157,0.0391,0.4548,0.6295,0.6293,0.6293,0.6293,0.6293,0.629,0.3822,0.0155,0.0233,0.0076,-0.0,0.0077,-0.0777,-0.2641,-0.6696,-0.791,-0.7785,-0.734,-0.7155,-0.6842,-0.5737,-0.543,-0.5432,-0.5377,-0.5369,-0.5362,-0.5369,-0.525,-0.5382,-0.6258,-0.629,-0.6399,-0.6959,-0.7084,-0.701,-0.6626,-0.5982,-0.5542,-0.5485,-0.4948,-0.4517,-0.4517,-0.4517,-0.4517,-0.4519,-0.4519,-0.4522,-0.4479,-0.4479,-0.4421,-0.4421,-0.4479,-0.4473,-0.4519,-0.5111,-0.5487,-0.5487,-0.6147,-0.6532,-0.6588,-0.6532,-0.6202,-0.5485,-0.5487,-0.5109,0.0,0.0,0.635,0.6794,0.6949,0.718,0.767,0.5753,0.3842,0.3858,0.2301,0.0779,0.011,-0.033,-0.1116,-0.2667,-0.3336,-0.3552,-0.3225,-0.1129,0.0876,0.2031,0.2226,0.0,0.0,0.0,0.4558,0.5311,0.5598,0.575,0.58,0.6044,0.6207,0.6337,0.6338,0.6264,0.6273,0.6276,0.629,0.6234,0.2744,-0.0078,-0.2117,-0.3536,-0.3135,-0.1325,0.0078,0.1244,0.2098,0.2098,0.2098,0.2098,0.2101,0.1244,-0.0311,-0.3122,-0.4812,-0.5611,-0.5507,-0.5837,-0.6538,-0.8394,-0.8888,-0.8683,-0.7594,-0.7238,-0.699,-0.5762,-0.5428,-0.543,-0.5434,-0.5432,-0.543,-0.5434,-0.5325,-0.567,-0.7145,-0.7235,-0.7125,-0.7416,-0.7695,-0.7459,-0.6255,-0.5737,-0.5326,-0.4895,-0.4625,-0.4517,-0.4517,-0.4517,-0.4517,-0.4517,-0.4517,-0.4519,-0.4522,-0.4522,-0.4686,-0.5115,-0.5169,-0.5389,-0.588,-0.6093,-0.6256,-0.6256,-0.6477,-0.6588,-0.6588,-0.6091,-0.5762,-0.5485,-0.5058,-0.4948,0.2279,0.3457,0.4462,0.4892,0.4576,0.4142,0.4246,0.2491,0.0585,-0.0514,-0.1189,-0.1798,-0.245,-0.2556,-0.3093,-0.4568,-0.5028,-0.5257,-0.5371,-0.2835,-0.0387,0.1245,0.1444,0.1384,0.0,0.0,0.0,0.5261,0.5627,0.579,0.5883,0.6172,0.6338,0.6338,0.6264,0.6271,0.6278,0.629,0.5509,0.4015,0.1335,-0.2199,-0.6329,-0.6329,-0.5349,-0.3589,-0.3589,-0.3115,-0.2331,-0.3025,-0.2871,-0.2331,-0.302,-0.3174,-0.3335,-0.6562,-0.8132,-0.8653,-0.8361,-0.8433,-0.8725,-0.9155,-0.9299,-0.9138,-0.8043,-0.7776,-0.7554,-0.6568,-0.634,-0.6274,-0.5947,-0.5881,-0.5817,-0.5493,-0.5622,-0.627,-0.7702,-0.8106,-0.8038,-0.7757,-0.7873,-0.747,-0.5768,-0.5321,-0.5094,-0.4655,-0.4553,-0.4517,-0.4517,-0.4517,-0.457,-0.484,-0.484,-0.495,-0.5226,-0.5226,-0.5443,-0.5873,-0.5871,-0.6091,-0.6586,-0.6858,-0.702,-0.702,-0.7235,-0.7277,-0.7083,-0.6913,-0.656,-0.6133,-0.6027,-0.6084,-0.0213,0.0545,0.1521,0.1867,0.0779,-0.0364,-0.0296,-0.024,-0.1019,-0.3918,-0.448,-0.4461,0.0,0.0,-0.4556,-0.4653,-0.4814,-0.5044,-0.5357,-0.3867,-0.2016,0.0,0.0,0.0,0.0,0.0,0.0,0.5044,0.552,0.5756,0.5986,0.618,0.6338,0.6263,0.6273,0.6278,0.6281,0.6074,0.3937,-0.0,-0.0,-0.2121,-0.6167,-0.6247,-0.6315,-0.6293,-0.6293,-0.6293,-0.645,-0.8342,-0.8024,-0.6601,-0.8509,-0.8892,-0.8516,-0.9758,-0.9878,-0.9301,-0.8655,-0.8873,-0.9372,-0.9448,-0.9448,-0.9365,-0.8847,-0.8704,-0.8605,-0.8167,-0.8034,-0.7829,-0.6915,-0.6719,-0.6459,-0.5686,-0.6075,-0.6979,-0.7894,-0.8745,-0.8998,-0.7928,-0.7623,-0.6995,-0.5182,-0.4797,-0.4702,-0.4759,-0.4685,-0.4525,-0.4517,-0.4517,-0.4787,-0.5433,-0.554,-0.5817,-0.6532,-0.6588,-0.6588,-0.6642,-0.664,-0.6701,-0.6712,-0.7405,-0.7788,-0.7818,-0.8456,-0.8527,-0.7937,-0.8745,-0.8534,-0.7351,-0.8128,-0.8193,-0.3305,-0.3812,-0.324,-0.1794,-0.1611,-0.2033,-0.3327,-0.3481,-0.3519,-0.4177,-0.4252,-0.4264,0.0,0.0,0.0,-0.4497,-0.4745,0.0,-0.5357,-0.387,0.0,-0.0208,0.0,-0.0,-0.0,-0.0,0.0,0.3519,0.4137,0.4804,0.5904,0.6157,0.6264,0.6273,0.6276,0.629,0.6315,0.3143,0.1099,-0.0,-0.0,-0.1411,-0.3994,-0.5582,-0.6291,-0.6269,-0.6269,-0.6269,-0.6349,-0.6817,-0.7196,-0.749,-0.7944,-0.8553,-0.9086,-0.9395,-0.9911,-1.0415,-1.0201,-1.0271,-1.0562,-1.1319,-1.1552,-1.1338,-1.0344,-0.9902,-0.9544,-0.8555,-0.8151,-0.7829,-0.6915,-0.6719,-0.6654,-0.6398,-0.6525,-0.7109,-0.8616,-0.9142,-0.9052,-0.8078,-0.6727,-0.5579,-0.5004,-0.4887,-0.5095,-0.5739,-0.5646,-0.5261,-0.4586,-0.495,-0.5326,-0.5487,-0.5982,-0.6423,-0.6586,-0.6588,-0.6858,-0.7399,-0.7399,-0.7754,-0.8502,-0.8536,-0.8734,-0.9159,-0.9131,-0.8875,-0.8445,-0.8625,-0.8305,-0.7478,-0.7658,-0.7957,-0.364,-0.4779,-0.5124,-0.3948,-0.3584,-0.3678,-0.4401,-0.4552,-0.4404,-0.4074,-0.4055,0.0,0.0,0.0,0.0,0.0,0.0,0.0,-0.4948,-0.4336,-0.292,0.0,-0.0,0.0,-0.0,-0.0,0.0459,0.1659,0.3735,0.5283,0.6066,0.6276,0.6279,0.6285,0.6295,0.4553,0.0783,-0.1569,-0.2277,-0.1331,-0.047,-0.1565,-0.4536,-0.5733,-0.6283,-0.6338,-0.6338,-0.6338,-0.6338,-0.6795,-0.7328,-0.7857,-0.8761,-0.9437,-1.0045,-1.0424,-1.0947,-1.1465,-1.1465,-1.1465,-1.1468,-1.162,-1.162,-1.1492,-1.071,-1.0305,-0.997,-0.9641,-0.9322,-0.8935,-0.8089,-0.7829,-0.7765,-0.7372,-0.7567,-0.8091,-0.9075,-0.9594,-0.9524,-0.8221,-0.6511,-0.5333,-0.5622,-0.5302,-0.5437,-0.6646,-0.623,-0.5734,-0.5634,-0.5819,-0.6213,-0.6785,-0.7118,-0.7494,-0.7938,-0.7946,-0.8117,-0.8568,-0.8568,-0.8807,-0.9369,-0.9279,-0.9349,-0.9676,-0.9519,-0.9163,-0.8711,-0.9081,-0.8716,-0.7714,-0.8519,-0.8641,-0.2908,-0.4146,-0.5241,-0.4947,-0.4956,-0.4917,-0.4339,-0.4325,-0.4282,-0.3851,0.0,-0.3853,-0.3597,-0.3844,-0.4092,-0.3899,0.0,-0.4287,-0.4461,-0.5011,-0.4079,-0.0422,-0.0,-0.0,-0.0,-0.0,-0.0,-0.0,0.3616,0.5873,0.5899,0.5837,0.5735,0.5494,0.4955,0.1253,-0.5841,-0.6167,-0.5357,-0.3519,-0.1722,-0.2427,-0.5485,-0.6051,-0.6283,-0.6263,-0.6338,-0.6338,-0.6414,-0.7403,-0.7859,-0.8161,-1.0034,-1.0861,-1.1087,-1.2144,-1.2519,-1.2519,-1.2519,-1.2519,-1.2295,-1.131,-1.1013,-1.0971,-1.0743,-1.0393,-1.0248,-1.0845,-1.0812,-1.0431,-0.953,-0.9274,-0.9139,-0.8353,-0.8748,-0.9338,-0.9463,-0.9913,-0.9776,-0.8285,-0.6662,-0.5815,-0.659,-0.5948,-0.5913,-0.7663,-0.6813,-0.6335,-0.7346,-0.712,-0.7279,-0.8451,-0.8447,-0.877,-0.9605,-0.9683,-0.9683,-0.9683,-0.9683,-0.9703,-0.974,-0.9706,-0.9719,-0.9796,-0.976,-0.9455,-0.8848,-0.961,-0.9292,-0.8027,-0.9582,-0.9451,-0.4375,-0.4671,-0.49,-0.4897,-0.4847,-0.4716,-0.4511,-0.4273,0.0,0.0,-0.3581,-0.3494,-0.3356,-0.3558,-0.3726,-0.3898,0.0,0.0,0.0,0.0,-0.4025,0.0,0.0,0.0,0.0,-0.0,0.0,-0.0,0.228,0.3687,0.3656,0.3667,0.2888,0.1169,-0.227,-0.4004,-0.3678,-0.5436,-0.6087,-0.5761,-0.5373,-0.3777,-0.1173,-0.4706,-0.6288,-0.6274,-0.6264,-0.6338,-0.6414,-0.7403,-0.8313,-0.9145,-1.0337,-1.1313,-1.2144,-1.3091,-1.3455,-1.3455,-1.3455,-1.3455,-1.331,-1.2365,-1.2073,-1.2063,-1.2011,-1.1556,-1.1204,-1.1291,-1.0969,-1.0431,-0.953,-0.9274,-0.9271,-0.9139,-0.9207,-0.9466,-1.0238,-0.939,-0.835,-0.8089,-0.7179,-0.6525,-0.6654,-0.6561,-0.6995,-0.8748,-0.7774,-0.7545,-0.9323,-0.8625,-0.8023,-0.8223,-0.8969,-0.951,-0.9679,-0.9683,-0.9683,-0.9683,-0.9683,-0.9793,-1.003,-0.981,-0.9913,-1.0398,-1.0167,-0.9749,-0.9197,-0.9394,-0.8962,-0.8027,-0.8285,-0.8285,-0.4718,-0.4759,-0.4774,-0.4784,-0.4745,-0.4609,-0.4302,0.0,0.0,0.0,0.0,-0.3276,-0.3039,0.0,0.0,0.0,0.0,0.0,0.0,0.0,0.0,0.0,0.0,0.0,0.0,-0.0,-0.0,-0.0,0.0943,0.1491,0.1487,0.1487,-0.0,-0.3211,-0.528,-0.5833,-0.4772,-0.5821,-0.6308,-0.6303,-0.6325,-0.4883,-0.2264,-0.391,-0.5247,-0.6347,-0.6874,-0.7099,-0.7175,-0.8161,-0.914,-1.0115,-1.0637,-1.1681,-1.3095,-1.3528,-1.3673,-1.3673,-1.3673,-1.3386,-1.2879,-1.2449,-1.2301,-1.2271,-1.2121,-1.177,-1.1393,-1.1243,-1.0892,-1.0495,-1.011,-0.998,-0.998,-0.998,-0.9658,-0.9399,-0.9853,-0.8544,-0.744,-0.7894,-0.7307,-0.685,-0.7307,-0.7219,-0.7634,-0.9055,-0.8279,-0.8127,-0.9873,-0.9444,-0.8886,-0.8542,-0.8844,-0.8955,-0.8804,-0.9208,-0.9521,-0.9521,-0.9894,-1.02,-1.0341,-1.0214,-1.0271,-1.0614,-0.9976,-0.9529,-0.9274,-0.8815,-0.8156,-0.7307,-0.7765,-0.7507,-0.4609,-0.4641,-0.4641,-0.4641,-0.4641,-0.4523,-0.4073,-0.3855,0.0,0.0,-0.3137,-0.3095,-0.2815,0.0,0.0,0.0,0.0,0.0,0.0,0.0,0.0,0.0,0.0,0.0,-0.0,-0.0,0.0,-0.0,-0.0,-0.0,-0.0,-0.0864,-0.2671,-0.5519,-0.6077,-0.6303,-0.6274,-0.6288,-0.605,-0.564,-0.5195,-0.4875,-0.4617,-0.4066,-0.4845,-0.6804,-0.7482,-0.7936,-0.8237,-0.9218,-1.0187,-1.1149,-1.1375,-1.2481,-1.4027,-1.4239,-1.4167,-1.4027,-1.4027,-1.3382,-1.2592,-1.2375,-1.2301,-1.2258,-1.2031,-1.171,-1.1379,-1.1149,-1.0832,-1.0624,-1.0624,-1.0624,-1.0558,-1.0364,-0.9789,-0.9271,-0.9072,-0.7829,-0.6913,-0.7567,-0.7307,-0.7177,-0.7897,-0.7945,-0.8266,-0.943,-0.8749,-0.8579,-0.993,-0.9679,-0.9185,-0.8586,-0.8549,-0.844,-0.806,-0.8812,-0.9274,-0.9274,-1.011,-1.0624,-1.0624,-1.0624,-1.0495,-1.0301,-0.9658,-0.9139,-0.8748,-0.8027,-0.7244,-0.6461,-0.7114,-0.673,-0.4536,-0.4539,-0.4539,-0.4539,-0.4539,-0.4419,-0.3916,0.0,0.0,-0.3022,-0.2827,-0.2805,-0.2944,-0.2878,0.0,0.0,0.0,0.0,0.0,0.0,0.0,0.0,0.0,0.0,-0.0,-0.0,-0.0,-0.0,-0.0,-0.0,-0.0,-0.3619,-0.5038,-0.344,-0.525,-0.6276,-0.6263,-0.6285,-0.5335,-0.3358,-0.1488,-0.2514,-0.6084,-0.6063,-0.6747,-0.813,-0.7872,-0.8313,-0.9221,-1.0265,-1.1215,-1.2158,-1.307,-1.4091,-1.5163,-1.6005,-1.579,-1.5092,-1.5092,-1.4382,-1.3459,-1.2592,-1.2301,-1.2298,-1.2268,-1.187,-1.1416,-1.1393,-1.0985,-1.0624,-1.0624,-1.0624,-1.0431,-0.9594,-0.9335,-0.9075,-0.8288,-0.737,-0.6717,-0.6785,-0.7372,-0.7894,-0.7959,-0.8661,-0.9433,-1.0361,-0.9494,-0.9053,-0.9986,-0.9185,-0.8278,-0.7665,-0.8559,-0.889,-0.8089,-0.8812,-0.9274,-0.9274,-1.011,-1.0624,-1.0624,-1.0624,-1.0238,-0.9466,-0.9338,-0.8549,-0.6913,-0.6848,-0.64,-0.5491,-0.5622,-0.5557,-0.4494,-0.4517,-0.4517,-0.4517,-0.4517,-0.4398,-0.3894,0.0,-0.3453,-0.3003,-0.2796,-0.2542,-0.207,-0.1496,-0.1165,0.0,0.0,0.0,0.0,0.0,0.0,0.0,0.0,0.0,0.0,0.0,-0.0,-0.0,-0.2357,-0.3778,-0.3778,-0.5367,-0.5914,-0.5089,-0.5878,-0.6273,-0.6338,-0.6283,-0.5256,-0.3123,-0.3532,-0.4009,-0.4471,-0.6583,-0.7664,-0.803,-0.9142,-1.0176,-1.1134,-1.2111,-1.3132,-1.406,-1.4442,-1.5159,-1.6075,-1.6493,-1.6005,-1.5234,-1.5234,-1.4526,-1.3531,-1.2592,-1.2662,-1.299,-1.2308,-1.1754,-1.139,-1.1212,-1.0875,-1.0624,-1.0624,-1.0624,-1.0495,-1.0171,-0.9265,-0.8417,-0.8091,-0.692,-0.6207,-0.7307,-0.7762,-0.8156,-0.8681,-0.9328,-0.9784,-0.9828,-0.953,-0.9611,-1.0337,-0.981,-0.9187,-0.8639,-0.7917,-0.7366,-0.723,-0.8027,-0.8748,-0.9274,-0.9594,-0.9786,-0.9786,-0.9326,-0.8871,-0.8549,-0.8027,-0.7372,-0.6719,-0.6203,-0.5752,-0.5428,-0.5428,-0.5428,-0.4415,-0.4429,-0.4517,-0.4517,-0.4429,-0.4282,0.0,-0.3617,-0.3385,-0.2939,-0.2766,-0.2493,-0.1848,-0.0762,-0.0,0.0,0.0,0.0,0.0,0.0,0.0,0.0,0.0,-0.0,-0.0,-0.0,-0.055,-0.1806,-0.4651,-0.6324,-0.6313,-0.6704,-0.6691,-0.6278,-0.6274,-0.6269,-0.6338,-0.6279,-0.5331,-0.3435,-0.4712,-0.5103,-0.4757,-0.7184,-0.8421,-0.8761,-1.0185,-1.1369,-1.2325,-1.3295,-1.4311,-1.5234,-1.5517,-1.6219,-1.6996,-1.6996,-1.6432,-1.5583,-1.5583,-1.4803,-1.36,-1.2952,-1.2948,-1.3125,-1.2271,-1.173,-1.1383,-1.1176,-1.0848,-1.0624,-1.0624,-1.0624,-1.0561,-1.0301,-0.9262,-0.8288,-0.8027,-0.7053,-0.6535,-0.7765,-0.8221,-0.8552,-0.9204,-0.9816,-1.0128,-0.9758,-0.9836,-1.0094,-1.0571,-1.0184,-0.9697,-0.9317,-0.7756,-0.6832,-0.7033,-0.7897,-0.8616,-0.9271,-0.953,-0.9594,-0.9338,-0.8683,-0.8159,-0.7635,-0.6981,-0.659,-0.6332,-0.5686,-0.5428,-0.5428,-0.5428,-0.5428,-0.4266,-0.4353,-0.4517,-0.4517,-0.4355,-0.4083,0.0,-0.3463,-0.3187,-0.279,-0.27,-0.2701,-0.268,-0.1213,-0.0,-0.0,0.0,0.0,0.0,0.0,0.0,0.0,0.0,-0.0,-0.0,-0.0,-0.1728,-0.5929,-0.625,-0.6313,-0.6279,-0.7594,-0.7671,-0.6355,-0.6268,-0.6338,-0.6338,-0.6273,-0.5559,-0.4213,-0.3435,-0.4915,-0.8212,-0.8288,-0.9175,-1.0786,-1.0783,-1.1391,-1.2375,-1.3313,-1.4311,-1.5301,-1.6214,-1.7143,-1.8013,-1.8013,-1.7359,-1.6567,-1.6567,-1.5296,-1.3673,-1.3669,-1.3095,-1.2301,-1.2298,-1.1891,-1.1426,-1.1423,-1.1002,-1.0624,-1.0624,-1.0624,-1.0368,-0.953,-0.9274,-0.9075,-0.8159,-0.7959,-0.7962,-0.8027,-0.8681,-0.9271,-0.9274,-1.004,-1.0618,-1.0558,-1.0618,-1.0614,-1.0624,-0.9846,-0.9335,-0.9274,-0.8482,-0.7957,-0.7959,-0.8812,-0.9271,-0.9274,-1.0107,-1.0174,-0.9338,-0.9271,-0.8484,-0.6719,-0.6719,-0.6268,-0.5428,-0.5428,-0.5428,-0.5428,-0.5428,-0.5428,-0.399,-0.3995,-0.398,-0.3931,-0.3826,-0.3702,-0.3444,-0.3364,-0.3189,-0.2769,-0.2705,-0.271,-0.2715,-0.1212,-0.0,-0.0,0.1712,0.0,0.0,0.0,0.0,0.0,-0.0,-0.0,0.0,-0.2582,-0.488,-0.6164,-0.7161,-0.7683,-0.7671,-0.8491,-0.8176,-0.6343,-0.6947,-0.7022,-0.6338,-0.7198,-0.7429,-0.7024,-0.7714,-0.8574,-0.9685,-0.993,-1.0637,-1.1797,-1.2478,-1.3712,-1.5284,-1.5575,-1.6219,-1.7153,-1.7432,-1.772,-1.8008,-1.8008,-1.7428,-1.6632,-1.6632,-1.579,-1.4593,-1.3886,-1.3531,-1.3128,-1.2277,-1.1734,-1.1343,-1.0945,-1.0701,-1.0624,-1.0624,-1.0624,-1.0558,-1.0238,-0.9725,-0.9207,-0.8944,-0.8417,-0.8156,-0.8748,-0.9139,-0.9466,-1.011,-1.0431,-1.0624,-1.0624,-1.0624,-1.0624,-1.0624,-1.0364,-1.0174,-1.0174,-0.9974,-0.9521,-0.8941,-0.9142,-0.953,-1.0174,-0.9916,-0.9594,-0.9338,-0.8156,-0.7242,-0.6719,-0.6139,-0.5688,-0.5428,-0.5428,-0.5428,-0.5428,-0.5428,-0.5428,0.0,-0.3745,-0.367,-0.3542,-0.3539,-0.3568,-0.3356,-0.3018,-0.2726,-0.2718,-0.271,-0.2267,-0.0908,0.0269,0.0952,0.0723,0.2331,0.0,0.0,0.0,0.0,0.006,0.0,0.0,-0.2199,-0.61,-0.8112,-0.7157,-0.8304,-0.8978,-0.8727,-0.9455,-0.914,-0.7478,-0.801,-0.8086,-0.7403,-0.8257,-0.8648,-0.8727,-0.986,-1.0617,-1.107,-1.1591,-1.2371,-1.34,-1.4008,-1.4946,0.0,-1.6424,-1.6932,-1.752,-1.7872,-1.8008,-1.8008,-1.8008,-1.7647,-1.707,-1.6706,-1.6005,-1.5021,-1.403,-1.3375,-1.2863,-1.2002,-1.1496,-1.1166,-1.0695,-1.0624,-1.0624,-1.0624,-1.0624,-1.0624,-1.0624,-1.0174,-0.9789,-0.9789,-0.9393,-0.9131,-0.9655,-0.9789,-0.998,-1.0495,-1.0624,-1.0624,-1.0624,-1.0624,-1.0624,-1.0624,-1.0624,-1.0624,-1.0624,-1.0624,-1.0368,-0.9849,-0.9789,-1.0044,-1.0561,-1.011,-0.9658,-0.9338,-0.8288,-0.7372,-0.6719,-0.6465,-0.6207,-0.5881,-0.6207,-0.6406,-0.6406,-0.6406,-0.6406,0.0,-0.3299,-0.3416,-0.3191,-0.3343,-0.3503,-0.3283,-0.2535,0.0,-0.2426,-0.2405,-0.1249,0.2187,0.2773,0.2548,0.2007,0.2146,0.0,0.0,0.0,0.0,0.0,0.013,-0.1762,-0.6199,-0.9913,-1.0986,-0.8572,-0.9651,-1.0173,-0.9521,-1.0559,-1.0706,-0.9739,-0.9739,-0.9591,-0.9299,-0.9374,-0.9445,-0.9521,-1.0444,-1.147,-1.2444,-1.3356,-1.4308,-1.5305,-1.5305,-1.5376,-1.5446,-1.6358,-1.6719,-1.6816,-1.7657,-1.8008,-1.8008,-1.8008,-1.8008,-1.7867,-1.6996,-1.6075,-1.5017,-1.3928,-1.2784,-1.178,-1.1486,-1.1206,-1.0932,-1.0708,-1.0624,-1.0624,-1.0624,-1.0624,-1.0624,-1.0624,-1.0624,-1.0624,-1.0624,-1.0624,-1.0624,-1.0624,-1.0624,-1.0624,-1.0624,-1.0624,-1.0624,-1.0624,-1.0624,-1.0624,-1.0624,-1.0624,-1.0624,-1.0624,-1.0624,-1.0624,-1.0624,-1.0624,-1.0624,-1.0624,-1.0624,-1.0238,-0.9402,-0.9338,-0.8552,-0.6915,-0.7635,-0.7632,-0.6785,-0.7632,-0.8027,-0.8027,-0.8027,-0.8027,0.1438,0.0,-0.1952,-0.1794,-0.2336,-0.2885,0.0,-0.2647,-0.2148,0.0,0.0,0.0,0.0,0.3488,0.305,0.3168,0.3479,0.3916,0.4436,0.0,0.0,0.4202,0.1663,-0.2506,-0.8941,-0.9416,-0.9301,-0.9395,-1.0673,-1.1446,-1.1489,-1.3183,-1.4064,-1.3841,-1.3841,-1.2378,-0.9296,-1.0043,-1.0774,-1.1495,-1.2538,-1.3491,-1.4498,-1.4708,-1.535,-1.628,-1.628,-1.6645,-1.7368,-1.7579,-1.7652,-1.7657,-1.7935,-1.8008,-1.8008,-1.8008,-1.8008,-1.794,-1.7725,-1.6581,-1.4905,-1.296,-1.1978,-1.1473,-1.1186,-1.1045,-1.0932,-1.0708,-1.0624,-1.0624,-1.0624,-1.0624,-1.0624,-1.0624,-1.0624,-1.0624,-1.0624,-1.0624,-1.0624,-1.0624,-1.0624,-1.0624,-1.0624,-1.0624,-1.0624,-1.0624,-1.0624,-1.0624,-1.0624,-1.0624,-1.0624,-1.0624,-1.0624,-1.0624,-1.0624,-1.0624,-1.0624,-1.0624,-1.0624,-1.0495,-1.0301,-0.9658,-0.9139,-0.8681,-0.8223,-0.7894,-0.77,-0.7894,-0.8027,-0.8027,-0.8027,-0.8027,0.3093,0.1579,-0.0061,-0.0423,-0.0991,-0.1472,-0.1457,0.0,0.0,0.0,0.0,0.0,0.0,0.0,0.0,0.0,0.3877,0.0,0.0,0.0,0.5324,0.5377,0.2209,-0.2159,-0.7656,-0.8574,-0.93,-1.0243,-1.15,-1.2454,-1.2958,-1.4032,-1.4599,-1.4599,-1.4759,-1.3974,-1.2011,-1.2531,-1.3041,-1.3617,-1.4569,-1.5296,-1.5864,-1.6298,-1.6789,-1.7212,-1.7212,-1.7506,-1.8008,-1.8008,-1.8008,-1.7993,-1.7798,-1.7842,-1.7988,-1.7793,-1.7847,-1.794,-1.7501,-1.6083,-1.4256,-1.2454,-1.167,-1.1373,-1.1079,-1.0899,-1.0762,-1.0668,-1.0624,-1.0624,-1.0624,-1.0624,-1.0624,-1.0624,-1.0624,-1.0624,-1.0624,-1.0624,-1.0624,-1.0624,-1.0624,-1.0624,-1.0624,-1.0624,-1.0624,-1.0624,-1.0624,-1.0624,-1.0624,-1.0624,-1.0624,-1.0624,-1.0624,-1.0624,-1.0624,-1.0624,-1.0624,-1.0624,-1.0624,-1.0624,-1.0624,-1.0174,-0.9916,-0.9916,-0.9069,-0.8807,-0.9192,-0.9554,-0.9558,-0.9192,-0.9558,-0.9558,0.3794,0.305,0.2012,0.1047,0.0504,0.0212,0.025,0.0,0.0,0.0,0.0,0.0,0.0,0.0,0.0,0.0,0.0,0.0,0.4875,0.5059,0.4998,0.4623,0.1868,-0.1543,-0.5443,-0.8083,-1.0016,-1.1212,-1.2338,-1.338,-1.4082,-1.4218,-1.4353,-1.4353,-1.4652,-1.5027,-1.5418,-1.5251,-1.5301,-1.5442,-1.6157,-1.6546,-1.6762,-1.7556,-1.7915,-1.7915,-1.7915,-1.7915,-1.7905,-1.7842,-1.7812,-1.7778,-1.7427,-1.7544,-1.7861,-1.73,-1.7378,-1.7638,-1.6504,-1.4969,-1.3404,-1.2177,-1.1563,-1.1306,-1.1141,-1.088,-1.0624,-1.0744,-1.0681,-1.0624,-1.0624,-1.0624,-1.0624,-1.0624,-1.0624,-1.0624,-1.0624,-1.0624,-1.0624,-1.0624,-1.0624,-1.0621,-1.0744,-1.0804,-1.0804,-1.0804,-1.0804,-1.0744,-1.0621,-1.0624,-1.0624,-1.0624,-1.0624,-1.0624,-1.0624,-1.0624,-1.0624,-1.0624,-1.0624,-1.0624,-1.0624,-1.0624,-1.0684,-1.0804,-1.0034,-1.0098,-1.0993,-1.1655,-1.1655,-1.0989,-1.1655,-1.1531,0.5139,0.4809,0.4085,0.2975,0.1873,0.1169,0.0,0.0,0.0,0.0,0.0,0.0,0.0,0.0,0.0,0.0,0.0,0.4711,0.0,0.0,0.402,0.1198,0.0334,-0.2196,-0.7717,-0.9524,-1.0788,-1.1978,-1.3611,-1.4722,-1.5045,-1.5863,-1.627,-1.627,-1.6332,-1.6393,-1.646,-1.5627,-1.5583,-1.6349,-1.6152,-1.6483,-1.7267,-1.7409,-1.748,-1.748,-1.748,-1.748,-1.7451,-1.708,-1.6929,-1.686,-1.6855,-1.71,-1.7351,-1.6234,-1.6216,-1.6522,-1.4539,-1.3428,-1.2803,-1.1555,-1.1096,-1.113,-1.1573,-1.1143,-1.0744,-1.141,-1.1108,-1.0624,-1.0624,-1.0624,-1.0624,-1.0624,-1.0624,-1.0624,-1.0624,-1.0624,-1.0624,-1.0624,-1.0624,-1.0804,-1.1531,-1.1652,-1.1652,-1.1652,-1.1652,-1.1347,-1.0684,-1.0624,-1.0624,-1.0624,-1.0624,-1.0624,-1.0624,-1.0624,-1.0624,-1.0624,-1.0624,-1.0624,-1.0624,-1.0624,-1.0926,-1.1589,-1.1458,-1.183,-1.2642,-1.2765,-1.2761,-1.2642,-1.2765,-1.2389,0.5219,0.5362,0.5229,0.4526,0.3822,0.3452,0.0,0.0,0.0,0.0,0.0,0.0,0.0,0.0,0.0,0.4502,0.0,0.4837,0.5055,0.3504,0.1774,0.02,-0.1261,-0.416,-0.9253,-1.0206,-1.1286,-1.3157,-1.4044,-1.4748,-1.5299,-1.5763,-1.602,-1.602,-1.6245,-1.6372,-1.6372,-1.6123,-1.6331,-1.7029,-1.6835,-1.6954,-1.7378,-1.7144,-1.7031,-1.7031,-1.7031,-1.7031,-1.7017,-1.6816,-1.667,-1.6709,-1.6465,-1.6374,-1.6253,-1.5263,-1.509,-1.5162,-1.3586,-1.2972,-1.2725,-1.1414,-1.1307,-1.1693,-1.1744,-1.1838,-1.1969,-1.2328,-1.1538,-1.0681,-1.1167,-1.0926,-1.0684,-1.117,-1.0926,-1.0624,-1.0624,-1.0624,-1.0624,-1.0624,-1.0923,-1.123,-1.1167,-1.1527,-1.1648,-1.123,-1.1167,-1.1048,-1.0624,-1.0624,-1.0624,-1.0624,-1.0624,-1.0624,-1.0624,-1.0624,-1.0624,-1.0624,-1.0624,-1.0624,-1.0624,-1.1048,-1.141,-1.1768,-1.2201,-1.2634,-1.3009,-1.3429,-1.3429,-1.3009,-1.3009,-1.2573,0.52,0.565,0.5988,0.5906,0.0,0.5349,0.6076,0.0,0.0,0.0,0.0,0.0,0.0,0.0,0.0,0.4679,0.4792,0.4874,0.5118,0.2171,-0.0466,-0.1733,-0.3771,-0.6521,-1.0136,-1.0832,-1.1958,-1.4021,-1.4387,-1.4751,-1.5357,-1.541,-1.541,-1.541,-1.5737,-1.5908,-1.5908,-1.6353,-1.6797,-1.7227,-1.7124,-1.7075,-1.7061,-1.6728,-1.6577,-1.6577,-1.6577,-1.6577,-1.6567,-1.6465,-1.6426,-1.6387,-1.6045,-1.5539,-1.4815,-1.4216,-1.3716,-1.3326,-1.2698,-1.2543,-1.2501,-1.1475,-1.1707,-1.2407,-1.2564,-1.2911,-1.3287,-1.3468,-1.2492,-1.152,-1.1954,-1.1597,-1.1292,-1.171,-1.1351,-1.0804,-1.0621,-1.0744,-1.0863,-1.0863,-1.1534,-1.19,-1.1296,-1.1659,-1.1838,-1.0986,-1.0863,-1.0804,-1.0621,-1.0624,-1.0624,-1.0624,-1.0624,-1.0624,-1.0624,-1.0624,-1.0624,-1.0624,-1.0431,-1.0488,-1.0867,-1.1469,-1.1954,-1.2381,-1.3,-1.3368,-1.355,-1.4209,-1.4149,-1.355,-1.3368,-1.2879,0.5713,0.6103,0.6458,0.7177,0.0,0.0,0.6185,0.0,0.0,0.0,0.0,0.0,0.0,0.4807,0.4536,0.4743,0.4804,0.4917,0.535,0.2273,-0.1867,-0.6864,-0.7947,-0.8924,-1.0372,-1.187,-1.3151,-1.4145,-1.4869,-1.5352,-1.541,-1.541,-1.541,-1.541,-1.5439,-1.5459,-1.5459,-1.5894,-1.6338,-1.6777,-1.6357,-1.6218,-1.6213,-1.6184,-1.6113,-1.6113,-1.6113,-1.6113,-1.614,-1.5674,-1.5508,-1.5503,-1.5469,-1.451,-1.317,-1.3072,-1.2131,-1.091,-1.1059,-1.1475,-1.1839,-1.1751,-1.2301,-1.3208,-1.4618,-1.459,-1.4173,-1.4891,-1.4531,-1.3703,-1.3109,-1.2887,-1.2638,-1.1954,-1.1772,-1.1531,-1.0744,-1.1167,-1.1706,-1.1706,-1.2389,-1.2887,-1.2826,-1.2887,-1.2634,-1.183,-1.1706,-1.1469,-1.0681,-1.0624,-1.0624,-1.0624,-1.0624,-1.0624,-1.0624,-1.0624,-1.0624,-1.0624,-0.9849,-1.0088,-1.1648,-1.1772,-1.25,-1.4025,-1.4089,-1.451,-1.5235,-1.5294,-1.5289,-1.523,-1.4451,-1.367,0.4709,0.5913,0.6991,0.7299,0.0,0.0,0.0,0.0,0.0,0.0,0.0,0.0,0.0,0.0,0.4497,0.4588,0.2912,0.1679,0.2009,-0.1711,-0.5143,-0.7193,-0.8832,-1.0173,-1.1144,-1.2744,-1.4218,-1.555,-1.5911,-1.6088,-1.6088,-1.6088,-1.5864,-1.541,-1.541,-1.541,-1.541,-1.5576,-1.5742,-1.5913,-1.6016,-1.6125,-1.611,-1.5786,-1.5659,-1.5659,-1.5659,-1.5659,-1.5644,-1.5478,-1.541,-1.5294,-1.4328,-1.355,-1.2858,-1.182,-1.113,-1.0701,-1.1298,-1.163,-1.1946,-1.2943,-1.378,-1.4613,-1.5691,-1.61,-1.6337,-1.6634,-1.6516,-1.5882,-1.4186,-1.3368,-1.3065,-1.3239,-1.2935,-1.2451,-1.2151,-1.2336,-1.2573,-1.2573,-1.2761,-1.2826,-1.2328,-1.2262,-1.1962,-1.117,-1.1045,-1.0926,-1.0621,-1.0624,-1.0624,-1.0624,-1.0624,-1.0624,-1.0624,-1.0107,-1.0044,-1.0561,-1.0304,-1.0604,-1.1768,-1.2266,-1.3057,-1.4209,-1.4688,-1.5108,-1.541,-1.541,-1.541,-1.5357,-1.4089,-1.3308,0.3667,0.5232,0.6766,0.0,0.0,0.0,0.0,0.0,0.0,0.0,0.0,0.0,0.0,0.0,0.0,0.3016,0.1088,-0.0869,-0.2319,-0.5147,-0.7506,-0.8554,-1.0179,-1.1671,-1.2708,-1.4305,-1.5593,-1.643,-1.6487,-1.6487,-1.6487,-1.6487,-1.6374,-1.6078,-1.6078,-1.5968,-1.5753,-1.5753,-1.5637,-1.5415,-1.5713,-1.5854,-1.585,-1.5547,-1.541,-1.541,-1.541,-1.541,-1.541,-1.541,-1.541,-1.523,-1.361,-1.3009,-1.2826,-1.1174,-1.0744,-1.1045,-1.1589,-1.2135,-1.2797,-1.4064,-1.5008,-1.584,-1.6837,-1.7533,-1.7955,-1.7955,-1.7955,-1.7556,-1.5746,-1.4714,-1.4131,-1.4204,-1.379,-1.3312,-1.3065,-1.3187,-1.3368,-1.3368,-1.361,-1.342,-1.2385,-1.2201,-1.1838,-1.0744,-1.0624,-1.0624,-1.0624,-1.0624,-1.0624,-1.0624,-1.0624,-1.0624,-1.0624,-1.0044,-1.0101,-1.0923,-1.0986,-1.1351,-1.2143,-1.294,-1.379,-1.4569,-1.5113,-1.541,-1.541,-1.5113,-1.4991,-1.4991,-1.336,-1.2638,0.2797,0.4066,0.0,0.0,0.0,0.0,0.0,0.0,0.0,0.0,0.0,0.4663,0.0719,-0.0055,0.0,-0.0302,-0.0366,-0.2182,-0.7281,-0.7461,-0.8348,-1.1781,-1.2537,-1.3457,-1.51,-1.6685,-1.7296,-1.6595,-1.6544,-1.6544,-1.6544,-1.6544,-1.6866,-1.7578,-1.7578,-1.7252,-1.6549,-1.6487,-1.6151,-1.541,-1.541,-1.5415,-1.541,-1.541,-1.541,-1.541,-1.541,-1.541,-1.541,-1.541,-1.541,-1.523,-1.367,-1.3009,-1.2826,-1.1237,-1.1108,-1.183,-1.183,-1.2866,-1.4314,-1.508,-1.5861,-1.6816,-1.8286,-1.8715,-1.8715,-1.8715,-1.8715,-1.8555,-1.7792,-1.709,-1.6135,-1.4619,-1.4209,-1.403,-1.3187,-1.367,-1.4209,-1.4209,-1.4874,-1.4869,-1.3308,-1.3009,-1.2458,-1.0867,-1.0621,-1.0624,-1.0624,-1.0624,-1.0624,-1.0624,-1.0624,-1.0624,-1.0624,-1.0624,-1.0923,-1.1772,-1.183,-1.2201,-1.3009,-1.379,-1.4569,-1.5352,-1.541,-1.541,-1.541,-1.4569,-1.4209,-1.4149,-1.2561,-1.183,0.1438,0.0,0.0,0.0,0.0,0.0,0.0,0.0,0.0,0.0,0.4756,0.2596,0.0388,-0.2553,-0.4655,-0.475,-0.5189,-0.6067,-0.7566,-0.8337,-0.9071,-1.0115,-1.1807,-1.3242,-1.4176,-1.5527,-1.6677,-1.743,-1.7809,-1.8064,-1.8064,-1.8064,-1.7901,-1.7627,-1.7578,-1.7468,-1.7252,-1.7252,-1.6922,-1.6151,-1.6151,-1.5921,-1.541,-1.541,-1.541,-1.541,-1.541,-1.541,-1.541,-1.541,-1.541,-1.5294,-1.4268,-1.3489,-1.2948,-1.2458,-1.2085,-1.1954,-1.3114,-1.4113,-1.5206,-1.6471,-1.744,-1.8226,-1.9202,-1.9475,-1.9475,-1.9475,-1.9475,-1.9307,-1.8555,-1.8226,-1.7677,-1.6172,-1.5848,-1.5613,-1.4864,-1.4869,-1.505,-1.505,-1.481,-1.4209,-1.3187,-1.3009,-1.2638,-1.1593,-1.1469,-1.1226,-1.0681,-1.0624,-1.0624,-1.0624,-1.0624,-1.0624,-1.0624,-1.1108,-1.1531,-1.1768,-1.2866,-1.3601,-1.3846,-1.4085,-1.4569,-1.5352,-1.541,-1.541,-1.541,-1.4569,-1.4506,-1.4986,-1.2801,-1.2077,0.0768,0.0,0.0,0.0,0.0,0.0,0.0,0.0,0.0,0.0,0.0,0.011,-0.1938,-0.4838,-0.696,-0.7075,-0.7468,-0.7985,-0.8654,-0.9344,-1.0105,-1.1048,-1.267,-1.4091,-1.5013,-1.6133,-1.7014,-1.752,-1.7867,-1.8186,-1.8394,-1.8405,-1.8395,-1.8489,-1.8495,-1.8334,-1.8064,-1.8064,-1.7682,-1.6922,-1.6652,-1.6265,-1.5811,-1.5522,-1.541,-1.541,-1.541,-1.541,-1.541,-1.541,-1.541,-1.5294,-1.4506,-1.391,-1.3429,-1.313,-1.2879,-1.2866,-1.3841,-1.489,-1.597,-1.723,-1.8118,-1.8827,-1.9585,-1.9805,-1.9805,-1.9805,-1.9805,-1.9689,-1.9254,-1.915,-1.8768,-1.7307,-1.6922,-1.6754,-1.5974,-1.5864,-1.5753,-1.5468,-1.4991,-1.4451,-1.361,-1.3489,-1.3122,-1.1954,-1.1531,-1.117,-1.0684,-1.0624,-1.0624,-1.0624,-1.0624,-1.0624,-1.0624,-1.1347,-1.1954,-1.2266,-1.3481,-1.4328,-1.4688,-1.4688,-1.4869,-1.541,-1.541,-1.541,-1.541,-1.4569,-1.4451,-1.4869,-1.3114,-1.2389,0.0,0.0,0.0,0.0,0.0,0.0,0.0,0.0,0.0,0.1867,0.0,-0.2908,-0.5666,-0.6947,-0.7706,-0.8022,-0.8101,-0.8685,-1.0192,-1.0513,-1.1387,-1.347,-1.4408,-1.5446,-1.6808,-1.7627,-1.7766,-1.7189,-1.7182,-1.7414,-1.7891,-1.7927,-1.8479,-1.971,-1.9736,-1.9432,-1.8821,-1.8827,-1.8447,-1.7682,-1.7034,-1.6657,-1.6487,-1.5753,-1.541,-1.541,-1.541,-1.541,-1.541,-1.541,-1.541,-1.5352,-1.4569,-1.4268,-1.4149,-1.3489,-1.367,-1.4209,-1.4387,-1.5376,-1.6708,-1.7468,-1.8226,-1.8933,-1.9585,-1.9805,-1.9805,-1.9805,-1.9805,-1.9805,-1.9805,-1.9747,-1.9365,-1.801,-1.7627,-1.7418,-1.6652,-1.643,-1.6203,-1.5526,-1.541,-1.5113,-1.4328,-1.4209,-1.3657,-1.2012,-1.1167,-1.0684,-1.0624,-1.0624,-1.0624,-1.0624,-1.0684,-1.0684,-1.0684,-1.1531,-1.2324,-1.3065,-1.385,-1.4628,-1.5357,-1.541,-1.541,-1.541,-1.541,-1.541,-1.541,-1.4569,-1.4268,-1.4273,-1.3429,-1.2634,0.0,0.0,0.0,0.0,0.0,0.0,0.0,0.0,-0.3175,-0.2063,-0.4637,-0.7331,-0.7976,-0.8722,-0.9204,-0.9298,-0.9799,-1.0311,-1.0653,-1.1617,-1.2473,-1.2938,-1.402,-1.5036,-1.5836,-1.6446,-1.6943,-1.7303,-1.7753,-1.7991,-1.8115,-1.8121,-1.8466,-1.9127,-1.9189,-1.9289,-1.9579,-1.9579,-1.9202,-1.8442,-1.828,-1.7633,-1.6487,-1.5753,-1.541,-1.541,-1.541,-1.541,-1.541,-1.541,-1.541,-1.5352,-1.523,-1.4751,-1.4268,-1.4688,-1.4569,-1.4382,-1.5613,-1.6574,-1.7462,-1.8226,-1.8986,-1.9585,-1.9747,-1.9805,-1.9805,-1.9805,-1.9805,-1.9805,-1.9805,-1.9365,-1.888,-1.8555,-1.801,-1.7418,-1.6652,-1.6036,-1.558,-1.541,-1.541,-1.5113,-1.4328,-1.4209,-1.3657,-1.2012,-1.1648,-1.1285,-1.0684,-1.0624,-1.0624,-1.0624,-1.117,-1.1527,-1.1527,-1.287,-1.3786,-1.3906,-1.4692,-1.523,-1.541,-1.541,-1.541,-1.541,-1.541,-1.541,-1.541,-1.4569,-1.451,-1.5113,-1.367,-1.2887,0.0,0.0,0.0,0.0,0.0,0.0,0.0,0.0,-0.8203,-0.7716,-0.8693,-0.9684,-0.9684,-1.0491,-1.1249,-1.1559,-1.1938,-1.2313,-1.2609,-1.3248,-1.382,-1.413,-1.471,-1.5371,-1.5964,-1.6258,-1.6575,-1.6923,-1.7231,-1.7513,-1.7796,-1.7808,-1.8066,-1.8618,-1.8637,-1.8763,-1.9032,-1.9032,-1.8828,-1.8464,-1.808,-1.7347,-1.6267,-1.6059,-1.5753,-1.541,-1.5748,-1.5753,-1.541,-1.541,-1.541,-1.541,-1.541,-1.5113,-1.4815,-1.5235,-1.5337,-1.5434,-1.6197,-1.7196,-1.8172,-1.8555,-1.9202,-1.9805,-1.9805,-1.9805,-1.9805,-1.9805,-1.9805,-1.9805,-1.9805,-1.9254,-1.8715,-1.8715,-1.8118,-1.7418,-1.6652,-1.6203,-1.5806,-1.5468,-1.5113,-1.4688,-1.4268,-1.3537,-1.2749,-1.1954,-1.1469,-1.1045,-1.0621,-1.0624,-1.0744,-1.1104,-1.1531,-1.1958,-1.2324,-1.3481,-1.4209,-1.4209,-1.4932,-1.5235,-1.481,-1.4815,-1.4815,-1.4815,-1.5172,-1.523,-1.4815,-1.4805,-1.4986,-1.5352,-1.4149,-1.3368,0.0,0.0,0.0,0.0,0.0,0.0,0.0,0.0,-1.2148,-1.29,-1.2069,-1.1232,-1.1232,-1.2219,-1.3219,-1.3794,-1.3846,-1.4054,-1.4606,-1.4789,-1.5056,-1.5543,-1.5758,-1.6077,-1.6588,-1.6716,-1.6759,-1.6637,-1.6637,-1.6803,-1.7206,-1.7231,-1.7488,-1.8047,-1.8066,-1.811,-1.8204,-1.8204,-1.8204,-1.8204,-1.7472,-1.6758,-1.6188,-1.6483,-1.6171,-1.5471,-1.6095,-1.6022,-1.541,-1.541,-1.541,-1.541,-1.541,-1.541,-1.541,-1.5522,-1.5979,-1.6544,-1.6816,-1.7682,-1.8715,-1.8874,-1.9307,-1.9805,-1.9805,-1.9805,-1.9805,-1.9805,-1.9805,-1.9747,-1.9637,-1.9044,-1.8442,-1.8203,-1.7544,-1.6896,-1.641,-1.6068,-1.5728,-1.5104,-1.4451,-1.3965,-1.3781,-1.2687,-1.1768,-1.1586,-1.1048,-1.0661,-1.0711,-1.0822,-1.1149,-1.182,-1.2104,-1.2504,-1.3126,-1.397,-1.4392,-1.4392,-1.505,-1.5108,-1.4446,-1.4268,-1.4209,-1.4209,-1.4869,-1.4874,-1.4209,-1.4991,-1.541,-1.5352,-1.4751,-1.391,0.0,0.0,0.0,0.0,0.0,0.0,0.0,0.0,-1.3627,0.0,-1.3841,-1.3292,-1.3292,-1.3939,-1.4446,-1.4549,-1.4555,-1.4601,-1.4703,-1.5147,-1.5499,-1.5588,-1.6489,-1.7098,-1.7188,-1.7626,-1.7706,-1.7229,-1.7188,-1.7031,-1.6622,-1.6628,-1.6898,-1.7476,-1.7495,-1.7721,-1.8198,-1.8204,-1.8204,-1.8204,-1.7472,-1.7059,-1.6961,-1.7003,-1.6539,-1.5677,-1.5787,-1.5624,-1.541,-1.541,-1.541,-1.541,-1.541,-1.541,-1.5468,-1.6151,-1.643,-1.6652,-1.7955,-1.8555,-1.8821,-1.9423,-1.9695,-1.9805,-1.9805,-1.9805,-1.9805,-1.9805,-1.9805,-1.9637,-1.8986,-1.828,-1.7385,-1.6043,-1.5211,-1.4773,-1.5317,-1.4396,-1.342,-1.3368,-1.3247,-1.294,-1.2258,-1.195,-1.1589,-1.0867,-1.0684,-1.0743,-1.1152,-1.1658,-1.2084,-1.2284,-1.3233,-1.3906,-1.4025,-1.481,-1.523,-1.523,-1.5352,-1.5347,-1.523,-1.4569,-1.4209,-1.4209,-1.4332,-1.4332,-1.4209,-1.4991,-1.541,-1.541,-1.5294,-1.4451,0.0,0.0,0.0,0.0,0.0,0.0,0.0,0.0,-1.5425,-1.6046,-1.5929,-1.551,-1.4863,-1.5264,-1.57,-1.57,-1.57,-1.57,-1.57,-1.6207,-1.6538,-1.6538,-1.7244,-1.7747,-1.7747,-1.794,-1.798,-1.7787,-1.747,-1.7188,-1.6951,-1.6674,-1.6635,-1.6892,-1.6898,-1.7011,-1.7262,-1.7262,-1.7262,-1.7256,-1.6915,-1.6767,-1.6767,-1.6767,-1.6351,-1.5693,-1.6116,-1.5998,-1.541,-1.541,-1.541,-1.541,-1.541,-1.5637,-1.6036,-1.6379,-1.7034,-1.7852,-1.8495,-1.8986,-1.9365,-1.9695,-1.9805,-1.9695,-1.9313,-1.9202,-1.9097,-1.8661,-1.8555,-1.8495,-1.8172,-1.7203,-1.6291,-1.6193,-1.4509,-1.298,-1.3489,-1.3278,-1.2887,-1.2451,-1.2328,-1.2081,-1.1288,-1.1108,-1.1167,-1.1288,-1.1288,-1.1527,-1.2178,-1.251,-1.2817,-1.3322,-1.3868,-1.4387,-1.481,-1.5172,-1.541,-1.541,-1.541,-1.5172,-1.4751,-1.4392,-1.397,-1.355,-1.3965,-1.4209,-1.4209,-1.4991,-1.541,-1.5415,-1.4932,-1.4089,0.0,0.0,0.0,0.0,0.0,0.0,0.0,0.0,-1.6661,-1.7135,-1.7363,-1.7244,-1.6385,-1.6587,-1.6873,-1.6716,-1.6716,-1.6674,-1.6515,-1.6951,-1.7312,-1.7312,-1.79,-1.8295,-1.8295,-1.8419,-1.8458,-1.8295,-1.794,-1.7585,-1.7312,-1.6915,-1.6716,-1.6716,-1.6558,-1.6637,-1.6915,-1.6752,-1.6637,-1.6515,-1.6515,-1.6515,-1.6515,-1.6515,-1.6272,-1.588,-1.6554,-1.6348,-1.5484,-1.5651,-1.558,-1.541,-1.541,-1.5753,-1.6265,-1.6647,-1.7468,-1.8495,-1.8874,-1.9365,-1.9805,-1.9805,-1.9689,-1.9423,-1.888,-1.8555,-1.8286,-1.7737,-1.7578,-1.7512,-1.7108,-1.6172,-1.536,-1.5553,-1.3669,-1.183,-1.1768,-1.1954,-1.1892,-1.1271,-1.1013,-1.07,-1.0225,-1.0234,-1.0667,-1.1896,-1.2197,-1.2582,-1.3314,-1.3532,-1.3811,-1.4309,-1.445,-1.4751,-1.5352,-1.541,-1.541,-1.541,-1.541,-1.5108,-1.451,-1.4332,-1.4025,-1.361,-1.3877,-1.4109,-1.4209,-1.4991,-1.5289,-1.505,-1.451,-1.3666,0.0,0.0,0.0,0.0,0.0,0.0,0.0,0.0,-1.6611,-1.7022,-1.7628,-1.802,-1.7973,-1.798,-1.786,-1.7347,-1.7271,-1.707,-1.6558,-1.6951,-1.7312,-1.7312,-1.8217,-1.8848,-1.8848,-1.9325,-1.9406,-1.8893,-1.881,-1.8373,-1.7347,-1.7271,-1.7271,-1.7271,-1.6752,-1.6993,-1.802,-1.751,-1.6993,-1.6515,-1.6515,-1.6515,-1.6515,-1.6515,-1.6406,-1.6291,-1.6851,-1.653,-1.5711,-1.6253,-1.6036,-1.541,-1.541,-1.541,-1.5637,-1.7024,-1.7578,-1.7846,-1.9254,-1.9747,-1.9805,-1.9805,-1.9313,-1.8768,-1.8715,-1.8226,-1.7627,-1.7627,-1.7578,-1.728,-1.5825,-1.536,-1.4775,-1.2598,-1.195,-1.1586,-1.0867,-1.004,-0.946,-0.946,-0.874,-0.8347,-0.8807,-0.9137,-1.0148,-1.2573,-1.3368,-1.3906,-1.4446,-1.4959,-1.5143,-1.4807,-1.5113,-1.5347,-1.541,-1.541,-1.541,-1.541,-1.541,-1.5352,-1.5352,-1.4633,-1.4569,-1.523,-1.42,-1.3843,-1.4209,-1.4991,-1.4991,-1.4268,-1.4209,-1.3356,0.0,0.0,0.0,0.0,0.0,0.0,-1.4159,-1.5175,-1.6182,-1.7385,-1.805,-1.8586,-1.9045,-1.8574,-1.802,-1.782,-1.782,-1.7747,-1.7544,-1.798,-1.8334,-1.8334,-1.8968,-1.9406,-1.9406,-1.9603,-1.9603,-1.9442,-1.9088,-1.8734,-1.8334,-1.798,-1.782,-1.782,-1.7626,-1.7706,-1.8099,-1.7585,-1.7188,-1.6993,-1.6674,-1.6515,-1.6515,-1.6515,-1.6449,-1.6444,-1.7036,-1.6715,-1.573,-1.6299,-1.6093,-1.541,-1.541,-1.5695,-1.6151,-1.6703,-1.7196,-1.7737,-1.8774,-1.8768,-1.8447,-1.8933,-1.8608,-1.7901,-1.7413,-1.7085,-1.6816,-1.6301,-1.5828,-1.5293,-1.4768,-1.3408,-1.1748,-0.9787,-0.8991,-0.8595,-0.8734,-0.8626,-0.8439,-0.828,-0.7994,-0.7978,-0.8499,-0.8683,-0.9612,-1.2085,-1.3802,-1.4868,-1.5065,-1.611,-1.6456,-1.5476,-1.6255,-1.6458,-1.5634,-1.5925,-1.6093,-1.6093,-1.5437,-1.5221,-1.57,-1.4712,-1.4253,-1.4535,-1.4428,-1.4582,-1.4986,-1.4489,-1.4203,-1.4213,-1.3666,-1.2814,-0.1216,0.0,0.0,0.0,0.0,-1.2134,-1.3435,-1.4403,-1.5476,-1.7056,-1.7944,-1.872,-1.9619,-1.9165,-1.8627,-1.8416,-1.8373,-1.8295,-1.8138,-1.8574,-1.8893,-1.8893,-1.9369,-1.9682,-1.9682,-1.9682,-1.9682,-1.9682,-1.9369,-1.9088,-1.8893,-1.8574,-1.8295,-1.8099,-1.8458,-1.8458,-1.8099,-1.7747,-1.747,-1.7312,-1.6752,-1.6515,-1.6515,-1.6515,-1.6515,-1.6547,-1.7131,-1.6806,-1.5951,-1.6262,-1.5972,-1.5334,-1.5525,-1.5694,-1.6002,-1.6645,-1.7034,-1.7357,-1.8058,-1.801,-1.7682,-1.8172,-1.7846,-1.7079,-1.6342,-1.5943,-1.5555,-1.4805,-1.4213,-1.373,-1.3476,-1.1714,-0.9693,-0.8544,-0.739,-0.6762,-0.7392,-0.754,-0.7483,-0.7256,-0.7011,-0.6899,-0.7225,-0.7922,-0.9357,-1.2011,-1.3804,-1.4897,-1.5253,-1.6127,-1.6445,-1.5614,-1.6194,-1.6343,-1.5456,-1.57,-1.593,-1.593,-1.5074,-1.477,-1.5288,-1.4541,-1.4082,-1.4082,-1.4282,-1.4561,-1.498,-1.4172,-1.378,-1.379,-1.3,-1.2147,0.0,0.0,0.0,0.0,0.0,0.0,-1.2641,0.0,-1.4474,-1.5971,-1.7285,-1.85,-1.9646,-1.9882,-1.9671,-1.9038,-1.8954,-1.8765,-1.821,-1.8612,-1.893,-1.893,-1.9369,-1.9682,-1.9682,-1.9682,-1.9682,-1.9682,-1.9682,-1.9486,-1.8968,-1.893,-1.8696,-1.8178,-1.9169,-1.9207,-1.8138,-1.8099,-1.782,-1.7312,-1.6752,-1.6515,-1.6515,-1.6515,-1.6515,-1.6547,-1.7112,-1.6974,-1.6297,-1.6229,-1.5782,-1.5128,-1.57,-1.5449,-1.4972,-1.6868,-1.7047,-1.6558,-1.7258,-1.7533,-1.7478,-1.7528,-1.7052,-1.6286,-1.5471,-1.4744,-1.4025,-1.3252,-1.3,-1.274,-1.1862,-1.0271,-0.8865,-0.8731,-0.7389,-0.6263,-0.6928,-0.6859,-0.6531,-0.6233,-0.5572,-0.5072,-0.493,-0.6783,-0.9362,-1.244,-1.3479,-1.4187,-1.4966,-1.5133,-1.5133,-1.5065,-1.4948,-1.4831,-1.4821,-1.4831,-1.4841,-1.4841,-1.4365,-1.4116,-1.4111,-1.4102,-1.4043,-1.4043,-1.3706,-1.3654,-1.4063,-1.4073,-1.3751,-1.2931,-1.2124,-1.1333,-0.2359,0.0,0.0,0.0,0.0,0.0,-1.1084,-1.1851,-1.3003,-1.5263,-1.6277,-1.7221,-1.88,-1.9344,-1.9562,-1.9599,-2.0055,-2.0135,-1.9391,-1.9658,-1.9793,-1.9515,-1.9603,-1.9682,-1.9682,-1.9682,-1.9682,-1.9682,-1.9682,-1.9646,-1.9486,-1.9486,-1.9406,-1.9251,-1.9566,-1.9369,-1.8696,-1.8295,-1.782,-1.7312,-1.6752,-1.6515,-1.6515,-1.6515,-1.6515,-1.6528,-1.6691,-1.6617,-1.6458,-1.6747,-1.6177,-1.5143,-1.5758,-1.529,-1.4434,-1.5399,-1.5344,-1.4859,-1.5627,-1.5521,-1.5167,-1.5675,-1.5595,-1.511,-1.4288,-1.415,-1.4025,-1.3252,-1.239,-1.1286,-0.9134,-0.7857,-0.7005,-0.6322,-0.5006,-0.4166,-0.5231,-0.5398,-0.5381,-0.5293,-0.5451,-0.5633,-0.5621,-0.7274,-0.9709,-1.2925,-1.4692,-1.5532,-1.5153,-1.6031,-1.6136,-1.4731,-1.5678,-1.6042,-1.5093,-1.5393,-1.5623,-1.5623,-1.439,-1.3924,-1.4454,-1.3676,-1.3228,-1.3228,-1.3413,-1.3303,-1.2933,-1.2379,-1.2266,-1.2507,-1.1191,-1.0475,0.0,0.0,0.0,0.0,0.0,0.0,-1.1051,-1.1489,-1.2336,-1.4592,-1.5474,-1.6337,-1.7896,-1.8551,-1.8967,-1.9303,-1.9913,-2.0272,-1.9993,-2.0,-1.9972,-1.9718,-1.9682,-1.9682,-1.9682,-1.9682,-1.9682,-1.9682,-1.9682,-1.9682,-1.9682,-1.9874,-1.9874,-1.9726,-1.9486,-1.9207,-1.8893,-1.8138,-1.7626,-1.7312,-1.6752,-1.6515,-1.6515,-1.6515,-1.6515,-1.6515,-1.6515,-1.6515,-1.6522,-1.6736,-1.6226,-1.5339,-1.568,-1.5158,-1.4279,-1.4935,-1.4704,-1.4184,-1.4578,-1.4483,-1.4184,-1.4583,-1.4439,-1.3946,-1.3136,-1.2645,-1.2216,-1.1406,-1.0432,-0.9245,-0.7317,-0.6686,-0.6138,-0.4702,-0.3682,-0.3466,-0.5061,-0.5287,-0.5128,-0.5128,-0.5507,-0.5938,-0.6453,-0.7979,-0.9961,-1.2383,-1.4402,-1.5395,-1.4671,-1.5518,-1.5677,-1.429,-1.498,-1.5226,-1.4517,-1.4716,-1.4911,-1.4911,-1.386,-1.3432,-1.3857,-1.3238,-1.2881,-1.2881,-1.312,-1.277,-1.1774,-1.1654,-1.1424,-1.1274,-1.0342,-0.9937,0.0,0.0,0.0,0.0,-1.077,0.0,-1.1835,-1.1864,-1.2141,-1.3726,-1.4528,-1.5333,-1.6648,-1.7366,-1.7873,-1.8234,-1.8809,-1.9398,-1.9987,-1.9779,-1.9559,-1.9606,-1.9577,-1.96,-1.9675,-1.9682,-1.9682,-1.9682,-1.9682,-1.9682,-1.9682,-2.0027,-2.0054,-1.9639,-1.9169,-1.8848,-1.8734,-1.7787,-1.7271,-1.7188,-1.6716,-1.6515,-1.6515,-1.6515,-1.6515,-1.6515,-1.6515,-1.6515,-1.6472,-1.6429,-1.6051,-1.5496,-1.5509,-1.5011,-1.4276,-1.4828,-1.4588,-1.3946,-1.3946,-1.3946,-1.3941,-1.3879,-1.3476,-1.2851,-1.1888,-1.0775,-0.9599,-0.8679,-0.7915,-0.7138,-0.6342,-0.6227,-0.5746,-0.3739,-0.3314,-0.3847,-0.5764,-0.5855,-0.5649,-0.5703,-0.5903,-0.6363,-0.7376,-0.8829,-1.0257,-1.1466,-1.3311,-1.4427,-1.3862,-1.4288,-1.4376,-1.3774,-1.3581,-1.3506,-1.3506,-1.3506,-1.3506,-1.3506,-1.3115,-1.2881,-1.2881,-1.2881,-1.2881,-1.2881,-1.273,-1.2049,-1.0813,-1.1448,-1.1011,-0.9636,-0.9636,-0.9575,0.0,0.0,0.0,-1.1174,-1.248,0.0,-1.1514,-1.1443,-1.1732,-1.1873,-1.2015,-1.2562,-1.4053,-1.5018,-1.5766,-1.6265,-1.6947,-1.7698,-1.8493,-1.8648,-1.8719,-1.8871,-1.8904,-1.9106,-1.9637,-1.9682,-1.9682,-1.9682,-1.9682,-1.9682,-1.9682,-1.9782,-1.958,-1.9088,-1.8968,-1.8496,-1.7626,-1.7388,-1.707,-1.6637,-1.6558,-1.6515,-1.6515,-1.6515,-1.6515,-1.6515,-1.6515,-1.6515,-1.6472,-1.5958,-1.5416,-1.4932,-1.5386,-1.4606,-1.3238,-1.3871,-1.3675,-1.3125,-1.3125,-1.3125,-1.3016,-1.2419,-1.2442,-1.2233,-1.0305,-0.9757,-0.9438,-0.7826,-0.6857,-0.6184,-0.5746,-0.5252,-0.4577,-0.3346,-0.4214,-0.5423,-0.5894,-0.6167,-0.6583,-0.7176,-0.7322,-0.7549,-0.833,-0.9614,-1.1044,-1.2337,-1.3363,-1.3909,-1.3821,-1.3909,-1.3737,-1.3152,-1.3352,-1.3506,-1.3506,-1.3506,-1.3506,-1.3506,-1.3115,-1.2881,-1.2881,-1.2881,-1.2881,-1.2881,-1.1796,-1.107,-1.0813,-1.068,-1.0133,-0.9325,-0.9325,-0.8986,0.0,-1.0961,-1.1569,-1.2472,-1.3281,0.0,0.0,-1.2394,-1.2388,-1.302,-1.2528,-1.2384,-1.3628,-1.4229,-1.4618,-1.4783,-1.5456,-1.6071,-1.6412,-1.7375,-1.8149,-1.8429,-1.8459,-1.8596,-1.8931,-1.8961,-1.9113,-1.9539,-1.9697,-1.9862,-1.9977,-2.0,-1.978,-1.9317,-1.8772,-1.8256,-1.7706,-1.7153,-1.6612,-1.6051,-1.6051,-1.6051,-1.6051,-1.6051,-1.6238,-1.6515,-1.6515,-1.6515,-1.6479,-1.6188,-1.5517,-1.4703,-1.4687,-1.4143,-1.3329,-1.3329,-1.3152,-1.2881,-1.2881,-1.2666,-1.229,-1.1922,-1.1281,-1.0387,-0.9272,-0.8336,-0.7415,-0.6158,-0.5522,-0.522,-0.5024,-0.4741,-0.4473,-0.428,-0.5117,-0.6071,-0.6657,-0.6972,-0.7447,-0.8557,-0.8768,-0.8869,-0.9169,-1.0096,-1.1162,-1.2146,-1.3178,-1.3684,-1.3372,-1.3589,-1.3552,-1.2973,-1.3071,-1.3193,-1.3193,-1.3193,-1.3193,-1.3193,-1.2993,-1.2881,-1.2881,-1.2881,-1.2881,-1.2881,-1.1837,-1.1111,-1.0813,-1.0289,-0.9699,-0.9025,-0.9025,-0.8635,-1.1609,-1.2206,-1.3087,-1.3948,-1.4217,-1.425,0.0,0.0,0.0,-1.4106,-1.3303,-1.2675,-1.3475,-1.3639,-1.36,-1.3407,-1.4065,-1.4472,-1.4167,-1.5683,-1.7008,-1.7546,-1.7752,-1.7906,-1.806,-1.7951,-1.8261,-1.9217,-1.9269,-1.9491,-2.0074,-2.0087,-1.9874,-1.9398,-1.8535,-1.798,-1.7787,-1.6818,-1.6095,-1.5588,-1.5588,-1.5588,-1.5588,-1.5726,-1.6051,-1.6515,-1.6515,-1.6515,-1.6479,-1.6374,-1.5694,-1.4652,-1.4143,-1.3826,-1.3552,-1.306,-1.2881,-1.2881,-1.2881,-1.2403,-1.1765,-1.1665,-1.0116,-0.8261,-0.8146,-0.6766,-0.5218,-0.4679,-0.4517,-0.4517,-0.4517,-0.4524,-0.4638,-0.5166,-0.5668,-0.628,-0.7295,-0.7824,-0.8455,-0.9603,-0.9917,-1.0012,-1.0167,-1.0614,-1.1216,-1.1922,-1.2909,-1.3462,-1.2973,-1.3329,-1.3415,-1.2973,-1.2881,-1.2827,-1.2715,-1.2666,-1.2666,-1.2666,-1.2569,-1.2622,-1.2881,-1.2881,-1.2881,-1.2881,-1.2035,-1.1362,-1.0813,-1.0016,-0.9312,-0.8808,-0.8808,-0.8427,-1.4118,-1.532,-1.6201,-1.5276,-1.645,-1.7027,-1.4009,0.0,-1.3666,-1.2047,0.0,-1.1542,-1.183,0.0,0.0,-1.1872,-1.2568,-1.2883,-1.2131,-1.2952,-1.4093,-1.5386,-1.6119,-1.6826,-1.7573,-1.7078,-1.7294,-1.876,-1.7626,-1.7598,-1.924,-1.9308,-1.9001,-1.8313,-1.8178,-1.7626,-1.6674,-1.6039,-1.5676,-1.5588,-1.5588,-1.5588,-1.5632,-1.6145,-1.6429,-1.6515,-1.6515,-1.6515,-1.6472,-1.5908,-1.5326,-1.4698,-1.4606,-1.3925,-1.2973,-1.2929,-1.2881,-1.2881,-1.2881,-1.2403,-1.1715,-1.1116,-0.9041,-0.674,-0.6079,-0.5269,-0.457,-0.4517,-0.4517,-0.4517,-0.4517,-0.4519,-0.4519,-0.457,-0.5607,-0.6537,-0.6696,-0.8231,-0.9603,-0.9762,-1.0265,-1.0864,-1.1462,-1.1665,-1.1922,-1.2666,-1.2915,-1.2973,-1.2929,-1.2973,-1.2973,-1.2929,-1.2881,-1.2618,-1.1972,-1.1918,-1.1918,-1.1918,-1.1371,-1.1588,-1.2827,-1.2881,-1.2881,-1.2881,-1.1588,-1.0864,-1.0813,-0.951,-0.8857,-0.8808,-0.8808,-0.8427,-1.5008,-1.5724,-1.6282,-1.5928,-1.6142,-1.6078,-1.4778,-1.4163,-1.3807,-1.3517,0.0,0.0,0.0,0.0,0.0,0.0,-1.1656,-1.1522,-1.1059,-1.1215,-1.2137,-1.4253,-1.4784,-1.5208,-1.5853,-1.5679,-1.5877,-1.6762,-1.6184,-1.6476,-1.8074,-1.8656,-1.8611,-1.7984,-1.8075,-1.7572,-1.6465,-1.6225,-1.5782,-1.5101,-1.541,-1.5588,-1.5626,-1.5864,-1.6188,-1.6472,-1.6145,-1.5958,-1.5914,-1.5326,-1.4738,-1.4195,-1.4195,-1.3652,-1.2881,-1.2881,-1.2881,-1.2881,-1.2881,-1.2147,-1.0902,-0.8989,-0.7584,-0.6369,-0.5277,-0.4732,-0.4517,-0.4517,-0.4517,-0.4517,-0.4517,-0.4517,-0.457,-0.5003,-0.5875,-0.6851,-0.7635,-0.8856,-1.0012,-1.0817,-1.1503,-1.2052,-1.2393,-1.208,-1.203,-1.2774,-1.2881,-1.2881,-1.2881,-1.2881,-1.2881,-1.2881,-1.2505,-1.2133,-1.1814,-1.1462,-1.1216,-1.1216,-1.1312,-1.1674,-1.2236,-1.2662,-1.2881,-1.2881,-1.2309,-1.1638,-1.0813,-1.0214,-0.9562,-0.8808,-0.8808,-0.8427,-1.5556,-1.5975,-1.6302,-1.6009,-1.5557,-1.5145,-1.4925,-1.4606,-1.4495,-1.4945,-1.4395,0.0,0.0,0.0,-1.2409,0.0,0.0,-1.0905,-1.0219,-1.0055,-1.0845,-1.3076,-1.3675,-1.4098,-1.4651,-1.4182,-1.4258,-1.5265,-1.475,-1.5165,-1.699,-1.7584,-1.7787,-1.7668,-1.7661,-1.7243,-1.6453,-1.6312,-1.5826,-1.4966,-1.541,-1.5588,-1.5588,-1.577,-1.6101,-1.6479,-1.6051,-1.577,-1.5588,-1.5147,-1.4509,-1.3821,-1.3821,-1.342,-1.2881,-1.2881,-1.2881,-1.2881,-1.2881,-1.1999,-1.0348,-0.7531,-0.6588,-0.6315,-0.4954,-0.4517,-0.4517,-0.4517,-0.4517,-0.4517,-0.4517,-0.4517,-0.4679,-0.5326,-0.6036,-0.7009,-0.8419,-0.9422,-1.0462,-1.1805,-1.2638,-1.3135,-1.3377,-1.2817,-1.2467,-1.2822,-1.2881,-1.2881,-1.2881,-1.2881,-1.2881,-1.2881,-1.2236,-1.1715,-1.1562,-1.0914,-1.0466,-1.0265,-1.1061,-1.1516,-1.1516,-1.2241,-1.2666,-1.2881,-1.2515,-1.1841,-1.0813,-1.0415,-0.9762,-0.8808,-0.8808,-0.8537,-1.6145,-1.6841,-1.7133,-1.5457,-1.5353,-1.5306,-1.3875,-1.4995,-1.6082,-1.5267,-1.6339,-1.7234,-1.6613,-1.5627,0.0,0.0,0.0,0.0,0.0,-0.9526,-1.0266,-1.1518,-1.2824,-1.3903,-1.4632,-1.271,-1.2463,-1.5023,-1.3217,-1.3279,-1.6173,-1.5924,-1.6128,-1.7108,-1.6733,-1.651,-1.6515,-1.5914,-1.5626,-1.5582,-1.5588,-1.5588,-1.5632,-1.6194,-1.6472,-1.6515,-1.6472,-1.6145,-1.5588,-1.5588,-1.4863,-1.3821,-1.3821,-1.342,-1.2881,-1.2881,-1.2881,-1.2881,-1.2881,-1.1999,-1.0348,-0.7531,-0.6588,-0.6315,-0.4954,-0.4517,-0.4517,-0.4517,-0.4517,-0.4517,-0.4517,-0.4517,-0.4679,-0.5326,-0.6036,-0.7009,-0.8419,-0.9773,-1.1157,-1.2527,-1.3321,-1.3956,-1.452,-1.4143,-1.3552,-1.2968,-1.2881,-1.2881,-1.2881,-1.2881,-1.2881,-1.2881,-1.2236,-1.1562,-1.0868,-1.0214,-0.9562,-0.891,-1.0115,-1.0813,-1.0813,-1.1462,-1.2187,-1.2881,-1.1584,-1.0868,-1.0813,-0.9514,-0.8857,-0.8808,-0.8808,-0.8804,-1.5213,-1.5803,-1.6074,-1.5519,-1.5212,-1.4947,-1.4591,-1.5489,-1.6043,-1.4773,-1.6159,-1.7223,-1.6023,-1.5436,0.0,0.0,0.0,0.0,0.0,-1.0004,-1.0146,-1.0198,-1.1744,-1.2646,-1.2229,-1.1492,-1.1439,-1.2407,-1.1796,-1.2147,-1.389,-1.4811,-1.5263,-1.5264,-1.6066,-1.6149,-1.5368,-1.593,-1.6008,-1.5588,-1.6002,-1.6002,-1.5588,-1.5814,-1.5694,-1.5293,-1.4875,-1.4595,-1.4359,-1.3967,-1.3557,-1.319,-1.319,-1.306,-1.2881,-1.2881,-1.2608,-1.2035,-1.1183,-1.0198,-0.9096,-0.7219,-0.6256,-0.571,-0.4789,-0.4517,-0.4517,-0.4517,-0.4517,-0.4517,-0.4517,-0.4517,-0.4679,-0.5326,-0.6396,-0.7667,-0.9068,-1.081,-1.2381,-1.3273,-1.4302,-1.4915,-1.4744,-1.4875,-1.4635,-1.3647,-1.351,-1.3329,-1.2973,-1.2881,-1.2881,-1.2881,-1.1837,-1.1065,-1.0813,-0.9762,-0.9061,-0.8804,-1.0064,-1.0813,-1.0813,-1.1891,-1.2662,-1.2881,-1.1931,-1.1266,-1.0813,-0.9913,-0.9208,-0.8808,-0.8808,-0.8808,-1.445,-1.4989,-1.5362,-1.5284,-1.5232,-1.5143,-1.4933,-1.5935,-1.6651,-1.576,-1.6754,-1.7761,-1.7697,-1.6571,-1.5456,0.0,0.0,0.0,0.0,-0.9986,-0.9904,-0.9614,-1.0886,0.0,0.0,-1.0475,-1.0621,-1.1324,-1.1046,-1.1404,-1.2703,-1.3644,-1.4167,-1.4168,-1.5112,-1.5464,-1.5102,-1.5835,-1.6138,-1.5908,-1.6324,-1.6287,-1.5914,-1.5914,-1.5594,-1.5017,-1.4595,-1.4179,-1.3774,-1.3377,-1.3109,-1.2881,-1.2881,-1.2881,-1.2881,-1.2881,-1.2452,-1.1616,-1.0265,-0.9325,-0.8472,-0.7063,-0.6091,-0.538,-0.4679,-0.4679,-0.484,-0.484,-0.5062,-0.5226,-0.5226,-0.5226,-0.5443,-0.6143,-0.7143,-0.8397,-0.9798,-1.1513,-1.3062,-1.3951,-1.4909,-1.5543,-1.5383,-1.565,-1.5505,-1.4283,-1.3962,-1.3642,-1.3286,-1.3017,-1.2779,-1.2554,-1.1479,-1.0618,-1.0115,-0.9312,-0.8808,-0.8808,-0.9814,-1.0564,-1.0813,-1.1886,-1.2613,-1.2881,-1.2183,-1.1462,-1.0813,-1.0115,-0.9462,-0.8808,-0.8808,-0.8808]},{"header":{"parameterUnit":"m.s-1","parameterCategory":1,"la1":30.6,"la2":29.2853,"lo1":-89.7004,"lo2":-87.6739,"dy":0.0162,"dx":0.0183,"nx":112,"ny":82,"refTime":"2025-07-07T00:00:00:Z","depth":0,"parameterNumber":3,"parameterNumberName":"V-component_of_WINDS"},"data":[0.0,0.0,0.0,0.0,0.0,0.0,0.0,0.0,0.0,0.0,0.0,0.0,0.0,0.0,0.0,0.0,0.0,0.0,0.0,0.0,0.0,0.0,0.0,0.0,0.0,0.0,0.0,0.0,0.0,0.0,0.0,0.0,0.0,0.0,0.0,0.0,0.0,0.0,0.0,0.0,0.0,0.0,0.0,0.0,0.0,0.0,0.0,0.0,0.0,0.0,0.0,0.0,0.0,0.0,0.0,0.0,0.0,0.0,0.0,0.0,0.0,0.0,0.0,0.0,0.0,0.0,0.0,0.0,0.0,0.0,0.0,0.0,0.0,0.0,0.0,0.0,0.0,0.0,0.0,0.0,0.0,0.0,0.0,0.0,0.0,0.0,0.0,0.0,0.0,0.0,-1.1434,-1.237,-1.3692,-1.4497,-1.4497,-1.4497,-1.3811,-1.2196,0.0,0.0,0.0,0.0,0.0,0.0,0.0,0.0,0.0,0.0,0.0,0.0,0.0,0.0,0.0,0.0,0.0,0.0,0.0,0.0,0.0,0.0,0.0,0.0,0.0,0.0,0.0,0.0,0.0,0.0,0.0,0.0,0.0,0.0,0.0,0.0,0.0,0.0,0.0,0.0,0.0,0.0,0.0,0.0,0.0,0.0,0.0,0.0,0.0,0.0,0.0,0.0,0.0,0.0,0.0,0.0,0.0,0.0,0.0,0.0,0.0,0.0,0.0,0.0,0.0,0.0,0.0,0.0,0.0,0.0,0.0,0.0,0.0,0.0,0.0,0.0,0.0,0.0,0.0,0.0,0.0,0.0,0.0,0.0,0.0,0.0,0.0,0.0,0.0,0.0,0.0,0.0,0.0,0.0,0.0,0.0,0.0,0.0,0.0,0.0,0.0,0.0,0.0,0.0,-1.2489,-1.3985,-1.435,-1.4497,-1.4497,-1.4497,-1.3811,-1.2196,0.0,0.0,0.0,0.0,0.0,0.0,0.0,0.0,0.0,0.0,0.0,0.0,0.0,0.0,0.0,0.0,0.0,0.0,0.0,0.0,0.0,0.0,0.0,0.0,0.0,0.0,0.0,0.0,0.0,0.0,0.0,0.0,0.0,0.0,0.0,0.0,0.0,0.0,0.0,0.0,0.0,0.0,0.0,0.0,0.0,0.0,0.0,0.0,0.0,0.0,0.0,0.0,0.0,0.0,0.0,0.0,0.0,0.0,0.0,0.0,0.0,0.0,0.0,0.0,0.0,0.0,0.0,0.0,0.0,0.0,0.0,0.0,0.0,0.0,0.0,0.0,0.0,0.0,0.0,0.0,0.0,0.0,0.0,0.0,0.0,0.0,0.0,0.0,0.0,0.0,0.0,0.0,0.0,0.0,0.0,0.0,0.0,0.0,0.0,0.0,0.0,0.0,0.0,-1.1636,-1.2719,-1.4323,-1.4497,-1.4497,-1.4497,-1.4497,-1.3811,-1.2196,-1.2095,0.0,0.0,0.0,0.0,0.0,0.0,0.0,0.0,0.0,0.0,0.0,0.0,0.0,0.0,0.0,0.0,0.0,0.0,0.0,0.0,0.0,0.0,0.0,0.0,0.0,0.0,0.0,0.0,0.0,0.0,0.0,0.0,0.0,0.0,0.0,0.0,0.0,0.0,0.0,0.0,0.0,0.0,0.0,0.0,0.0,0.0,0.0,0.0,0.0,0.0,0.0,0.0,0.0,0.0,0.0,0.0,0.0,0.0,0.0,0.0,0.0,0.0,0.0,0.0,0.0,0.0,0.0,0.0,0.0,0.0,0.0,0.0,0.0,0.0,0.0,0.0,0.0,0.0,0.0,0.0,0.0,0.0,0.0,0.0,0.0,0.0,0.0,0.0,0.0,0.0,0.0,0.0,0.0,0.0,0.0,0.0,0.0,0.0,0.0,0.0,0.0,0.0,-1.2269,-1.293,-1.4341,-1.4497,-1.4497,-1.4497,-1.4334,-1.3598,-1.2148,-1.1873,0.0,0.0,0.0,0.0,0.0,0.0,0.0,0.0,0.0,0.0,0.0,0.0,0.0,0.0,0.0,0.0,0.0,0.0,0.0,0.0,0.0,0.0,0.0,0.0,0.0,0.0,0.0,0.0,0.0,0.0,0.0,0.0,0.0,0.0,0.0,0.0,0.0,0.0,0.0,0.0,0.0,0.0,0.0,0.0,0.0,0.0,0.0,0.0,0.0,0.0,0.0,0.0,0.0,0.0,0.0,0.0,0.0,0.0,0.0,0.0,0.0,0.0,0.0,0.0,0.0,0.0,0.0,0.0,0.0,0.0,0.0,0.0,0.0,0.0,0.0,0.0,0.0,0.0,0.0,0.0,0.0,0.0,0.0,0.0,0.0,0.0,0.0,0.0,0.0,0.0,0.0,0.0,0.0,0.0,0.0,0.0,0.0,0.0,0.0,0.0,0.0,0.0,-1.2756,-1.3555,-1.4417,-1.4497,-1.4497,-1.4497,-1.3802,-1.2963,-1.1982,-1.1209,0.0,0.0,0.0,0.0,0.0,0.0,0.0,0.0,0.0,0.0,0.0,0.0,0.0,0.0,0.0,0.0,0.0,0.0,0.0,0.0,0.0,0.0,0.0,0.0,0.0,0.0,0.0,0.0,0.0,0.0,0.0,0.0,0.0,0.0,0.0,0.0,0.0,0.0,0.0,0.0,0.0,0.0,0.0,0.0,0.0,0.0,0.0,0.0,0.0,0.0,0.0,0.0,0.0,0.0,0.0,0.0,0.0,0.0,0.0,0.0,0.0,0.0,0.0,0.0,0.0,0.0,0.0,0.0,0.0,0.0,0.0,0.0,0.0,0.0,0.0,0.0,0.0,0.0,0.0,0.0,0.0,0.0,0.0,0.0,0.0,0.0,0.0,0.0,0.0,0.0,0.0,0.0,0.0,0.0,0.0,0.0,0.0,0.0,0.0,0.0,0.0,0.0,-1.2802,-1.3803,-1.5105,-1.4802,-1.471,-1.5206,-1.4508,-1.3428,-1.199,0.0,0.0,0.0,0.0,0.0,0.0,0.0,0.0,0.0,0.0,0.0,0.0,0.0,0.0,0.0,0.0,0.0,0.0,0.0,0.0,0.0,0.0,0.0,0.0,0.0,0.0,0.0,0.0,0.0,0.0,0.0,0.0,0.0,0.0,0.0,0.0,0.0,0.0,0.0,0.0,0.0,0.0,0.0,0.0,0.0,0.0,0.0,0.0,0.0,0.0,0.0,0.0,0.0,0.0,0.0,0.0,0.0,0.0,0.0,0.0,0.0,0.0,0.0,0.0,0.0,0.0,0.0,0.0,0.0,0.0,0.0,0.0,0.0,0.0,0.0,0.0,0.0,0.0,0.0,0.0,0.0,0.0,0.0,0.0,0.0,0.0,0.0,0.0,0.0,0.0,0.0,0.0,0.0,0.0,0.0,0.0,0.0,0.0,0.0,0.0,0.0,0.0,-1.2031,-1.3022,-1.4208,-1.5554,-1.5206,-1.5105,-1.5646,-1.4901,-1.3671,-1.1954,0.0,0.0,0.0,0.0,0.0,0.0,0.0,0.0,0.0,0.0,0.0,0.0,0.0,0.0,0.0,0.0,0.0,0.0,0.0,0.0,0.0,0.0,0.0,0.0,0.0,0.0,0.0,0.0,0.0,0.0,0.0,0.0,0.0,0.0,0.0,0.0,0.0,0.0,0.0,0.0,0.0,0.0,0.0,0.0,0.0,0.0,0.0,0.0,0.0,0.0,0.0,0.0,0.0,0.0,0.0,0.0,0.0,0.0,0.0,0.0,0.0,0.0,0.0,0.0,0.0,0.0,0.0,0.0,0.0,0.0,0.0,0.0,0.0,0.0,0.0,0.0,0.0,0.0,0.0,0.0,0.0,0.0,0.0,0.0,0.0,0.0,0.0,0.0,0.0,0.0,0.0,0.0,0.0,0.0,0.0,0.0,0.0,0.0,0.0,0.0,0.0,0.0,-1.2095,-1.3517,-1.482,-1.5628,-1.571,-1.571,-1.571,-1.4792,-1.3496,0.0,0.0,0.0,0.0,0.0,0.0,0.0,0.0,0.0,0.0,0.0,0.0,0.0,0.0,0.0,0.0,0.0,0.0,0.0,0.0,0.0,0.0,0.0,0.0,0.0,0.0,0.0,0.0,0.0,0.0,0.0,0.0,0.0,0.0,0.0,0.0,0.0,0.0,0.0,0.0,0.0,0.0,0.0,0.0,0.0,0.0,0.0,0.0,0.0,0.0,0.0,0.0,0.0,0.0,0.0,0.0,0.0,0.0,0.0,0.0,0.0,0.0,0.0,0.0,0.0,0.0,0.0,0.0,0.0,0.0,0.0,0.0,0.0,0.0,0.0,0.0,0.0,0.0,0.0,0.0,0.0,0.0,0.0,0.0,0.0,0.0,0.0,0.0,0.0,0.0,0.0,0.0,0.0,0.0,0.0,0.0,0.0,0.0,0.0,0.0,0.0,0.0,0.0,-1.2095,-1.3994,-1.5655,-1.6459,-1.6551,-1.6551,-1.6551,-1.5623,-1.4085,-1.1841,0.0,0.0,0.0,0.0,0.0,0.0,0.0,0.0,0.0,0.0,0.0,0.0,0.0,0.0,0.0,0.0,0.0,0.0,0.0,0.0,0.0,0.0,0.0,0.0,0.0,0.0,0.0,0.0,0.0,0.0,0.0,0.0,0.0,0.0,0.0,0.0,0.0,0.0,0.0,0.0,0.0,0.0,0.0,0.0,0.0,0.0,0.0,0.0,0.0,0.0,0.0,0.0,0.0,0.0,0.0,0.0,0.0,0.0,0.0,0.0,0.0,0.0,0.0,0.0,0.0,0.0,0.0,0.0,0.0,0.0,0.0,0.0,0.0,0.0,0.0,0.0,0.0,0.0,0.0,0.0,0.0,0.0,0.0,0.0,0.0,0.0,0.0,0.0,0.0,0.0,0.0,0.0,0.0,0.0,0.0,0.0,0.0,0.0,0.0,0.0,0.0,0.0,-1.2299,-1.4241,-1.5991,-1.7107,-1.7316,-1.7376,-1.7376,-1.6412,-1.4889,-1.2757,0.0,0.0,0.0,0.0,0.0,0.0,0.0,0.0,0.0,0.0,0.0,0.0,0.0,0.0,0.0,0.0,0.0,0.0,0.0,0.0,0.0,0.0,0.0,0.0,0.0,0.0,0.0,0.0,0.0,0.0,0.0,0.0,0.0,0.0,0.0,0.0,0.0,0.0,0.0,0.0,0.0,0.0,0.0,0.0,0.0,0.0,0.0,0.0,0.0,0.0,0.0,0.0,0.0,0.0,0.0,0.0,0.0,0.0,0.0,0.0,0.0,0.0,0.0,0.0,0.0,0.0,0.0,0.0,0.0,0.0,0.0,0.0,0.0,0.0,0.0,0.0,0.0,0.0,0.0,0.0,0.0,0.0,0.0,0.0,0.0,0.0,0.0,0.0,0.0,0.0,0.0,0.0,0.0,0.0,0.0,0.0,0.0,0.0,0.0,0.0,0.0,0.0,-1.2609,-1.432,-1.6054,-1.7518,-1.7954,-1.8121,-1.8038,-1.7014,-1.57,-1.4095,0.0,0.0,0.0,0.0,0.0,0.0,0.0,0.0,0.0,0.0,0.0,0.0,0.0,0.0,0.0,0.0,0.0,0.0,0.0,0.0,0.0,0.0,0.0,0.0,0.0,0.0,0.0,0.0,0.0,0.0,0.0,0.0,0.0,0.0,0.0,0.0,0.0,0.0,0.0,0.0,0.0,0.0,0.0,0.0,0.0,0.0,0.0,0.0,0.0,0.0,0.0,0.0,0.0,0.0,0.0,0.0,0.0,0.0,0.0,0.0,-1.2205,-1.1061,0.0,0.0,0.0,0.0,0.0,0.0,0.0,0.0,0.0,0.0,0.0,0.0,0.0,0.0,0.0,0.0,0.0,0.0,0.0,0.0,0.0,0.0,0.0,0.0,0.0,0.0,0.0,0.0,0.0,0.0,0.0,0.0,0.0,0.0,0.0,0.0,0.0,0.0,0.0,0.0,-1.2609,-1.4689,-1.6457,-1.7373,-1.8084,-1.8235,-1.7602,-1.6795,-1.5628,-1.4025,-1.2174,0.0,0.0,0.0,0.0,0.0,0.0,0.0,0.0,0.0,0.0,0.0,0.0,0.0,0.0,0.0,0.0,0.0,0.0,0.0,0.0,0.0,0.0,0.0,0.0,0.0,0.0,0.0,0.0,0.0,0.0,0.0,0.0,0.0,0.0,0.0,0.0,0.0,0.0,0.0,0.0,0.0,0.0,0.0,0.0,0.0,0.0,0.0,0.0,0.0,0.0,0.0,0.0,0.0,0.0,0.0,0.0,0.0,0.0,0.0,-1.4471,-1.3415,0.0,0.0,0.0,0.0,0.0,0.0,0.0,0.0,0.0,0.0,0.0,0.0,0.0,0.0,0.0,0.0,0.0,0.0,0.0,0.0,0.0,0.0,0.0,0.0,0.0,0.0,0.0,0.0,0.0,0.0,0.0,0.0,0.0,0.0,0.0,0.0,0.0,0.0,0.0,0.0,-1.3408,-1.54,-1.6975,-1.7708,-1.8262,-1.8482,-1.8191,-1.7364,-1.6395,-1.5273,-1.3531,0.0,0.0,0.0,0.0,0.0,0.0,0.0,0.0,0.0,0.0,0.0,0.0,0.0,0.0,0.0,0.0,0.0,0.0,0.0,0.0,0.0,0.0,0.0,0.0,0.0,0.0,0.0,0.0,0.0,0.0,0.0,0.0,0.0,0.0,0.0,0.0,0.0,0.0,0.0,0.0,0.0,0.0,0.0,0.0,0.0,0.0,0.0,0.0,0.0,0.0,0.0,0.0,0.0,-1.6576,-1.6948,-1.727,-1.754,-1.7929,-1.8312,-1.7065,-1.6324,-1.5854,-1.4291,0.0,0.0,0.0,0.0,0.0,0.0,0.0,0.0,0.0,0.0,0.0,0.0,0.0,0.0,0.0,0.0,0.0,0.0,0.0,0.0,0.0,0.0,-1.3065,-1.3875,-1.4711,-1.467,-1.2328,0.0,0.0,0.0,0.0,0.0,0.0,0.0,0.0,0.0,0.0,0.0,-1.4317,-1.5978,-1.7339,-1.8109,-1.8391,-1.8632,-1.8914,-1.8074,-1.7314,-1.6808,-1.5065,-1.3703,0.0,0.0,0.0,0.0,0.0,0.0,0.0,0.0,0.0,0.0,0.0,0.0,0.0,0.0,0.0,0.0,0.0,0.0,0.0,0.0,0.0,0.0,0.0,0.0,0.0,0.0,0.0,0.0,0.0,0.0,0.0,0.0,-0.8631,-0.9428,0.0,0.0,0.0,0.0,0.0,0.0,0.0,0.0,0.0,0.0,0.0,0.0,0.0,-1.6114,-1.6419,-1.8327,-1.8988,-1.8488,-2.0475,-2.0779,-1.9605,-2.0957,-2.127,-2.0771,-2.1201,0.0,-1.7447,-1.6572,0.0,0.0,0.0,0.0,0.0,0.0,0.0,0.0,0.0,0.0,0.0,0.0,0.0,0.0,0.0,0.0,0.0,0.0,0.0,0.0,0.0,0.0,-1.6272,-1.6268,-1.6793,-1.7048,-1.6129,-1.4221,-1.2479,-1.1826,-1.1304,-1.0972,0.0,0.0,0.0,0.0,0.0,0.0,-1.4385,-1.5821,-1.7125,-1.8089,-1.8229,-1.8371,-1.8632,-1.8055,-1.7635,-1.7559,-1.5483,-1.4203,-1.4082,-1.241,0.0,0.0,0.0,0.0,0.0,0.0,0.0,0.0,0.0,0.0,0.0,0.0,0.0,0.0,0.0,0.0,0.0,0.0,0.0,0.0,0.0,0.0,0.0,0.0,0.0,0.0,0.0,0.0,0.0,-0.897,-1.0237,-1.0651,-1.1047,-1.1113,0.0,0.0,0.0,0.0,0.0,0.0,0.0,0.0,0.0,-1.6319,-1.738,-1.8335,-1.9231,-2.0179,-2.072,-2.0822,-2.1828,-2.1964,-2.1319,-2.2429,-2.2742,-2.2437,-2.2775,-2.2166,-2.0822,-1.9093,-1.7723,-1.6524,0.0,0.0,0.0,0.0,-1.4047,-1.4188,-1.5298,-1.5096,-1.4377,-1.427,0.0,0.0,0.0,0.0,0.0,0.0,0.0,-1.2926,-1.4025,-1.5504,-1.6857,-1.7648,-1.8351,-1.871,-1.8301,-1.7318,-1.5994,-1.4294,-1.3698,-1.319,-1.2383,-1.2097,0.0,0.0,0.0,-1.483,-1.5824,-1.689,-1.7774,-1.8356,-1.843,-1.8528,-1.8807,-1.8581,-1.8285,-1.7948,-1.699,-1.6027,-1.5114,-1.3847,-1.2645,0.0,0.0,0.0,0.0,0.0,0.0,0.0,0.0,0.0,0.0,0.0,0.0,0.0,0.0,0.0,0.0,0.0,0.0,0.0,0.0,0.0,0.0,0.0,0.0,0.0,0.0,0.0,0.0,-1.0449,-1.1534,-1.1668,-1.2605,-1.2933,0.0,0.0,0.0,0.0,0.0,0.0,-1.5621,-1.6847,-1.7887,-1.8648,-1.9384,-2.0407,-2.1735,-2.1771,-2.2124,-2.2868,-2.2868,-2.2868,-2.2885,-2.3427,-2.3672,-2.3672,-2.3672,-2.3672,-2.3503,-2.0947,-1.9304,-1.8283,-1.6724,-1.6189,-1.6226,-1.5891,-1.5752,-1.5909,-1.6985,-1.6849,-1.6156,-1.5829,-1.5468,-1.4845,-1.3323,0.0,0.0,0.0,0.0,-1.3828,-1.5524,-1.6515,-1.7455,-1.8799,-1.9484,-1.9851,-1.9816,-1.9877,-1.9207,-1.6778,-1.6145,-1.5645,-1.4533,-1.4247,0.0,-1.4428,-1.5614,-1.6801,-1.7696,-1.8467,-1.893,-1.8999,-1.9,-1.9039,-1.9078,-1.9086,-1.8888,-1.844,-1.8216,-1.7472,-1.6068,-1.5141,-1.4251,-1.3372,0.0,0.0,0.0,0.0,0.0,0.0,0.0,0.0,0.0,0.0,0.0,0.0,0.0,0.0,0.0,0.0,0.0,0.0,0.0,0.0,0.0,0.0,0.0,0.0,0.0,0.0,0.0,0.0,0.0,-1.2453,-1.443,0.0,0.0,0.0,0.0,-1.6436,-1.6555,-1.7207,-1.8598,-1.9402,-2.0213,-2.1009,-2.1744,-2.2505,-2.3274,-2.3283,-2.3655,-2.4404,-2.4404,-2.4404,-2.4404,-2.4438,-2.4455,-2.4455,-2.4455,-2.4455,-2.4247,-2.1558,-2.0249,-1.9767,-1.8553,-1.786,-1.7635,-1.7737,-1.777,-1.7799,-1.7977,-1.7353,-1.6566,-1.7056,-1.6178,-1.5,-1.5408,-1.479,0.0,0.0,-1.5111,-1.6437,-1.706,-1.7977,-1.9008,-1.9978,-2.0257,-2.0374,-2.0822,-2.1162,-2.0893,-1.9147,-1.8305,-1.7946,-1.8177,0.0,-1.7768,-1.8079,-1.9002,-1.9685,-1.9749,-2.0405,-2.0671,-2.0173,-2.0111,-1.9883,-1.9323,-1.9274,-1.9271,-1.9234,-1.8519,-1.7715,-1.6872,-1.6056,-1.4954,-1.3523,-1.2456,0.0,0.0,0.0,0.0,0.0,0.0,0.0,0.0,0.0,0.0,0.0,0.0,0.0,0.0,0.0,0.0,0.0,0.0,0.0,0.0,0.0,0.0,0.0,0.0,0.0,0.0,0.0,0.0,-1.5662,-1.7374,0.0,-1.7453,-1.7779,-1.8142,-1.8418,-1.9154,-1.984,-2.034,-2.1084,-2.1837,-2.2581,-2.2868,-2.3359,-2.4086,-2.4095,-2.4222,-2.4515,-2.4515,-2.4515,-2.4523,-2.5266,-2.5601,-2.5609,-2.5857,-2.5828,-2.5468,-2.4004,-2.306,-2.2475,-2.2037,-2.1391,-2.0702,-2.043,-2.0116,-1.9749,-1.8986,-1.8492,-1.8084,-1.7527,-1.6972,-1.6458,-1.6274,-1.5944,-1.5718,-1.6047,-1.6566,-1.7303,-1.846,-1.9046,-1.9634,-2.0791,-2.1053,-2.1254,-2.188,-2.2122,-2.2105,-2.1764,-2.0917,-2.0217,-2.0135,-2.0,-1.977,-1.9413,-2.0076,-2.0673,-2.0847,-2.109,-2.1248,-2.1233,-2.1313,-2.1011,-2.0143,-2.0181,-1.9989,-1.9341,-1.9023,-1.828,-1.6954,-1.6615,-1.5784,-1.4297,-1.3412,-1.261,0.0,0.0,0.0,0.0,0.0,0.0,0.0,0.0,0.0,0.0,0.0,0.0,0.0,0.0,0.0,0.0,0.0,0.0,0.0,0.0,0.0,0.0,0.0,0.0,0.0,-1.5218,-1.7016,-1.7773,-1.9591,-2.0482,-1.973,-2.0178,-2.0552,-2.0679,-2.1582,-2.2166,-2.2272,-2.2995,-2.3586,-2.3958,-2.4093,-2.4454,-2.5077,-2.5197,-2.5407,-2.5657,-2.5657,-2.5657,-2.5674,-2.6443,-2.6758,-2.6796,-2.7061,-2.7025,-2.6743,-2.6197,-2.5701,-2.515,-2.423,-2.3383,-2.2603,-2.2102,-2.1718,-2.1226,-2.0118,-1.9588,-1.9289,-1.8543,-1.8298,-1.822,-1.7822,-1.7561,-1.747,-1.7956,-1.8097,-1.8387,-1.9622,-2.0096,-2.0515,-2.171,-2.1972,-2.2146,-2.2867,-2.3101,-2.3227,-2.3423,-2.2702,-2.2046,-2.1929,-2.192,-2.1792,-2.1417,-2.1778,-2.2152,-2.2315,-2.2392,-2.2401,-2.2319,-2.2433,-2.212,-2.1194,-2.0984,-2.0592,-1.9849,-1.9557,-1.8775,-1.7358,-1.709,-1.6398,-1.5206,-1.4471,-1.3726,-1.2941,0.0,0.0,0.0,0.0,0.0,0.0,0.0,0.0,0.0,0.0,0.0,0.0,0.0,0.0,0.0,0.0,0.0,0.0,0.0,0.0,0.0,0.0,0.0,-1.4608,-1.6387,-1.7968,-1.8641,-2.0983,-2.2247,-2.1462,-2.2238,-2.2899,-2.3233,-2.3753,-2.4165,-2.4435,-2.5185,-2.5456,-2.5145,-2.5464,-2.5835,-2.6242,-2.6653,-2.719,-2.7897,-2.7897,-2.7888,-2.7917,-2.7917,-2.7945,-2.7936,-2.7936,-2.7936,-2.7936,-2.7936,-2.7936,-2.7655,-2.4969,-2.3679,-2.3267,-2.2738,-2.2533,-2.2341,-2.1364,-2.0654,-2.0215,-2.0194,-2.018,-2.018,-2.0159,-1.9712,-1.9277,-1.9674,-1.9767,-1.9858,-2.0615,-2.1195,-2.1781,-2.2716,-2.2952,-2.3111,-2.3699,-2.4097,-2.4266,-2.4054,-2.3614,-2.336,-2.3662,-2.3723,-2.3825,-2.4161,-2.4218,0.0,-2.4209,-2.4393,-2.4204,-2.3421,-2.3469,-2.3226,-2.2404,-2.1613,-2.1048,-2.0821,-2.0052,-1.9165,-1.8162,-1.7494,-1.6829,-1.6158,-1.5612,-1.4922,-1.4086,0.0,0.0,0.0,0.0,0.0,0.0,0.0,0.0,0.0,0.0,0.0,0.0,0.0,0.0,0.0,0.0,0.0,0.0,0.0,0.0,0.0,-1.5034,-1.6248,-1.6431,-1.8678,-2.0595,-2.1396,-2.2824,-2.3663,-2.3425,-2.3941,-2.4327,-2.4437,-2.4873,-2.5181,-2.5274,-2.5469,-2.5826,-2.6311,-2.6419,-2.6791,-2.7428,-2.755,-2.7694,-2.7897,-2.7897,-2.7975,-2.8137,-2.8413,-2.8629,-2.8795,-2.9073,-2.9033,-2.8795,-2.9084,-2.8885,-2.8291,-2.7185,-2.648,-2.6007,-2.5868,-2.5107,-2.4048,-2.3503,-2.2908,-2.2355,-2.1956,-2.1857,-2.1761,-2.1306,-2.1241,-2.145,-2.1956,-2.1939,-2.1978,-2.2934,-2.2949,-2.2936,-2.3729,-2.3916,-2.4034,-2.4444,-2.461,-2.4644,-2.4598,-2.4468,-2.4308,-2.4095,-2.4065,-2.4134,-2.4383,-2.4418,-2.4461,-2.4617,-2.4685,-2.4622,-2.4405,-2.4513,-2.4195,-2.3254,-2.2569,-2.185,-2.1079,-2.0223,-1.9359,-1.8498,-1.829,-1.7877,-1.7204,-1.6466,-1.6005,0.0,0.0,0.0,0.0,0.0,0.0,0.0,0.0,0.0,0.0,0.0,0.0,0.0,0.0,0.0,0.0,0.0,0.0,0.0,0.0,0.0,0.0,-1.7126,-1.8355,-1.914,-2.0637,-2.1992,-2.2955,-2.3742,-2.4327,-2.4667,-2.4823,-2.5113,-2.5577,-2.6045,-2.637,-2.651,-2.6835,-2.7157,-2.7451,-2.7634,-2.8012,-2.8612,-2.8766,-2.9017,-2.9368,-2.9472,-2.9596,-2.9727,-3.0061,-3.0294,-3.0405,-3.0658,-3.0612,-3.0377,-3.0282,-2.9983,-2.9535,0.0,0.0,0.0,0.0,-2.6721,-2.5731,-2.5496,-2.5051,-2.4506,-2.4209,-2.4089,-2.4069,-2.381,-2.37,-2.3802,-2.4437,-2.4014,-2.3606,-2.4563,-2.4272,-2.3904,-2.4495,-2.464,-2.47,-2.4962,-2.5028,-2.5032,-2.494,-2.4945,0.0,-2.4556,-2.4462,-2.4495,-2.4617,-2.4632,-2.467,-2.478,-2.4855,-2.4883,-2.4926,-2.5056,-2.4906,-2.4338,-2.3633,0.0,0.0,0.0,-1.9899,-1.8723,-1.8676,0.0,0.0,0.0,0.0,0.0,-1.7991,0.0,0.0,-1.5982,-1.5583,0.0,0.0,0.0,0.0,0.0,0.0,0.0,0.0,0.0,0.0,0.0,0.0,0.0,0.0,0.0,0.0,-1.9272,-2.0674,-2.2074,-2.2278,-2.2655,-2.3642,-2.4098,-2.4612,-2.5338,-2.5302,-2.5659,-2.6664,-2.7232,-2.7679,-2.7959,-2.8658,0.0,0.0,0.0,-2.9366,-2.9851,-3.0201,-3.0741,-3.1479,-3.1734,-3.1867,-3.1909,-3.2138,-3.2257,-3.2275,-3.2275,-3.2275,-3.2218,-3.15,-3.1159,-3.0945,-2.9663,-2.8833,-2.8347,-2.8094,-2.7697,-2.7269,-2.7196,0.0,0.0,-2.6507,-2.6499,-2.6578,-2.6849,-2.6531,-2.6218,-2.6888,-2.6096,-2.5185,-2.5967,-2.5456,-2.4849,-2.5212,-2.5227,-2.5182,-2.5301,-2.537,-2.536,-2.5177,-2.5178,-2.5159,-2.4974,-2.4869,-2.4823,-2.4842,-2.4851,-2.4847,-2.4879,-2.4987,-2.5077,-2.5145,-2.5251,0.0,-2.5409,-2.462,-2.3746,-2.2859,-2.197,-2.0824,-1.9335,-1.9268,-1.9017,-1.8492,-1.9227,-1.9978,-2.0684,-2.1465,-2.1834,-2.1728,-1.7755,-1.7116,0.0,0.0,0.0,0.0,0.0,0.0,0.0,0.0,0.0,0.0,0.0,0.0,0.0,0.0,0.0,-1.9702,-2.0718,-2.1766,-2.3181,-2.3394,-2.3572,-2.4056,-2.473,-2.5237,-2.5384,-2.6515,-2.7339,-2.7548,-2.8449,-2.9029,-2.9089,-2.9247,-2.9567,-3.0163,-3.0037,-3.0406,-3.1375,-3.1439,-3.1675,-3.2051,-3.2109,0.0,-3.2452,-3.2502,-3.2621,-3.276,-3.276,-3.276,-3.2751,-3.2607,-3.2156,-3.1425,-3.0109,-2.9504,-2.9353,-2.8819,-2.8576,-2.8393,-2.7921,-2.7692,-2.7619,-2.7788,-2.7826,-2.7879,-2.8228,-2.8411,0.0,-2.8836,-2.854,-2.817,-2.8351,-2.7372,-2.6369,-2.645,-2.5933,-2.5436,-2.5457,-2.5476,-2.5441,-2.5363,-2.5351,-2.5334,-2.5244,-2.5033,-2.4936,-2.5102,-2.512,-2.5185,-2.5343,-2.5397,-2.5407,-2.5416,-2.5451,-2.5473,-2.5486,-2.4726,-2.4178,-2.3986,-2.3149,-2.2538,-2.2202,-2.2194,-2.2136,-2.202,-2.2177,-2.2315,-2.2425,-2.2591,-2.2641,-2.2572,-2.1811,-2.1351,0.0,0.0,0.0,0.0,0.0,0.0,0.0,0.0,0.0,0.0,0.0,-1.7185,-1.792,0.0,-2.0383,-2.1634,-2.2156,-2.2737,-2.3712,-2.3837,-2.4089,-2.4731,-2.5164,-2.5724,-2.6511,-2.7319,-2.8018,-2.8565,-2.9098,-2.9631,-3.0161,-3.0208,-3.0574,-3.1371,-3.1139,-3.152,-3.2593,-3.2484,-3.2753,-3.3459,-3.3581,-3.3724,-3.3862,-3.3991,-3.4107,-3.4199,-3.4199,-3.4199,-3.417,-3.3728,-3.3054,-3.2196,-3.1116,-3.0354,-2.9787,-2.9301,-2.937,-2.9658,-2.9362,-2.9512,-2.9844,-2.9678,-2.9646,-2.9632,-2.9542,-2.9614,-2.9787,-2.9993,-2.9665,-2.926,-2.9285,-2.8435,-2.743,-2.6959,-2.6519,-2.6066,-2.5601,-2.5502,-2.5494,-2.5457,-2.5368,-2.5324,-2.5386,-2.5211,-2.51,-2.523,-2.5251,-2.5286,-2.5391,-2.5436,-2.546,-2.55,-2.5494,-2.5511,-2.5549,-2.4781,-2.43,-2.43,-2.3479,-2.3003,-2.3,-2.3005,-2.2998,-2.3003,-2.2973,-2.3127,-2.3496,-2.3496,-2.3688,-2.4053,-2.412,-2.3721,0.0,0.0,0.0,0.0,0.0,0.0,0.0,0.0,-1.6041,-1.7369,-1.8512,-1.9577,-2.0624,-2.167,-2.2589,-2.3249,-2.3383,-2.3596,-2.4091,-2.4155,-2.4487,-2.5411,-2.5642,-2.6335,-2.7784,-2.8079,-2.8524,-2.9398,-2.9494,-2.9974,-3.1009,-3.1057,-3.1509,-3.2475,-3.2247,-3.2621,-3.3715,-3.3526,-3.3904,-3.486,-3.5061,-3.519,-3.52,-3.5427,-3.5526,-3.5526,-3.5516,-3.5493,-3.5459,-3.4737,-3.3939,-3.3093,-3.2439,-3.1513,-3.0505,-2.9971,-3.0188,-3.0758,-3.0895,-3.136,-3.185,-3.1524,-3.1299,-3.1092,-3.072,-3.0465,-3.0394,-3.0622,-3.0206,-2.9725,-2.9798,-2.9159,-2.8314,-2.7581,-2.7139,-2.667,-2.5925,-2.5622,-2.5482,-2.5427,-2.529,-2.5226,-2.5342,-2.5252,-2.52,-2.532,-2.5336,-2.5336,-2.5336,-2.539,-2.5442,-2.5485,-2.5502,-2.5535,-2.5596,-2.4955,-2.4554,-2.4553,-2.3887,-2.3496,-2.3485,-2.3493,-2.3478,-2.3467,-2.3409,-2.3698,-2.4332,-2.4332,-2.4668,-2.5293,-2.5293,-2.4986,-1.2517,-1.2799,-1.3803,-1.5966,-1.5982,-1.6525,0.0,0.0,-2.0056,-2.0878,-2.1914,-2.2502,-2.202,-2.2695,-2.3464,-2.3844,-2.4054,-2.4292,-2.4653,-2.4702,-2.5013,-2.5838,-2.6559,-2.7366,-2.8324,-2.9069,-2.9549,-2.9661,-2.9829,-3.0325,-3.1213,-3.126,-3.1984,-3.3565,-3.3355,-3.3762,-3.4908,-3.4874,-3.5052,-3.5408,-3.5446,-3.5484,-3.5556,-3.558,-3.5593,-3.5593,-3.5536,-3.5493,-3.5483,-3.5391,-3.4843,-3.4045,-3.3958,-3.3369,-3.2445,-3.1464,-3.1144,-3.1321,-3.1968,-3.2256,-3.2355,-3.2484,-3.204,-3.1476,-3.1597,-3.1094,-3.0497,-3.0586,-3.0552,-3.0489,-3.0565,-2.9889,-2.9191,-2.9207,-2.7978,-2.6776,-2.6681,-2.605,-2.5432,-2.5184,-2.5129,-2.5056,-2.4912,-2.4965,-2.5131,-2.5427,-2.5482,-2.5482,-2.5482,-2.5481,-2.549,-2.55,-2.5498,-2.553,-2.5586,-2.5507,-2.5453,-2.5453,-2.5363,-2.5277,-2.522,-2.5222,-2.5186,-2.5129,-2.512,-2.5139,-2.5168,-2.5168,-2.5207,-2.5293,-2.5293,-2.5255,-1.6804,-1.6785,0.0,0.0,-1.933,-1.9878,-2.1753,-2.1881,-2.1815,-2.2558,-2.3307,-2.3762,-2.3497,-2.3885,-2.4311,0.0,-2.502,-2.551,-2.5745,-2.5788,-2.6157,-2.7115,-2.7519,-2.7906,-2.8407,-2.9204,-2.9755,-2.9861,-3.0426,-3.1197,-3.2181,-3.2708,-3.3542,-3.4759,-3.4525,-3.4697,-3.5329,-3.519,-3.5242,-3.5565,-3.5565,-3.5593,-3.5651,-3.5655,-3.5644,-3.5603,-3.5574,-3.5545,-3.5493,-3.5493,-3.5295,-3.4911,-3.4439,-3.4035,-3.358,-3.2506,-3.2413,-3.2867,-3.321,-3.3639,-3.3994,-3.3717,-3.3403,-3.2967,-3.2122,-3.1605,-3.1215,-3.0731,-3.0598,-3.0606,-3.0627,-3.0348,-2.9942,-2.9481,-2.881,-2.8087,-2.7462,-2.6637,-2.5982,-2.5831,-2.5224,-2.4789,-2.49,-2.4904,-2.4962,-2.5185,-2.531,-2.538,-2.538,-2.5418,-2.5457,-2.5501,-2.5499,-2.551,-2.5543,-2.5543,-2.5539,-2.5538,-2.554,-2.5514,-2.5443,-2.5446,-2.5409,-2.5332,-2.5332,-2.5273,-2.5131,-2.5244,-2.5244,-2.5131,-2.5253,-2.5293,-1.937,0.0,0.0,-2.0829,-2.1716,-2.2317,-2.254,-2.2968,-2.3391,-2.3715,-2.4312,-2.4738,-2.4554,-2.47,-2.4951,-2.5246,-2.5857,-2.6445,-2.6854,-2.6709,-2.6937,-2.7978,-2.8102,-2.8251,-2.8641,-2.9425,-2.9987,-3.0128,-3.0939,-3.1847,-3.2852,-3.3728,-3.4603,-3.5478,-3.5304,-3.5304,-3.5493,-3.5333,-3.5362,-3.5603,-3.5618,-3.5666,-3.5761,-3.5755,-3.5723,-3.5679,-3.5634,-3.5603,-3.5565,-3.5565,-3.5565,-3.5507,-3.4911,-3.4679,-3.4575,-3.3803,-3.3735,-3.4048,-3.4353,-3.4835,-3.523,-3.471,-3.4387,-3.3914,-3.2495,-3.1908,-3.1575,-3.0773,-3.0544,-3.0554,-3.0573,-3.0559,-3.0388,-2.9778,-2.9423,-2.9027,-2.8182,-2.7319,-2.6616,-2.628,-2.5515,-2.4923,-2.4945,-2.4891,-2.49,-2.4986,-2.5163,-2.5293,-2.5293,-2.5332,-2.539,-2.5438,-2.5438,-2.5457,-2.5476,-2.5468,-2.5466,-2.5466,-2.547,-2.5438,-2.538,-2.5321,-2.5262,-2.5214,-2.5182,-2.5084,-2.4946,-2.5084,-2.5107,-2.5001,-2.5152,-2.5253,0.0,0.0,-2.0466,-2.1369,-2.2138,-2.2887,-2.3665,-2.4757,-2.5374,-2.4634,-2.532,-2.5787,-2.494,-2.49,-2.5271,-2.612,-2.6441,-2.6912,-2.7835,-2.7231,-2.7043,-2.799,-2.8101,-2.8432,0.0,-3.0046,-3.0484,-3.0475,-3.1225,-3.2032,-3.2862,-3.3728,-3.4603,-3.5478,-3.5493,-3.5493,-3.5493,-3.556,-3.5589,-3.5603,-3.5669,-3.5766,-3.589,-3.5894,-3.5888,-3.5877,-3.5747,-3.5699,-3.569,-3.569,-3.569,-3.569,-3.567,-3.5616,-3.5556,-3.5605,-3.5049,-3.4424,-3.5332,-3.5616,-3.5537,-3.5268,-3.4605,-3.3722,-3.2772,-3.1943,-3.1182,-3.058,-3.0408,-3.0417,-3.0496,-3.0448,-3.041,-3.0448,-2.9775,-2.9037,-2.8821,-2.8083,-2.7177,-2.6201,-2.5985,-2.5712,-2.4946,-2.4917,-2.4998,-2.5001,-2.5163,-2.5293,-2.5293,-2.5293,-2.5293,-2.5303,-2.5303,-2.5322,-2.5399,-2.5399,-2.5399,-2.5399,-2.5399,-2.537,-2.5303,-2.512,-2.501,-2.501,-2.4887,-2.4809,-2.4804,-2.4809,-2.4873,-2.5001,-2.501,-2.5111,0.0,0.0,-2.2896,-2.4292,-2.4847,-2.5249,-2.6103,-2.6222,-2.6096,-2.5817,-2.5659,-2.5486,-2.5244,-2.5232,-2.5571,-2.6487,-2.7169,-2.7919,-2.8863,-2.8738,-2.8688,-2.905,-2.9095,0.0,0.0,0.0,-3.0501,-3.0508,-3.1747,-3.2612,-3.2891,-3.4276,-3.5199,-3.5483,-3.5493,-3.5526,-3.5574,-3.5593,-3.567,-3.5809,-3.5872,-3.5898,-3.5895,-3.59,-3.583,-3.5698,-3.5654,-3.5613,-3.5573,-3.5573,-3.5573,-3.5573,-3.5622,-3.5623,-3.5614,-3.5684,-3.5358,-3.4933,-3.5266,-3.5351,-3.5278,-3.4963,-3.468,-3.4188,-3.2894,-3.2314,-3.1859,-3.0714,-3.0398,-3.0408,-3.0427,-3.0417,-3.0408,-3.0427,-3.0198,-2.9867,-2.9478,-2.8752,-2.8055,-2.7676,-2.6615,-2.5799,-2.5805,-2.5355,-2.5055,-2.5183,-2.5264,-2.5293,-2.5293,-2.5293,-2.5293,-2.5293,-2.5293,-2.5303,-2.5322,-2.5322,-2.5282,-2.5139,-2.5128,-2.5082,-2.4971,-2.49,-2.486,-2.486,-2.4823,-2.4804,-2.4804,-2.4891,-2.4959,-2.5001,-2.5141,-2.5163,-2.367,-2.4217,-2.4678,-2.6078,-2.6631,-2.691,-2.719,-2.7112,-2.68,-2.6196,-2.593,-2.5718,-2.5449,-2.5379,-2.5654,-2.6583,-2.7463,-2.8365,-2.9337,-2.9444,-2.9587,-3.0013,-3.0063,-3.0193,0.0,0.0,0.0,-3.0616,-3.2326,-3.326,-3.2946,-3.4561,-3.5493,-3.5493,-3.5526,-3.5565,-3.5603,-3.567,-3.5789,-3.5938,-3.5981,-3.5958,-3.5892,-3.5892,-3.5794,-3.564,-3.564,-3.5606,-3.5558,-3.5467,-3.5489,-3.5558,-3.5408,-3.5395,-3.5449,-3.5403,-3.5226,-3.5031,-3.5162,-3.5125,-3.4993,-3.4772,-3.4703,-3.4403,-3.2868,-3.239,-3.2082,-3.0572,-3.0151,-3.0165,-3.0241,-3.0254,-3.0276,-3.0376,-3.0333,-3.0146,-2.9782,-2.9229,-2.8741,-2.8454,-2.7458,-2.6709,-2.6848,-2.6154,-2.5611,-2.5745,-2.5495,-2.5293,-2.5293,-2.5293,-2.5274,-2.5194,-2.5194,-2.5172,-2.5126,-2.5126,-2.507,-2.4943,-2.4933,-2.4891,-2.4795,-2.4731,-2.4685,-2.4685,-2.4623,-2.4764,-2.5114,-2.5141,-2.5367,-2.5794,-2.585,-2.5836,-2.4374,-2.4965,-2.5785,-2.6702,-2.7469,-2.782,-2.7098,-2.745,-2.7471,-2.5828,-2.6073,-2.6304,0.0,0.0,-2.5514,-2.639,-2.7303,-2.8245,-2.926,-2.9375,-2.9756,0.0,0.0,0.0,0.0,0.0,0.0,-3.0969,-3.2988,-3.3939,-3.3106,-3.4609,-3.5493,-3.5516,-3.5574,-3.5603,-3.5622,-3.5817,-3.5947,-3.5996,-3.5996,-3.5963,-3.589,-3.5886,-3.5815,-3.569,-3.569,-3.569,-3.5671,-3.5428,-3.5461,-3.5614,-3.5106,-3.5011,-3.5135,-3.4891,-3.4736,-3.4713,-3.504,-3.4936,-3.4674,-3.4653,-3.4653,-3.4352,-3.2732,-3.2204,-3.1836,-3.0215,-2.9724,-2.9738,-2.9954,-2.9999,-3.0066,-3.0311,-3.0196,-2.993,-2.9721,-2.9523,-2.9202,-2.8589,-2.8449,-2.8319,-2.7961,-2.7207,-2.6669,-2.6649,-2.5908,-2.5341,-2.5293,-2.5293,-2.5214,-2.5022,-2.4989,-2.4946,-2.4809,-2.4804,-2.4804,-2.479,-2.478,-2.4794,-2.4832,-2.4603,-2.4515,-2.4608,-2.4386,-2.4764,-2.5758,-2.5578,-2.607,-2.7198,-2.7006,-2.7007,-2.5106,-2.5893,-2.6876,-2.8312,-2.8372,-2.8188,-2.8645,-2.785,-2.6732,-2.5648,-2.5072,-2.4495,0.0,0.0,0.0,-2.5505,-2.6909,0.0,-2.926,-2.9897,0.0,-3.1738,0.0,-3.2187,-3.3008,-3.3848,0.0,-3.279,-3.3692,-3.4185,-3.3914,-3.492,-3.5526,-3.5574,-3.5593,-3.567,-3.5815,-3.5927,-3.5979,-3.5996,-3.5996,-3.591,-3.5744,-3.5748,-3.568,-3.5555,-3.5555,-3.5555,-3.5551,-3.5484,-3.5369,-3.5238,-3.5108,-3.4955,-3.482,-3.4758,-3.4564,-3.4334,-3.4439,-3.4398,-3.4279,-3.4077,-3.403,-3.3886,-3.3058,-3.2387,-3.171,-3.0847,-3.0158,-2.9738,-2.9954,-2.9999,-3.0013,-3.0099,-3.0052,-2.9899,-2.9561,-2.9443,-2.9379,-2.9378,-2.9136,-2.8701,-2.8023,-2.7717,-2.7491,-2.7294,-2.6565,-2.5857,-2.536,-2.5172,-2.5055,-2.501,-2.4917,-2.4837,-2.4795,-2.4804,-2.4731,-2.4584,-2.4584,-2.4782,-2.5227,-2.4617,-2.4837,-2.6044,-2.5432,-2.5595,-2.6581,-2.6544,-2.6748,-2.7194,-2.7154,-2.7078,-2.5898,-2.6764,-2.7644,-2.8547,-2.8673,-2.8415,-2.7788,-2.6843,-2.563,-2.4022,-2.3599,0.0,0.0,0.0,0.0,0.0,0.0,0.0,-2.8797,-2.9902,-3.1035,0.0,-3.251,0.0,-3.3887,-3.4756,-3.5056,-3.454,-3.481,-3.4826,-3.4401,-3.5147,-3.5613,-3.5641,-3.5699,-3.5786,-3.59,-3.5942,-3.5934,-3.5874,-3.5934,-3.5854,-3.566,-3.5695,-3.5632,-3.5493,-3.5493,-3.5493,-3.5493,-3.5369,-3.5232,-3.5078,-3.4813,-3.4615,-3.4464,-3.4362,-3.4199,-3.4018,-3.4018,-3.4018,-3.4028,-3.3986,-3.3986,-3.3855,-3.3208,-3.2436,-3.162,-3.0812,-3.0022,-2.9456,-2.9669,-2.9738,-2.9755,-2.9845,-2.9796,-2.9678,-2.9454,-2.931,-2.9312,-2.9643,-2.9675,-2.9492,-2.8922,-2.8605,-2.8301,-2.7951,-2.6985,-2.6136,-2.5678,-2.5206,-2.5152,-2.5772,-2.5449,-2.53,-2.5564,-2.5591,-2.5548,-2.5421,-2.5421,-2.5577,-2.5917,-2.5493,-2.5685,-2.6585,-2.6153,-2.6425,-2.7419,-2.734,-2.7643,-2.8293,-2.8082,-2.8045,-2.655,-2.7334,-2.794,-2.8053,-2.8468,-2.8247,-2.5928,-2.5168,-2.4284,-2.1841,0.0,-2.185,-2.0398,-2.208,-2.3504,-2.2992,0.0,-2.7856,-2.8164,-2.9549,-3.0983,-3.2214,-3.2978,-3.3789,-3.4775,-3.5557,-3.5976,-3.5918,-3.5912,-3.5573,-3.4786,-3.5351,-3.5704,-3.5693,-3.5821,-3.5886,-3.5865,-3.589,-3.5842,-3.5725,-3.5847,-3.5826,-3.5635,-3.5682,-3.5632,-3.5516,-3.5493,-3.5493,-3.547,-3.5207,-3.5088,-3.4999,-3.4427,-3.4185,-3.4123,-3.3823,-3.3707,-3.3707,-3.3707,-3.3707,-3.3779,-3.4049,-3.4147,-3.4017,-3.331,-3.2469,-3.1541,-3.0627,-2.9705,-2.9053,-2.933,-2.9412,-2.9434,-2.9616,-2.9532,-2.9392,-2.9342,-2.9203,-2.9218,-2.9625,-3.0052,-3.0267,-3.0037,-2.9564,-2.9063,-2.86,-2.7327,-2.6389,-2.6267,-2.5459,-2.5383,-2.66,-2.6191,-2.6023,-2.6569,-2.6603,-2.6603,-2.6603,-2.6603,-2.6658,-2.6759,-2.6667,-2.6704,-2.6915,-2.6814,-2.7265,-2.8277,-2.811,-2.8597,-2.9696,-2.9272,-2.9305,-2.6497,-2.6833,-2.7099,-2.7775,-2.7486,-2.6746,-2.5582,-2.4235,0.0,0.0,-2.0054,-1.9564,-1.928,-2.0177,-2.1407,-2.2685,0.0,0.0,0.0,0.0,-3.0576,0.0,0.0,0.0,0.0,-3.5908,0.0,-3.5976,-3.5982,-3.5836,-3.5525,-3.5632,-3.5694,-3.5703,-3.5836,-3.5841,-3.5739,-3.584,-3.5894,-3.5868,-3.5948,-3.5935,-3.584,-3.5746,-3.5661,-3.5584,-3.5526,-3.5493,-3.547,-3.5207,-3.4963,-3.4734,-3.4347,-3.4059,-3.3823,-3.3447,-3.3302,-3.3302,-3.3302,-3.3302,-3.3361,-3.3743,-3.3859,-3.3831,-3.3684,-3.2633,-3.1421,-3.1235,-3.0136,-2.9053,-2.933,-2.9412,-2.9403,-2.9434,-2.9423,-2.9351,-2.9112,-2.9334,-2.9607,-2.9669,-2.9902,-3.0052,-3.0013,-2.9904,-2.9705,-2.9298,-2.8034,-2.7206,-2.7465,-2.6349,-2.5639,-2.5883,-2.6234,-2.6489,-2.6594,-2.6603,-2.6603,-2.6603,-2.6603,-2.6906,-2.7558,-2.6952,-2.7236,-2.8567,-2.7934,-2.8113,-2.917,-2.9128,-2.9315,-2.9696,-2.9625,-2.9625,-2.6418,-2.6649,-2.6735,-2.713,-2.6909,-2.614,-2.4399,0.0,0.0,0.0,0.0,-1.8114,-1.7234,0.0,0.0,0.0,0.0,0.0,0.0,0.0,0.0,0.0,0.0,0.0,0.0,-3.5996,-3.5996,-3.5996,-3.6003,-3.5955,-3.5858,-3.5858,-3.584,-3.5803,-3.5863,-3.5817,-3.5649,-3.574,-3.5776,-3.5747,-3.5872,-3.588,-3.5739,-3.5704,-3.5641,-3.5541,-3.5363,-3.5289,-3.5264,-3.4999,-3.4715,-3.4423,-3.4256,-3.3924,-3.3456,-3.3273,-3.3214,-3.3214,-3.3214,-3.3341,-3.355,-3.3744,-3.3798,-3.3715,-3.3302,-3.2339,-3.1302,-3.0889,-2.9925,-2.903,-2.9156,-2.9191,-2.9191,-2.9191,-2.9289,-2.9362,-2.9234,-2.9551,-2.9838,-2.9721,-2.9861,-2.9969,-2.9861,-2.9501,-2.9255,-2.9388,-2.7726,-2.6792,-2.7687,-2.6855,-2.6365,-2.6888,-2.6822,-2.7155,-2.8137,-2.8131,-2.8047,-2.8047,-2.7939,-2.8026,-2.8411,-2.8062,-2.8218,-2.8966,-2.8769,-2.8899,-2.9412,-2.9523,-2.9661,-2.9861,-2.9755,-2.9832,-2.614,-2.6322,-2.6322,-2.6322,-2.6322,-2.5649,-2.3101,-2.186,0.0,0.0,-1.7346,-1.6906,-1.5766,0.0,0.0,0.0,0.0,0.0,0.0,0.0,0.0,0.0,0.0,0.0,-3.583,-3.5996,0.0,-3.5996,-3.5996,-3.5996,-3.5996,-3.5986,-3.5936,-3.5857,-3.5836,-3.5747,-3.5584,-3.5661,-3.5672,-3.5611,-3.5826,-3.5822,-3.5669,-3.5687,-3.5599,-3.5417,-3.52,-3.507,-3.4981,-3.4705,-3.4392,-3.4061,-3.3997,-3.3607,-3.3045,-3.2943,-3.2974,-3.3045,-3.3045,-3.3332,-3.368,-3.3771,-3.3798,-3.3678,-3.3054,-3.2173,-3.1265,-3.0632,-2.976,-2.8994,-2.8994,-2.8994,-2.9007,-2.9067,-2.9255,-2.9403,-2.9444,-2.9738,-2.9945,-2.9796,-2.9861,-2.9893,-2.9731,-2.9141,-2.8828,-2.924,-2.754,-2.66,-2.7656,-2.7144,-2.7058,-2.8082,-2.7746,-2.8044,-2.9565,-2.9513,-2.9412,-2.9412,-2.9156,-2.8994,-2.8994,-2.8994,-2.903,-2.9089,-2.9289,-2.9434,-2.9532,-2.9696,-2.9886,-3.0075,-2.9918,-3.0046,-2.5399,-2.5418,-2.5418,-2.5418,-2.5418,-2.4745,-2.2206,0.0,0.0,-1.7138,-1.6032,-1.5708,-1.6279,-1.6747,0.0,0.0,0.0,0.0,0.0,0.0,0.0,0.0,0.0,0.0,-3.583,-3.5996,-3.5996,-3.5996,-3.5996,-3.5996,-3.5996,-3.5941,-3.5849,-3.5723,-3.566,-3.5593,-3.5516,-3.5641,-3.5697,-3.5692,-3.5887,-3.5947,-3.5874,-3.5749,-3.5537,-3.5216,-3.5145,-3.4963,-3.4714,-3.4379,-3.4009,-3.3632,-3.3393,-3.2996,-3.2517,-3.21,-3.2196,-3.255,-3.255,-3.2881,-3.3312,-3.368,-3.3798,-3.3788,-3.3706,-3.2614,-3.1366,-3.1302,-3.0182,-2.8994,-2.8994,-2.8994,-2.9053,-2.931,-2.9383,-2.9454,-2.9634,-2.9836,-2.9989,-2.9984,-2.9845,-2.9721,-2.9704,-2.9476,-2.9249,-2.9058,-2.8376,-2.7863,-2.7812,-2.7254,-2.7288,-2.8357,-2.8896,-2.9306,-2.9669,-2.9513,-2.9412,-2.9412,-2.9156,-2.8994,-2.8994,-2.8994,-2.9112,-2.9351,-2.9392,-2.957,-2.9945,-2.996,-3.0109,-3.0367,-3.0333,-3.0355,-2.5168,-2.5293,-2.5293,-2.5293,-2.5293,-2.463,-2.2081,0.0,-1.9581,-1.7032,-1.5859,-1.5397,-1.5724,-1.6279,-1.7197,0.0,0.0,0.0,0.0,0.0,0.0,0.0,0.0,0.0,0.0,0.0,-3.5996,-3.5996,-3.5958,-3.5945,-3.5945,-3.591,-3.5824,-3.5644,-3.5602,-3.5574,-3.5493,-3.5632,-3.5699,-3.5694,-3.5862,-3.588,-3.5766,-3.5518,-3.53,-3.5129,-3.4725,-3.4355,-3.4015,-3.3732,-3.3337,-3.2924,-3.2822,-3.2508,-3.2065,-3.1852,-3.21,-3.2484,-3.2484,-3.2818,-3.3282,-3.368,-3.3643,-3.3403,-3.314,-3.2293,-3.1292,-3.0806,-2.9879,-2.8994,-2.8994,-2.8994,-2.903,-2.9125,-2.9384,-2.9598,-2.9678,-2.9973,-3.0169,-2.9861,-2.9746,-2.9661,-2.9542,-2.8924,-2.8618,-2.916,-2.8075,-2.752,-2.8402,-2.7896,-2.786,-2.8933,-2.9038,-2.9273,-2.983,-2.9696,-2.9532,-2.9412,-2.931,-2.9246,-2.9246,-2.9355,-2.9475,-2.957,-2.9696,-2.9845,-2.9999,-3.015,-3.0299,-3.0398,-3.0398,-3.0398,-2.4726,-2.512,-2.5293,-2.5293,-2.512,-2.4284,0.0,-2.0514,-1.9196,-1.6667,-1.5686,-1.5306,-1.5328,-1.587,-1.6689,0.0,0.0,0.0,0.0,0.0,0.0,0.0,0.0,-3.2187,-3.4131,-3.5342,-3.5992,-3.597,-3.5931,-3.5863,-3.5805,-3.5734,-3.5667,-3.5603,-3.5584,-3.5555,-3.5493,-3.5613,-3.5668,-3.5675,-3.5795,-3.5741,-3.5533,-3.5312,-3.5077,-3.4813,-3.4383,-3.3978,-3.3633,-3.3325,-3.2912,-3.2484,-3.235,-3.2004,-3.1631,-3.1631,-3.1906,-3.2307,-3.2307,-3.2672,-3.3243,-3.3522,-3.3513,-3.3319,-3.3039,-3.2228,-3.1274,-3.0705,-2.9806,-2.8994,-2.8994,-2.8994,-2.9017,-2.9089,-2.9375,-2.9634,-2.9696,-2.9952,-3.0099,-2.9755,-2.9643,-2.958,-2.9414,-2.871,-2.8404,-2.9163,-2.8166,-2.7732,-2.8847,-2.8561,-2.8565,-2.9327,-2.9202,-2.9302,-2.9867,-2.9731,-2.9561,-2.9403,-2.933,-2.931,-2.9392,-2.9551,-2.967,-2.9789,-2.9939,-3.0037,-3.0113,-3.0311,-3.0398,-3.0398,-3.0398,-3.0398,-2.389,-2.4687,-2.5293,-2.5293,-2.4697,-2.3456,0.0,-1.9638,-1.8309,-1.582,-1.5311,-1.532,-1.5393,-1.5411,-1.5977,-1.7725,0.0,0.0,0.0,0.0,0.0,0.0,0.0,-3.0615,-3.3174,-3.498,-3.5974,-3.591,-3.5905,-3.5805,-3.5613,-3.5346,-3.5329,-3.5589,-3.5545,-3.5493,-3.5493,-3.5574,-3.5604,-3.5591,-3.5675,-3.5531,-3.5217,-3.5199,-3.4848,-3.4209,-3.42,-3.4043,-3.3771,-3.337,-3.2912,-3.2442,-3.1995,-3.1574,-3.1199,-3.1199,-3.1478,-3.1825,-3.1825,-3.2433,-3.3214,-3.3205,-3.3456,-3.3798,-3.3788,-3.2669,-3.1393,-3.1384,-3.0228,-2.8994,-2.8994,-2.8994,-2.9076,-2.933,-2.9412,-2.9454,-2.967,-2.9704,-2.9713,-2.9696,-2.9542,-2.9403,-2.9412,-2.916,-2.8975,-2.9007,-2.8975,-2.8966,-2.8994,-2.9215,-2.9383,-2.9412,-2.9579,-2.9695,-2.9704,-2.9513,-2.9403,-2.9412,-2.9147,-2.9134,-2.9392,-2.9403,-2.9589,-2.9999,-2.9999,-3.0136,-3.0398,-3.0398,-3.0398,-3.0398,-3.0398,-3.0398,-2.127,-2.2093,-2.2572,-2.2015,-2.1696,-2.0994,-1.9047,-1.8376,-1.7634,-1.5705,-1.5339,-1.5368,-1.5397,-1.5402,-1.6172,-1.8506,-1.9084,0.0,0.0,0.0,0.0,0.0,-2.9756,-3.2139,0.0,-3.4748,-3.5279,-3.5871,-3.5595,-3.5386,-3.5329,-3.503,-3.5065,-3.5522,-3.5329,-3.5304,-3.5493,-3.5379,-3.5331,-3.5314,-3.516,-3.504,-3.4922,-3.463,-3.4256,-3.3781,-3.3597,-3.3103,-3.2407,-3.229,-3.2004,-3.1591,-3.1449,-3.1321,-3.119,-3.119,-3.144,-3.178,-3.178,-3.2196,-3.2777,-3.3115,-3.3282,-3.3328,-3.3057,-3.2238,-3.1164,-3.0072,-2.9402,-2.8994,-2.8994,-2.8994,-2.9007,-2.9112,-2.9277,-2.9423,-2.9484,-2.9598,-2.9661,-2.9532,-2.9434,-2.9351,-2.9156,-2.9053,-2.8994,-2.8994,-2.8994,-2.8994,-2.8994,-2.9067,-2.9134,-2.9134,-2.9172,-2.9303,-2.9474,-2.9443,-2.933,-2.9134,-2.9212,-2.931,-2.9392,-2.9661,-2.9877,-2.9999,-3.0173,-3.0321,-3.0398,-3.0398,-3.0398,-3.0398,-3.0398,-3.0398,0.0,-1.9964,-2.0554,-2.0348,-2.0071,-1.949,-1.811,-1.7565,-1.697,-1.5615,-1.5368,-1.54,-1.5403,-1.5398,-1.6144,-1.8404,-1.8988,0.0,0.0,0.0,0.0,-2.7305,0.0,0.0,-3.3551,-3.4157,-3.4789,-3.5576,-3.5266,-3.503,-3.5003,-3.4681,-3.4715,-3.5181,-3.5043,-3.5026,-3.5207,-3.5066,-3.5012,-3.5003,-3.467,-3.4456,-3.4323,-3.3903,-3.3533,-3.3167,-3.3,-3.2607,0.0,-3.1888,-3.1677,-3.1445,-3.1269,-3.119,-3.119,-3.119,-3.1351,-3.1603,-3.1752,-3.21,-3.2583,-3.3054,-3.3103,-3.2865,-3.2316,-3.1586,-3.0678,-2.9384,-2.8994,-2.8994,-2.8994,-2.8994,-2.8994,-2.8994,-2.9134,-2.9255,-2.9255,-2.9344,-2.9406,-2.9279,-2.9255,-2.9191,-2.903,-2.8994,-2.8994,-2.8994,-2.8994,-2.8994,-2.8994,-2.8994,-2.8994,-2.8994,-2.8994,-2.9076,-2.9225,-2.9255,-2.9169,-2.9017,-2.9156,-2.9289,-2.9392,-2.9634,-2.9845,-2.9999,-3.0095,-3.0169,-3.0254,-3.0169,-3.0137,-3.0137,-3.0137,-3.0137,0.0,-1.8021,-1.8893,-1.9595,-1.9203,-1.845,-1.7716,-1.696,0.0,-1.5534,-1.5399,-1.5438,-1.556,-1.5526,-1.6088,-1.7964,-1.8833,0.0,0.0,0.0,0.0,0.0,-2.9746,-3.1034,-3.1893,-3.32,-3.432,-3.5031,-3.48,-3.462,-3.4623,-3.4269,-3.4214,-3.4532,-3.4532,-3.4583,-3.4703,-3.4683,-3.4644,-3.4623,-3.4162,-3.379,-3.3506,-3.3058,-3.2711,-3.2451,-3.2451,-3.2417,-3.2384,-3.1933,-3.1778,-3.1793,-3.1368,-3.119,-3.119,-3.119,-3.119,-3.126,-3.1631,-3.2065,-3.2574,-3.3012,-3.2875,-3.2366,-3.1559,-3.0788,-3.0035,-2.9223,-2.8994,-2.8994,-2.8994,-2.8994,-2.8994,-2.8994,-2.8994,-2.8994,-2.8994,-2.8994,-2.8994,-2.8994,-2.8994,-2.8994,-2.8994,-2.8994,-2.8994,-2.8994,-2.8994,-2.8994,-2.8994,-2.8994,-2.8994,-2.8994,-2.8994,-2.8994,-2.8994,-2.8994,-2.8994,-2.8994,-2.8994,-2.9112,-2.9372,-2.9392,-2.958,-2.9954,-2.9789,-2.978,-2.9984,-2.978,-2.9696,-2.9696,-2.9696,-2.9696,-1.2378,0.0,-1.5079,-1.4607,-1.4342,-1.4342,0.0,-1.4824,-1.4816,0.0,0.0,0.0,0.0,-1.677,-1.752,-2.12,-2.1359,-2.1928,-2.4534,0.0,0.0,-2.9901,-3.0462,-3.0983,-3.1703,-3.2044,-3.2707,-3.3878,-3.3343,-3.3241,-3.3845,-3.3254,-3.2933,-3.3006,-3.3006,-3.3551,-3.4694,-3.4455,-3.4172,-3.3864,-3.3534,-3.3183,-3.2755,-3.2651,-3.2364,-3.1951,-3.1951,-3.1806,-3.1495,-3.1389,-3.1359,-3.1368,-3.1221,-3.119,-3.119,-3.119,-3.119,-3.123,-3.1329,-3.1851,-3.2518,-3.2691,-3.2252,-3.1522,-3.0733,-3.0347,-3.0035,-2.9223,-2.8994,-2.8994,-2.8994,-2.8994,-2.8994,-2.8994,-2.8994,-2.8994,-2.8994,-2.8994,-2.8994,-2.8994,-2.8994,-2.8994,-2.8994,-2.8994,-2.8994,-2.8994,-2.8994,-2.8994,-2.8994,-2.8994,-2.8994,-2.8994,-2.8994,-2.8994,-2.8994,-2.8994,-2.8994,-2.8994,-2.8994,-2.903,-2.9089,-2.9289,-2.9434,-2.9542,-2.9652,-2.9721,-2.9772,-2.9721,-2.9696,-2.9696,-2.9696,-2.9696,-1.0359,-1.2203,-1.3935,-1.3861,-1.4174,-1.4623,-1.5135,0.0,0.0,0.0,0.0,0.0,0.0,0.0,0.0,0.0,-2.1985,0.0,0.0,0.0,-2.9077,-3.0496,-3.0633,-3.0882,-3.1585,-3.145,-3.165,-3.2486,-3.2031,-3.1819,-3.2071,-3.1701,-3.1487,-3.1487,-3.1833,-3.2525,-3.3684,-3.3515,-3.332,-3.3078,-3.2723,-3.2433,-3.217,-3.1986,-3.1742,-3.1536,-3.1536,-3.1419,-3.119,-3.119,-3.119,-3.1165,-3.0827,-3.0903,-3.1157,-3.0818,-3.0911,-3.123,-3.1411,-3.2083,-3.2787,-3.2657,-3.2063,-3.1247,-3.0439,-2.9943,-2.9567,-2.9113,-2.8994,-2.8994,-2.8994,-2.8994,-2.8994,-2.8994,-2.8994,-2.8994,-2.8994,-2.8994,-2.8994,-2.8994,-2.8994,-2.8994,-2.8994,-2.8994,-2.8994,-2.8994,-2.8994,-2.8994,-2.8994,-2.8994,-2.8994,-2.8994,-2.8994,-2.8994,-2.8994,-2.8994,-2.8994,-2.8994,-2.8994,-2.8994,-2.8994,-2.9134,-2.9212,-2.9212,-2.9435,-2.9494,-2.9377,-2.9189,-2.9198,-2.9377,-2.9198,-2.9198,-0.982,-1.1901,-1.4095,-1.4513,-1.5402,-1.621,-1.6375,0.0,0.0,0.0,0.0,0.0,0.0,0.0,0.0,0.0,0.0,0.0,-2.765,-2.8688,-2.9472,-3.0481,-3.0548,-3.0733,-3.1268,-3.0974,-3.0826,-3.1014,-3.0731,-3.0409,-3.0198,-3.0145,-3.0092,-3.0092,-3.0718,-3.1329,-3.1964,-3.2336,-3.2442,-3.2375,-3.1882,-3.1616,-3.1524,-3.1189,-3.103,-3.103,-3.103,-3.103,-3.1013,-3.0903,-3.0852,-3.0793,-3.0184,-3.0387,-3.0937,-3.0268,-3.0561,-3.1334,-3.1704,-3.2284,-3.2764,-3.2354,-3.177,-3.1063,-3.0198,-2.9492,-2.8994,-2.8929,-2.8952,-2.8994,-2.8994,-2.8994,-2.8994,-2.8994,-2.8994,-2.8994,-2.8994,-2.8994,-2.8994,-2.8994,-2.8994,-2.8984,-2.8929,-2.8896,-2.8896,-2.8896,-2.8896,-2.8929,-2.8984,-2.8994,-2.8994,-2.8994,-2.8994,-2.8994,-2.8994,-2.8994,-2.8994,-2.8994,-2.8994,-2.8994,-2.8994,-2.8994,-2.8961,-2.8896,-2.9141,-2.9119,-2.8825,-2.8489,-2.8489,-2.8815,-2.8489,-2.854,-1.0835,-1.2777,-1.4016,-1.2392,-1.3119,-1.4455,0.0,0.0,0.0,0.0,0.0,0.0,0.0,0.0,0.0,0.0,0.0,-2.6717,0.0,0.0,-2.9542,-3.0484,-3.0594,-3.0448,-3.0111,-2.9753,-2.9641,-2.9834,-2.9189,-2.9051,-2.9687,-2.9369,-2.9201,-2.9201,-2.9312,-2.9423,-2.9542,-3.1514,-3.2307,-3.1915,-3.1193,-3.0676,-3.0365,-3.0307,-3.0277,-3.0277,-3.0277,-3.0277,-3.0226,-2.9583,-2.9321,-2.935,-2.9194,-2.9617,-3.0205,-2.9745,-3.0498,-3.1738,-3.1902,-3.1633,-3.1101,-3.07,-3.0485,-3.017,-2.9007,-2.884,-2.8929,-2.8599,-2.8749,-2.8994,-2.8994,-2.8994,-2.8994,-2.8994,-2.8994,-2.8994,-2.8994,-2.8994,-2.8994,-2.8994,-2.8994,-2.8896,-2.854,-2.848,-2.848,-2.848,-2.848,-2.8624,-2.8961,-2.8994,-2.8994,-2.8994,-2.8994,-2.8994,-2.8994,-2.8994,-2.8994,-2.8994,-2.8994,-2.8994,-2.8994,-2.8994,-2.8839,-2.8506,-2.8538,-2.8385,-2.8065,-2.801,-2.8001,-2.8065,-2.801,-2.8156,-0.9867,-1.1765,-1.3359,-1.2434,-1.4646,-1.7156,0.0,0.0,0.0,0.0,0.0,0.0,0.0,0.0,0.0,-2.5534,0.0,-2.7785,-2.9036,-2.9608,-3.0075,-3.0536,-3.0413,-3.0075,-2.9572,-2.9226,-2.8837,-2.8377,-2.8015,-2.7883,-2.803,-2.7862,-2.7748,-2.7748,-2.8137,-2.8357,-2.8357,-2.985,-3.0713,-3.0879,-3.0529,-3.0273,-3.0099,-2.9693,-2.9499,-2.9499,-2.9499,-2.9499,-2.9474,-2.9127,-2.9019,-2.8941,-2.8518,-2.8941,-2.9779,-2.9795,-3.0265,-3.0916,-3.1246,-3.1126,-3.0721,-3.0325,-3.0042,-2.9684,-2.8706,-2.8403,-2.8369,-2.8183,-2.8558,-2.8952,-2.8716,-2.8839,-2.8961,-2.8725,-2.8839,-2.8994,-2.8994,-2.8994,-2.8994,-2.8994,-2.883,-2.8691,-2.8716,-2.8531,-2.8471,-2.8691,-2.8716,-2.8782,-2.8994,-2.8994,-2.8994,-2.8994,-2.8994,-2.8994,-2.8994,-2.8994,-2.8994,-2.8994,-2.8994,-2.8994,-2.8994,-2.8782,-2.8599,-2.8411,-2.8228,-2.8047,-2.7897,-2.7687,-2.7687,-2.7897,-2.7897,-2.8075,-0.9333,-1.103,-1.2842,-1.3266,0.0,-1.8967,-1.9567,0.0,0.0,0.0,0.0,0.0,0.0,0.0,0.0,-2.6534,-2.7525,-2.8364,-2.9402,-3.0107,-3.0524,-3.0527,-3.0166,-2.9723,-2.923,-2.8781,-2.8172,-2.737,-2.7201,-2.7027,-2.6733,-2.6691,-2.6691,-2.6691,-2.7258,-2.7554,-2.7554,-2.8323,-2.9093,-2.9837,-2.966,-2.9575,-2.955,-2.8975,-2.8712,-2.8712,-2.8712,-2.8712,-2.8695,-2.8518,-2.845,-2.8383,-2.7791,-2.8177,-2.9234,-2.9973,-3.0098,-2.9931,-3.0468,-3.0468,-3.0179,-2.9895,-2.9532,-2.9053,-2.8218,-2.7846,-2.7701,-2.7613,-2.8058,-2.8513,-2.8333,-2.8524,-2.8667,-2.8446,-2.8633,-2.8896,-2.8984,-2.8929,-2.8863,-2.8863,-2.8549,-2.8377,-2.8676,-2.8498,-2.8403,-2.8806,-2.8863,-2.8896,-2.8984,-2.8994,-2.8994,-2.8994,-2.8994,-2.8994,-2.8994,-2.8994,-2.8994,-2.8994,-2.9053,-2.9012,-2.8872,-2.8565,-2.8333,-2.8139,-2.788,-2.7716,-2.7628,-2.7295,-2.7326,-2.7628,-2.7716,-2.7936,-1.0744,-1.1851,-1.2952,-1.4394,0.0,0.0,-1.8896,0.0,0.0,0.0,0.0,0.0,0.0,-2.4444,-2.5726,-2.7603,-2.7959,-2.8614,-3.0342,-3.0589,-3.0529,-3.0337,-2.992,-2.9418,-2.8888,-2.8135,-2.7571,-2.7317,-2.6963,-2.6725,-2.6691,-2.6691,-2.6691,-2.6691,-2.6742,-2.6776,-2.6776,-2.7528,-2.8298,-2.9059,-2.8332,-2.795,-2.7941,-2.7891,-2.7909,-2.7909,-2.7909,-2.7909,-2.7815,-2.7148,-2.686,-2.6852,-2.6793,-2.729,-2.8242,-3.0064,-3.0025,-2.9179,-2.9978,-2.9507,-2.8582,-2.8545,-2.8291,-2.7847,-2.6922,-2.6871,-2.7082,-2.6727,-2.6903,-2.7334,-2.7796,-2.7954,-2.8056,-2.8333,-2.842,-2.854,-2.8929,-2.8716,-2.8437,-2.8437,-2.8156,-2.7954,-2.7982,-2.7954,-2.8047,-2.8385,-2.8437,-2.8565,-2.8952,-2.8994,-2.8994,-2.8994,-2.8994,-2.8994,-2.8994,-2.8994,-2.8994,-2.8994,-2.9225,-2.9091,-2.8471,-2.842,-2.8075,-2.7378,-2.7356,-2.7147,-2.6791,-2.6758,-2.675,-2.6783,-2.7178,-2.7568,-0.9818,-1.1542,-1.3359,-1.3948,0.0,0.0,0.0,0.0,0.0,0.0,0.0,0.0,0.0,0.0,-2.5832,-2.7055,-2.7709,-2.8476,-2.9659,-3.0127,-3.0329,-3.025,-2.9579,-2.8927,-2.8473,-2.7804,-2.7168,-2.6531,-2.635,-2.6254,-2.6254,-2.6254,-2.6401,-2.6691,-2.6691,-2.6691,-2.6691,-2.6979,-2.7266,-2.7562,-2.774,-2.7789,-2.7764,-2.7342,-2.7122,-2.7122,-2.7122,-2.7122,-2.7097,-2.681,-2.6691,-2.6758,-2.7232,-2.7628,-2.8053,-2.9255,-2.9378,-2.9007,-2.9052,-2.8784,-2.8315,-2.7756,-2.7339,-2.6914,-2.6243,-2.6017,-2.5892,-2.5737,-2.5801,-2.6173,-2.7251,-2.7716,-2.786,-2.7756,-2.7899,-2.8129,-2.8281,-2.8201,-2.8075,-2.8075,-2.8001,-2.7982,-2.8183,-2.8201,-2.8351,-2.8725,-2.8773,-2.8839,-2.8984,-2.8994,-2.8994,-2.8994,-2.8994,-2.8994,-2.8994,-2.9147,-2.9169,-2.9017,-2.9098,-2.8938,-2.8411,-2.821,-2.7842,-2.7295,-2.7051,-2.6841,-2.6691,-2.6691,-2.6691,-2.6733,-2.7356,-2.7745,-0.968,-1.1481,-1.3497,0.0,0.0,0.0,0.0,0.0,0.0,0.0,0.0,0.0,0.0,0.0,0.0,-2.699,-2.7684,-2.8434,-2.9469,-2.9952,-3.0104,-2.9833,-2.8946,-2.8176,-2.7724,-2.7046,-2.6471,-2.6041,-2.6005,-2.6005,-2.6005,-2.6005,-2.6077,-2.6237,-2.6237,-2.6315,-2.6479,-2.6479,-2.6547,-2.67,-2.7215,-2.7461,-2.7452,-2.6928,-2.6691,-2.6691,-2.6691,-2.6691,-2.6691,-2.6691,-2.6691,-2.6783,-2.7598,-2.7897,-2.7982,-2.8734,-2.8929,-2.8773,-2.8506,-2.8246,-2.792,-2.7161,-2.6662,-2.6233,-2.5558,-2.5157,-2.4942,-2.4942,-2.4942,-2.5189,-2.6335,-2.6959,-2.7291,-2.7286,-2.7508,-2.7754,-2.786,-2.7803,-2.7716,-2.7716,-2.7598,-2.7669,-2.8148,-2.8228,-2.8403,-2.8929,-2.8994,-2.8994,-2.8994,-2.8994,-2.8994,-2.8994,-2.8994,-2.8994,-2.8994,-2.9169,-2.9128,-2.883,-2.8806,-2.8633,-2.8264,-2.7908,-2.7508,-2.7115,-2.6849,-2.6691,-2.6691,-2.6849,-2.6906,-2.6906,-2.7698,-2.8056,-1.0816,-1.1892,0.0,0.0,0.0,0.0,0.0,0.0,0.0,0.0,0.0,-2.5157,-2.5361,-2.54,0.0,-2.7694,-2.7976,-2.852,-3.0038,-3.0205,-2.9851,-2.8976,-2.7995,-2.714,-2.6554,-2.5692,-2.5403,-2.5924,-2.5969,-2.5969,-2.5969,-2.5969,-2.5726,-2.5221,-2.5221,-2.5457,-2.5977,-2.6005,-2.6227,-2.6691,-2.6691,-2.67,-2.6691,-2.6691,-2.6691,-2.6691,-2.6691,-2.6691,-2.6691,-2.6691,-2.6691,-2.6783,-2.7568,-2.7897,-2.7982,-2.8709,-2.8749,-2.8385,-2.8385,-2.7909,-2.7206,-2.6655,-2.6266,-2.577,-2.4712,-2.4389,-2.4389,-2.4389,-2.4389,-2.4511,-2.5059,-2.5577,-2.6202,-2.7066,-2.7295,-2.7387,-2.7803,-2.7568,-2.7295,-2.7295,-2.6971,-2.6963,-2.7745,-2.7897,-2.8147,-2.8872,-2.8984,-2.8994,-2.8994,-2.8994,-2.8994,-2.8994,-2.8994,-2.8994,-2.8994,-2.8994,-2.883,-2.842,-2.8385,-2.8228,-2.7897,-2.7508,-2.7115,-2.6725,-2.6691,-2.6691,-2.6691,-2.7115,-2.7295,-2.7326,-2.8048,-2.8385,-1.1108,0.0,0.0,0.0,0.0,0.0,0.0,0.0,0.0,0.0,-2.5051,-2.5228,-2.5427,-2.535,-2.5427,-2.5946,-2.6389,-2.6812,-2.7281,-2.7484,-2.7508,-2.7235,-2.6364,-2.5574,-2.5057,-2.497,-2.4725,-2.4212,-2.4625,-2.4863,-2.4863,-2.4863,-2.4981,-2.5174,-2.5221,-2.5297,-2.5457,-2.5457,-2.5689,-2.6227,-2.6227,-2.6367,-2.6691,-2.6691,-2.6691,-2.6691,-2.6691,-2.6691,-2.6691,-2.6691,-2.6691,-2.6758,-2.7264,-2.7657,-2.7926,-2.8147,-2.8299,-2.8333,-2.7805,-2.7256,-2.6605,-2.5854,-2.5257,-2.4744,-2.4032,-2.3837,-2.3837,-2.3837,-2.3837,-2.3948,-2.4511,-2.4744,-2.5128,-2.6133,-2.6376,-2.6505,-2.6954,-2.6963,-2.6873,-2.6873,-2.6995,-2.7295,-2.7803,-2.7897,-2.8056,-2.8515,-2.8565,-2.8682,-2.8952,-2.8994,-2.8994,-2.8994,-2.8994,-2.8994,-2.8994,-2.8749,-2.854,-2.8411,-2.7909,-2.7581,-2.747,-2.7348,-2.7115,-2.6725,-2.6691,-2.6691,-2.6691,-2.7115,-2.7138,-2.6898,-2.7929,-2.8281,-1.2555,0.0,0.0,0.0,0.0,0.0,0.0,0.0,0.0,0.0,0.0,-2.5205,-2.5326,-2.5184,-2.5098,-2.5299,-2.5623,-2.5917,-2.6051,-2.6206,-2.6153,-2.5715,-2.5,-2.4284,-2.3679,-2.3584,-2.3417,-2.304,-2.339,-2.37,-2.3971,-2.3986,-2.4191,-2.4536,-2.4544,-2.4664,-2.4863,-2.4863,-2.5136,-2.5689,-2.5888,-2.6156,-2.6444,-2.6615,-2.6691,-2.6691,-2.6691,-2.6691,-2.6691,-2.6691,-2.6691,-2.6758,-2.7138,-2.7448,-2.7687,-2.784,-2.7936,-2.7909,-2.7461,-2.6862,-2.6189,-2.5425,-2.4824,-2.4315,-2.3759,-2.3602,-2.3602,-2.3602,-2.3602,-2.3673,-2.3991,-2.4074,-2.4348,-2.5419,-2.5689,-2.5799,-2.6324,-2.6401,-2.6479,-2.6657,-2.6906,-2.7178,-2.7598,-2.7657,-2.7823,-2.8333,-2.854,-2.8725,-2.8961,-2.8994,-2.8994,-2.8994,-2.8994,-2.8994,-2.8994,-2.8624,-2.8333,-2.821,-2.764,-2.7232,-2.7051,-2.7051,-2.6963,-2.6691,-2.6691,-2.6691,-2.6691,-2.7115,-2.7178,-2.6963,-2.7805,-2.8156,0.0,0.0,0.0,0.0,0.0,0.0,0.0,0.0,0.0,-2.5126,0.0,-2.5037,-2.5041,-2.4838,-2.4817,-2.525,-2.5307,-2.5402,-2.571,-2.5696,-2.5278,-2.43,-2.3744,-2.3117,-2.2306,-2.1865,-2.1841,-2.2199,-2.2291,-2.2593,-2.3211,-2.3258,-2.3335,-2.349,-2.352,-2.3784,-2.4307,-2.4315,-2.4592,-2.5136,-2.5615,-2.5896,-2.6005,-2.6479,-2.6691,-2.6691,-2.6691,-2.6691,-2.6691,-2.6691,-2.6691,-2.6725,-2.7115,-2.7264,-2.7326,-2.7657,-2.7568,-2.7295,-2.7201,-2.6632,-2.5852,-2.5297,-2.4744,-2.4233,-2.3759,-2.3602,-2.3602,-2.3602,-2.3602,-2.3602,-2.3602,-2.3638,-2.3914,-2.4902,-2.5174,-2.5343,-2.5888,-2.6041,-2.6183,-2.6624,-2.6691,-2.6849,-2.7232,-2.7295,-2.7542,-2.8298,-2.8716,-2.8961,-2.8994,-2.8994,-2.8994,-2.8994,-2.8961,-2.8961,-2.8961,-2.854,-2.8175,-2.786,-2.7478,-2.7083,-2.6733,-2.6691,-2.6691,-2.6691,-2.6691,-2.6691,-2.6691,-2.7115,-2.7264,-2.7272,-2.7687,-2.8047,0.0,0.0,0.0,0.0,0.0,0.0,0.0,0.0,-2.4532,-2.4826,-2.4715,-2.4554,-2.4547,-2.4126,-2.3821,-2.391,-2.3804,-2.3715,-2.3788,-2.33,-2.2853,-2.2638,-2.2007,-2.1374,-2.0825,-2.1144,-2.13,-2.1084,-2.1536,-2.1922,-2.2073,-2.2081,-2.2302,-2.2896,-2.2869,-2.3193,-2.3752,-2.3752,-2.4032,-2.4584,-2.4704,-2.5182,-2.6005,-2.6479,-2.6691,-2.6691,-2.6691,-2.6691,-2.6691,-2.6691,-2.6691,-2.6725,-2.6783,-2.7027,-2.7264,-2.7051,-2.7115,-2.7192,-2.6505,-2.5892,-2.5289,-2.4744,-2.4191,-2.3759,-2.3638,-2.3602,-2.3602,-2.3602,-2.3602,-2.3602,-2.3602,-2.3914,-2.4274,-2.4511,-2.4902,-2.5343,-2.5888,-2.6297,-2.6581,-2.6691,-2.6691,-2.6849,-2.7232,-2.7295,-2.7542,-2.8298,-2.8471,-2.8648,-2.8961,-2.8994,-2.8994,-2.8994,-2.8725,-2.8531,-2.8531,-2.7918,-2.75,-2.7439,-2.706,-2.6783,-2.6691,-2.6691,-2.6691,-2.6691,-2.6691,-2.6691,-2.6691,-2.7115,-2.7147,-2.6849,-2.7568,-2.7954,0.0,0.0,0.0,0.0,0.0,0.0,0.0,0.0,-2.3326,-2.3399,-2.3565,-2.3672,-2.3672,-2.3154,-2.2686,-2.2563,-2.2453,-2.2328,-2.2173,-2.1832,-2.1486,-2.1248,-2.0911,-2.0491,-2.007,-2.0348,-2.0468,-2.0258,-2.0535,-2.0872,-2.1208,-2.1223,-2.153,-2.2188,-2.2211,-2.236,-2.2682,-2.2682,-2.284,-2.3109,-2.335,-2.3875,-2.4694,-2.5824,-2.6479,-2.6691,-2.647,-2.6479,-2.6691,-2.6691,-2.6691,-2.6691,-2.6691,-2.6849,-2.7004,-2.6791,-2.6699,-2.6598,-2.6175,-2.5494,-2.4784,-2.4511,-2.4032,-2.3602,-2.3602,-2.3602,-2.3602,-2.3602,-2.3602,-2.3602,-2.3602,-2.3991,-2.4389,-2.4389,-2.4824,-2.5343,-2.5888,-2.6183,-2.6436,-2.6657,-2.6849,-2.7051,-2.7264,-2.7601,-2.7974,-2.8333,-2.8565,-2.8773,-2.8984,-2.8994,-2.8929,-2.874,-2.854,-2.8342,-2.8175,-2.764,-2.7295,-2.7295,-2.6939,-2.6791,-2.6995,-2.7004,-2.7004,-2.7004,-2.6816,-2.6783,-2.7004,-2.6987,-2.6898,-2.6725,-2.7326,-2.7716,0.0,0.0,0.0,0.0,0.0,0.0,0.0,0.0,-2.2029,-2.179,-2.2228,-2.2651,-2.2651,-2.2157,-2.1678,-2.1445,-2.1423,-2.1334,-2.1055,-2.0926,-2.0723,-2.0348,-2.017,-1.9942,-1.9595,-1.9486,-1.945,-1.9566,-1.9566,-1.9848,-2.0505,-2.0535,-2.0842,-2.1508,-2.153,-2.1582,-2.1695,-2.1695,-2.1695,-2.1695,-2.2164,-2.2648,-2.3119,-2.4668,-2.5754,-2.6396,-2.6009,-2.6145,-2.6691,-2.6691,-2.6691,-2.6691,-2.6691,-2.6691,-2.6691,-2.6615,-2.6332,-2.5969,-2.577,-2.5136,-2.4389,-2.4266,-2.3948,-2.3602,-2.3602,-2.3602,-2.3602,-2.3602,-2.3602,-2.3638,-2.3716,-2.4158,-2.4584,-2.4713,-2.5173,-2.5648,-2.6008,-2.622,-2.6437,-2.6832,-2.7178,-2.7409,-2.7491,-2.8002,-2.8411,-2.8496,-2.8782,-2.8897,-2.8649,-2.8753,-2.867,-2.8188,-2.8174,-2.8084,-2.7831,-2.7418,-2.721,-2.721,-2.6873,-2.6841,-2.717,-2.7264,-2.7295,-2.7295,-2.6963,-2.6971,-2.7295,-2.6906,-2.6691,-2.6725,-2.7027,-2.7448,0.0,0.0,0.0,0.0,0.0,0.0,0.0,0.0,-2.1493,0.0,-2.1415,-2.1691,-2.1691,-2.1362,-2.1118,-2.107,-2.1078,-2.1047,-2.0999,-2.0657,-2.0382,-2.0314,-1.9564,-1.9073,-1.9006,-1.8574,-1.8496,-1.8968,-1.9006,-1.925,-1.9809,-1.9817,-2.0139,-2.0827,-2.0849,-2.1119,-2.1687,-2.1695,-2.1695,-2.1695,-2.2164,-2.2434,-2.2508,-2.277,-2.3731,-2.5211,-2.5142,-2.5747,-2.6691,-2.6691,-2.6691,-2.6691,-2.6691,-2.6691,-2.6657,-2.6227,-2.6041,-2.5888,-2.4942,-2.4511,-2.4307,-2.3879,-2.3681,-2.3602,-2.3602,-2.3602,-2.3602,-2.3602,-2.3602,-2.3716,-2.4191,-2.4704,-2.5295,-2.6052,-2.6614,-2.6927,-2.653,-2.7075,-2.7669,-2.7716,-2.7774,-2.7908,-2.8192,-2.8324,-2.8506,-2.8872,-2.8961,-2.8543,-2.726,-2.7801,-2.7959,-2.7112,-2.7282,-2.7439,-2.7378,-2.6995,-2.6783,-2.6783,-2.6725,-2.6716,-2.6783,-2.7115,-2.7295,-2.7295,-2.7241,-2.7241,-2.7295,-2.6906,-2.6691,-2.6691,-2.6758,-2.7178,0.0,0.0,0.0,0.0,0.0,0.0,0.0,0.0,-2.0377,-1.9904,-1.9936,-2.0213,-2.0742,-2.0534,-2.0277,-2.0277,-2.0277,-2.0277,-2.0277,-1.9836,-1.9535,-1.9535,-1.8902,-1.8458,-1.8458,-1.8256,-1.8217,-1.8419,-1.8734,-1.9006,-1.9244,-1.9522,-1.9824,-2.0131,-2.0139,-2.0273,-2.0572,-2.0572,-2.0572,-2.0565,-2.0796,-2.0891,-2.0891,-2.0891,-2.2402,-2.4993,-2.4699,-2.5355,-2.6691,-2.6691,-2.6691,-2.6691,-2.6691,-2.6547,-2.6297,-2.6085,-2.5615,-2.5028,-2.4544,-2.4191,-2.3914,-2.3681,-2.3602,-2.3681,-2.3956,-2.4032,-2.4116,-2.443,-2.4511,-2.4544,-2.4784,-2.5384,-2.5944,-2.604,-2.7003,-2.7835,-2.7505,-2.7683,-2.7954,-2.8129,-2.8183,-2.829,-2.8658,-2.8749,-2.8716,-2.8658,-2.8658,-2.8352,-2.7513,-2.7771,-2.7803,-2.7163,-2.7217,-2.7201,-2.6995,-2.6816,-2.6691,-2.6691,-2.6691,-2.6816,-2.7027,-2.721,-2.7418,-2.7628,-2.7409,-2.7295,-2.7295,-2.6906,-2.6691,-2.67,-2.6939,-2.7356,0.0,0.0,0.0,0.0,0.0,0.0,0.0,0.0,-1.9082,-1.8618,-1.8619,-1.8902,-1.9613,-1.9507,-1.9325,-1.9486,-1.9486,-1.9522,-1.9682,-1.9244,-1.8893,-1.8893,-1.8295,-1.79,-1.79,-1.7787,-1.7747,-1.79,-1.8256,-1.8612,-1.8893,-1.9288,-1.9486,-1.9486,-1.9646,-1.9566,-1.9288,-1.9442,-1.9566,-1.9682,-1.9682,-1.9682,-1.9682,-1.9682,-2.1303,-2.4107,-2.3863,-2.4699,-2.6286,-2.6437,-2.6581,-2.6691,-2.6691,-2.6479,-2.6156,-2.588,-2.5297,-2.4544,-2.4266,-2.3914,-2.3602,-2.3602,-2.3673,-2.3879,-2.4274,-2.4511,-2.4712,-2.5097,-2.5221,-2.5243,-2.5483,-2.6007,-2.6472,-2.6404,-2.7416,-2.8385,-2.8411,-2.8333,-2.8359,-2.8612,-2.8691,-2.881,-2.9075,-2.9102,-2.8915,-2.8368,-2.8219,-2.7932,-2.7297,-2.744,-2.74,-2.6911,-2.7035,-2.7027,-2.6725,-2.6691,-2.6691,-2.6691,-2.6691,-2.6841,-2.7147,-2.7241,-2.7378,-2.7598,-2.7235,-2.7104,-2.7295,-2.6906,-2.675,-2.6873,-2.7147,-2.756,0.0,0.0,0.0,0.0,0.0,0.0,0.0,0.0,-1.7892,-1.7474,-1.7782,-1.8178,-1.821,-1.8217,-1.8334,-1.8848,-1.893,-1.9125,-1.9646,-1.9244,-1.8893,-1.8893,-1.798,-1.7347,-1.7347,-1.6873,-1.6795,-1.7312,-1.7388,-1.782,-1.8848,-1.893,-1.893,-1.893,-1.9442,-1.9207,-1.8178,-1.8696,-1.9207,-1.9682,-1.9682,-1.9682,-1.9682,-1.9682,-2.0441,-2.1717,-2.2261,-2.3499,-2.5143,-2.576,-2.6297,-2.6691,-2.6691,-2.6691,-2.6547,-2.5598,-2.5221,-2.502,-2.3991,-2.3638,-2.3602,-2.3602,-2.3956,-2.4348,-2.4389,-2.4744,-2.5174,-2.5174,-2.5221,-2.5379,-2.6208,-2.6472,-2.6792,-2.7967,-2.8324,-2.8496,-2.8872,-2.916,-2.9332,-2.9332,-2.9504,-2.9597,-2.9494,-2.9425,-2.906,-2.8075,-2.7716,-2.7,-2.5533,-2.6173,-2.6495,-2.5776,-2.631,-2.6716,-2.6691,-2.6691,-2.6691,-2.6691,-2.6691,-2.6725,-2.6725,-2.7092,-2.7115,-2.6783,-2.6427,-2.6593,-2.7295,-2.6906,-2.6906,-2.7264,-2.7295,-2.7689,0.0,0.0,0.0,0.0,0.0,0.0,-1.4221,-1.5783,-1.7277,-1.6862,-1.6612,-1.6588,-1.6998,-1.7626,-1.8178,-1.8373,-1.8373,-1.8458,-1.865,-1.8217,-1.786,-1.786,-1.7229,-1.6795,-1.6795,-1.6595,-1.6595,-1.6752,-1.7111,-1.747,-1.786,-1.8217,-1.8373,-1.8373,-1.8574,-1.8496,-1.8099,-1.8612,-1.9006,-1.9207,-1.9522,-1.9682,-1.9682,-1.9682,-1.9954,-2.0398,-2.1038,-2.2692,-2.5051,-2.5708,-2.6262,-2.6691,-2.6691,-2.6513,-2.6227,-2.5844,-2.5494,-2.5097,-2.4356,-2.4348,-2.4592,-2.4233,-2.4471,-2.4981,-2.5335,-2.5569,-2.577,-2.6087,-2.6343,-2.6623,-2.6918,-2.749,-2.8187,-2.904,-2.8734,-2.8334,-2.8568,-2.912,-2.9429,-2.8875,-2.8824,-2.8768,-2.8465,-2.84,-2.8315,-2.8129,-2.7382,-2.6684,-2.6225,-2.5907,-2.5584,-2.5254,-2.5516,-2.5711,-2.5638,-2.5987,-2.6262,-2.6262,-2.6076,-2.584,-2.5495,-2.5482,-2.5451,-2.5302,-2.5632,-2.6173,-2.6898,-2.6547,-2.6713,-2.7303,-2.756,-2.7955,-0.9906,0.0,0.0,0.0,0.0,-1.2786,-1.2311,-1.4031,-1.5612,-1.5223,-1.5123,-1.5227,-1.5605,-1.6296,-1.6994,-1.7706,-1.782,-1.79,-1.8059,-1.7626,-1.7312,-1.7312,-1.6837,-1.6515,-1.6515,-1.6515,-1.6515,-1.6515,-1.6837,-1.7111,-1.7312,-1.7626,-1.79,-1.8099,-1.7747,-1.7747,-1.8099,-1.8458,-1.8734,-1.8893,-1.9442,-1.9682,-1.9682,-1.9682,-1.9682,-1.972,-2.0415,-2.1902,-2.3872,-2.4686,-2.5314,-2.5774,-2.5967,-2.599,-2.5859,-2.5753,-2.5615,-2.5373,-2.4855,-2.4902,-2.5136,-2.4784,-2.502,-2.5561,-2.6027,-2.6273,-2.6539,-2.6987,-2.7303,-2.7538,-2.7631,-2.8106,-2.8762,-2.9551,-2.8834,-2.8164,-2.8843,-2.942,-2.9465,-2.8313,-2.8385,-2.8463,-2.7938,-2.7627,-2.7174,-2.6357,-2.5962,-2.5803,-2.5765,-2.5192,-2.4728,-2.4627,-2.5056,-2.5286,-2.5221,-2.5621,-2.5869,-2.5869,-2.5463,-2.5075,-2.4705,-2.4563,-2.4515,-2.4515,-2.4737,-2.522,-2.5947,-2.6375,-2.69,-2.7508,-2.788,-2.8273,0.0,0.0,0.0,0.0,0.0,0.0,-1.0055,0.0,-1.2806,-1.2534,-1.3263,-1.4004,-1.4078,-1.4051,-1.4756,-1.6844,-1.7216,-1.7422,-1.7973,-1.7585,-1.7271,-1.7271,-1.6837,-1.6515,-1.6515,-1.6515,-1.6515,-1.6515,-1.6515,-1.6716,-1.7229,-1.7271,-1.751,-1.802,-1.7034,-1.6993,-1.8059,-1.8099,-1.8373,-1.8893,-1.9442,-1.9682,-1.9682,-1.9682,-1.9682,-1.972,-2.0393,-2.0962,-2.1529,-2.2647,-2.3398,-2.3976,-2.4526,-2.5088,-2.5545,-2.5244,-2.5512,-2.5867,-2.5347,-2.5157,-2.5195,-2.5149,-2.5521,-2.6063,-2.6396,-2.6875,-2.7378,-2.7783,-2.788,-2.7956,-2.8287,-2.8218,-2.8333,-2.9476,-2.8572,-2.796,-2.9711,-3.0007,-2.946,-2.7826,-2.8334,-2.8765,-2.7957,-2.7204,-2.5722,-2.2793,-2.3465,-2.4205,-2.3951,-2.3869,-2.3869,-2.3877,-2.4878,-2.5559,-2.5542,-2.5559,-2.5576,-2.5576,-2.4881,-2.445,-2.4441,-2.4425,-2.4447,-2.4447,-2.374,-2.3769,-2.4481,-2.6328,-2.743,-2.789,-2.8219,-2.8587,-0.8881,0.0,0.0,0.0,0.0,0.0,-0.8053,-0.9385,-1.0863,-1.1501,-1.1503,-1.1891,-1.3348,-1.3233,-1.3382,-1.4769,-1.5251,-1.5802,-1.6782,-1.6422,-1.6244,-1.6667,-1.6595,-1.6515,-1.6515,-1.6515,-1.6515,-1.6515,-1.6515,-1.6558,-1.6716,-1.6716,-1.6795,-1.6957,-1.6637,-1.6837,-1.751,-1.79,-1.8373,-1.8893,-1.9442,-1.9682,-1.9682,-1.9682,-1.9682,-1.9697,-1.9892,-2.0068,-2.0324,-2.1923,-2.3103,-2.3885,-2.3696,-2.4116,-2.4751,-2.4405,-2.4555,-2.4852,-2.4295,-2.4363,-2.463,-2.4252,-2.4836,-2.5781,-2.6179,-2.6752,-2.7378,-2.7783,-2.7665,-2.7416,-2.7497,-2.7178,-2.7087,-2.8226,-2.7686,-2.7064,-2.7555,-2.8099,-2.8341,-2.7881,-2.7403,-2.6787,-2.5891,-2.5161,-2.4336,-2.3317,-2.2841,-2.2918,-2.3786,-2.3216,-2.2832,-2.3013,-2.3912,-2.4468,-2.4389,-2.4755,-2.5002,-2.5002,-2.4188,-2.3521,-2.3131,-2.2987,-2.2911,-2.2911,-2.3232,-2.3632,-2.407,-2.4829,-2.5862,-2.7129,-2.7698,-2.8018,0.0,0.0,0.0,0.0,0.0,0.0,-0.6972,-0.8007,-0.917,-0.9889,-0.9953,-1.0159,-1.1129,-1.1313,-1.168,-1.2716,-1.3368,-1.426,-1.5903,-1.6051,-1.6101,-1.6472,-1.6515,-1.6515,-1.6515,-1.6515,-1.6515,-1.6515,-1.6515,-1.6515,-1.6515,-1.6238,-1.6238,-1.6479,-1.6716,-1.6993,-1.7312,-1.8059,-1.8574,-1.8893,-1.9442,-1.9682,-1.9682,-1.9682,-1.9682,-1.9682,-1.9682,-1.9682,-1.9778,-2.0853,-2.1729,-2.2423,-2.2603,-2.312,-2.3765,-2.3786,-2.4113,-2.4444,-2.4143,-2.4223,-2.4444,-2.4151,-2.4635,-2.542,-2.5782,-2.6362,-2.6961,-2.7367,-2.7356,-2.7233,-2.7308,-2.6816,-2.6586,-2.7729,-2.7055,-2.6326,-2.698,-2.6887,-2.669,-2.669,-2.6474,-2.598,-2.4951,-2.4197,-2.361,-2.3289,-2.2284,-2.1885,-2.2808,-2.2265,-2.1877,-2.2217,-2.3178,-2.3786,-2.3689,-2.4014,-2.4214,-2.4214,-2.3412,-2.2803,-2.2501,-2.2362,-2.231,-2.231,-2.2725,-2.3157,-2.3614,-2.4433,-2.5508,-2.6723,-2.7118,-2.7301,0.0,0.0,0.0,0.0,-0.5726,0.0,-0.626,-0.6989,-0.7587,-0.7965,-0.843,-0.8675,-0.8346,-0.8896,-0.9755,-1.0741,-1.1639,-1.2961,-1.513,-1.5874,-1.6267,-1.6378,-1.6427,-1.6446,-1.6509,-1.6515,-1.6515,-1.6515,-1.6515,-1.6515,-1.6515,-1.6002,-1.5952,-1.6552,-1.7034,-1.7347,-1.747,-1.8419,-1.893,-1.9006,-1.9486,-1.9682,-1.9682,-1.9682,-1.9682,-1.9682,-1.9682,-1.9682,-1.9718,-1.9754,-2.0,-2.047,-2.1444,-2.215,-2.2735,-2.3276,-2.3806,-2.4277,-2.4277,-2.4277,-2.4269,-2.4282,-2.4564,-2.4951,-2.5349,-2.5852,-2.6374,-2.6711,-2.6937,-2.7113,-2.72,-2.6705,-2.6463,-2.7471,-2.6512,-2.5739,-2.7119,-2.6139,-2.4965,-2.4952,-2.5568,-2.5759,-2.4703,-2.3931,-2.3312,-2.2873,-2.1828,-2.1189,-2.1552,-2.1283,-2.1213,-2.162,-2.2714,-2.3393,-2.3393,-2.3393,-2.3393,-2.3393,-2.2716,-2.231,-2.231,-2.231,-2.231,-2.231,-2.2386,-2.266,-2.3189,-2.4692,-2.5784,-2.6475,-2.6475,-2.6486,0.0,0.0,0.0,-0.5817,-0.5265,0.0,-0.4449,-0.4857,-0.5596,-0.6313,-0.6524,-0.6785,-0.7393,-0.7652,-0.8077,-0.8969,-1.0436,-1.2163,-1.4126,-1.4438,-1.4823,-1.5765,-1.5863,-1.6032,-1.6478,-1.6515,-1.6515,-1.6515,-1.6515,-1.6515,-1.6515,-1.638,-1.6576,-1.7111,-1.7229,-1.7706,-1.8574,-1.881,-1.9125,-1.9566,-1.9646,-1.9682,-1.9682,-1.9682,-1.9682,-1.9682,-1.9682,-1.9682,-1.9718,-2.0062,-2.0457,-2.0837,-2.0699,-2.1351,-2.2362,-2.209,-2.2315,-2.2733,-2.2733,-2.2733,-2.2773,-2.2993,-2.3524,-2.4269,-2.5032,-2.5753,-2.6287,-2.621,-2.6278,-2.6264,-2.5653,-2.553,-2.563,-2.5849,-2.5524,-2.5244,-2.553,-2.5204,-2.4785,-2.462,-2.472,-2.4692,-2.4192,-2.3648,-2.3025,-2.2371,-2.1807,-2.1521,-2.159,-2.1521,-2.1667,-2.2106,-2.2895,-2.3393,-2.3393,-2.3393,-2.3393,-2.3393,-2.2716,-2.231,-2.231,-2.231,-2.231,-2.231,-2.2781,-2.3078,-2.3189,-2.4417,-2.5239,-2.5621,-2.5621,-2.5732,0.0,-0.8074,-0.7194,-0.5882,-0.5265,0.0,0.0,-0.5039,-0.5645,-0.6386,-0.628,-0.6174,-0.661,-0.6711,-0.6894,-0.7533,-0.9241,-1.0891,-1.2034,-1.3514,-1.4566,-1.4857,-1.4882,-1.4992,-1.5262,-1.5286,-1.5409,-1.5612,-1.5459,-1.5518,-1.6033,-1.6051,-1.6306,-1.6866,-1.7429,-1.794,-1.8496,-1.905,-1.9536,-2.0,-2.0,-2.0,-2.0,-2.0,-1.9874,-1.9682,-1.9682,-1.9682,-1.9726,-1.9902,-2.0405,-2.0999,-2.0975,-2.1368,-2.1966,-2.1966,-2.2106,-2.231,-2.231,-2.2388,-2.2519,-2.266,-2.3258,-2.4033,-2.4474,-2.5097,-2.5649,-2.5648,-2.5703,-2.5656,-2.5257,-2.5272,-2.537,-2.5235,-2.5149,-2.5046,-2.4846,-2.4719,-2.455,-2.4164,-2.4089,-2.4041,-2.3886,-2.3499,-2.3012,-2.2486,-2.1931,-2.1688,-2.1928,-2.1748,-2.1794,-2.2245,-2.264,-2.2852,-2.2852,-2.2852,-2.2852,-2.2852,-2.2505,-2.231,-2.231,-2.231,-2.231,-2.231,-2.2738,-2.3036,-2.3189,-2.3948,-2.4466,-2.4795,-2.4795,-2.4903,-0.9029,-0.7776,-0.6922,-0.6247,-0.5529,-0.5046,0.0,0.0,0.0,-0.6766,-0.6452,-0.6046,-0.5964,-0.5931,-0.602,-0.6395,-0.808,-0.9488,-0.9783,-1.2253,-1.3958,-1.3708,-1.3745,-1.3802,-1.3858,-1.3774,-1.3949,-1.4481,-1.4,-1.4226,-1.5403,-1.5483,-1.588,-1.6788,-1.7666,-1.8217,-1.8419,-1.9347,-1.9965,-2.0314,-2.0314,-2.0314,-2.0314,-2.0219,-2.0,-1.9682,-1.9682,-1.9682,-1.9726,-1.9775,-2.0269,-2.1023,-2.1368,-2.1598,-2.1794,-2.2172,-2.231,-2.231,-2.231,-2.249,-2.2721,-2.2772,-2.3405,-2.4164,-2.4172,-2.4604,-2.5088,-2.5244,-2.5293,-2.5293,-2.5293,-2.5332,-2.5331,-2.5109,-2.505,-2.4954,-2.4626,-2.4442,-2.4211,-2.3768,-2.3649,-2.3588,-2.3522,-2.3291,-2.2996,-2.266,-2.2136,-2.1861,-2.2245,-2.1966,-2.189,-2.2245,-2.231,-2.233,-2.236,-2.2388,-2.2388,-2.2388,-2.2443,-2.2424,-2.231,-2.231,-2.231,-2.231,-2.2634,-2.2914,-2.3189,-2.3597,-2.3946,-2.4199,-2.4199,-2.4303,-1.0258,-0.8934,-0.7771,-0.6722,-0.6028,-0.5491,-0.4995,0.0,-0.5591,-0.6039,0.0,-0.5913,-0.5548,0.0,0.0,-0.5504,-0.7038,-0.8168,-0.8106,-0.9716,-1.121,-1.1967,-1.2424,-1.2737,-1.2944,-1.2579,-1.2681,-1.3505,-1.2806,-1.3141,-1.4965,-1.5085,-1.5944,-1.784,-1.802,-1.8574,-1.9522,-1.9984,-2.0246,-2.0314,-2.0314,-2.0314,-2.028,-1.9937,-1.9754,-1.9682,-1.9682,-1.9682,-1.9718,-2.0089,-2.0524,-2.0991,-2.1055,-2.1546,-2.2245,-2.2282,-2.231,-2.231,-2.231,-2.249,-2.2746,-2.3045,-2.3862,-2.4723,-2.4843,-2.5057,-2.5274,-2.5293,-2.5293,-2.5293,-2.5293,-2.5303,-2.5303,-2.5274,-2.5034,-2.4828,-2.4775,-2.4247,-2.3768,-2.3714,-2.3468,-2.3165,-2.2864,-2.2772,-2.266,-2.2388,-2.2257,-2.2245,-2.2282,-2.2245,-2.2245,-2.2282,-2.231,-2.2415,-2.2634,-2.2652,-2.2652,-2.2652,-2.2931,-2.2866,-2.233,-2.231,-2.231,-2.231,-2.2866,-2.3165,-2.3189,-2.3837,-2.417,-2.4199,-2.4199,-2.4303,-0.9934,-0.8896,-0.8118,-0.7343,-0.681,-0.6374,-0.5784,-0.6048,-0.6438,-0.6593,0.0,0.0,0.0,0.0,0.0,0.0,-0.6428,-0.7305,-0.7495,-0.8337,-0.9271,-1.012,-1.04,-1.0748,-1.1308,-1.1081,-1.1325,-1.2234,-1.2031,-1.2472,-1.3806,-1.4839,-1.5966,-1.7141,-1.7762,-1.8598,-1.9622,-1.9859,-2.02,-2.069,-2.0449,-2.0314,-2.0272,-2.0124,-1.9902,-1.9718,-1.9937,-2.0062,-2.0097,-2.0524,-2.0951,-2.1346,-2.1346,-2.1743,-2.231,-2.231,-2.231,-2.231,-2.231,-2.2607,-2.3115,-2.3882,-2.4426,-2.4851,-2.5096,-2.5224,-2.5293,-2.5293,-2.5293,-2.5293,-2.5293,-2.5293,-2.5274,-2.5152,-2.4952,-2.4702,-2.44,-2.4004,-2.3588,-2.3198,-2.2821,-2.2548,-2.2473,-2.2599,-2.2625,-2.2349,-2.231,-2.231,-2.231,-2.231,-2.231,-2.231,-2.2445,-2.2581,-2.2695,-2.2864,-2.2996,-2.2996,-2.2939,-2.2789,-2.2537,-2.2379,-2.231,-2.231,-2.2553,-2.2841,-2.3189,-2.3491,-2.3816,-2.4199,-2.4199,-2.4303,-1.0345,-0.9457,-0.8759,-0.8289,-0.7799,-0.7264,-0.6645,-0.685,-0.7148,-0.7048,-0.7021,0.0,0.0,0.0,-0.5786,0.0,0.0,-0.6781,-0.6605,-0.7041,-0.77,-0.8696,-0.867,-0.8895,-0.9606,-0.9254,-0.9527,-1.0888,-1.0717,-1.1273,-1.2861,-1.424,-1.5531,-1.6693,-1.7584,-1.8571,-1.9607,-1.9788,-2.0166,-2.0789,-2.0449,-2.0314,-2.0314,-2.0185,-1.9972,-1.9726,-2.0,-2.0185,-2.0314,-2.0657,-2.111,-2.159,-2.159,-2.1899,-2.231,-2.231,-2.231,-2.231,-2.231,-2.2686,-2.3379,-2.4442,-2.4804,-2.4865,-2.5191,-2.5293,-2.5293,-2.5293,-2.5293,-2.5293,-2.5293,-2.5293,-2.5244,-2.5055,-2.4904,-2.4648,-2.4109,-2.3767,-2.336,-2.2678,-2.2224,-2.1968,-2.1936,-2.22,-2.2376,-2.2321,-2.231,-2.231,-2.231,-2.231,-2.231,-2.231,-2.2537,-2.2746,-2.2814,-2.3141,-2.3369,-2.3468,-2.3061,-2.2848,-2.2848,-2.2545,-2.2388,-2.231,-2.2462,-2.2747,-2.3189,-2.3392,-2.3714,-2.4199,-2.4199,-2.4275,-1.2277,-1.1199,-0.9992,-0.9706,-0.8954,-0.8053,-0.7185,-0.7192,-0.7287,-0.6957,-0.736,-0.7583,-0.6924,-0.6917,0.0,0.0,0.0,0.0,0.0,-0.5472,-0.6477,-0.7879,-0.7629,-0.7549,-0.8027,-0.6901,-0.7123,-0.9479,-0.8461,-0.9127,-1.2354,-1.2953,-1.4458,-1.7183,-1.771,-1.8498,-1.9682,-2.0097,-2.0272,-2.0306,-2.0314,-2.0314,-2.028,-1.9909,-1.9718,-1.9682,-1.9718,-1.9937,-2.0314,-2.0314,-2.0838,-2.159,-2.159,-2.1899,-2.231,-2.231,-2.231,-2.231,-2.231,-2.2686,-2.3379,-2.4442,-2.4804,-2.4865,-2.5191,-2.5293,-2.5293,-2.5293,-2.5293,-2.5293,-2.5293,-2.5293,-2.5244,-2.5055,-2.4904,-2.4648,-2.4109,-2.3593,-2.3003,-2.2254,-2.1845,-2.1491,-2.1126,-2.1368,-2.1794,-2.2237,-2.231,-2.231,-2.231,-2.231,-2.231,-2.231,-2.2537,-2.2814,-2.3174,-2.3491,-2.3816,-2.4151,-2.3544,-2.3189,-2.3189,-2.2864,-2.2563,-2.231,-2.2857,-2.3174,-2.3189,-2.3846,-2.417,-2.4199,-2.4199,-2.419,-1.3459,-1.2683,-1.1786,-1.0816,-0.9926,-0.8893,-0.7394,-0.7222,-0.7185,-0.6385,-0.7068,-0.7534,-0.6637,-0.6672,0.0,0.0,0.0,0.0,0.0,-0.5125,-0.5254,-0.5281,-0.6244,-0.6938,-0.7061,-0.6735,-0.7217,-0.8891,-0.857,-0.9195,-1.1198,-1.2762,-1.4233,-1.5533,-1.7078,-1.8414,-1.9495,-1.9759,-2.0035,-2.0314,-2.0027,-2.0027,-2.0314,-2.0151,-2.0269,-2.0573,-2.0854,-2.1039,-2.1188,-2.1507,-2.1802,-2.2061,-2.2061,-2.2172,-2.231,-2.231,-2.2398,-2.2634,-2.3056,-2.3455,-2.3852,-2.4567,-2.486,-2.4981,-2.5223,-2.5293,-2.5293,-2.5293,-2.5293,-2.5293,-2.5293,-2.5293,-2.5244,-2.5055,-2.4733,-2.4318,-2.3779,-2.305,-2.2335,-2.1874,-2.1204,-2.0813,-2.0959,-2.0854,-2.0999,-2.1735,-2.1832,-2.1966,-2.2245,-2.231,-2.231,-2.231,-2.2738,-2.3069,-2.3189,-2.3714,-2.4074,-2.419,-2.3566,-2.3189,-2.3189,-2.2721,-2.2379,-2.231,-2.2678,-2.2972,-2.3189,-2.364,-2.3987,-2.4199,-2.4199,-2.4199,-1.4387,-1.3795,-1.3004,-1.1781,-1.0715,-0.9508,-0.7732,-0.7304,-0.7111,-0.6327,-0.6812,-0.7266,-0.6926,-0.6822,-0.6601,0.0,0.0,0.0,0.0,-0.4604,-0.4358,-0.3811,-0.4961,0.0,0.0,-0.5957,-0.6573,-0.8189,-0.8286,-0.899,-1.0612,-1.2502,-1.3922,-1.48,-1.6564,-1.8026,-1.9157,-1.9295,-1.9577,-2.0089,-1.9803,-1.9846,-2.0097,-2.0097,-2.0322,-2.0764,-2.1039,-2.1321,-2.162,-2.1936,-2.2143,-2.231,-2.231,-2.231,-2.231,-2.231,-2.2463,-2.2797,-2.3468,-2.3826,-2.4091,-2.4632,-2.4891,-2.5044,-2.5244,-2.5244,-2.5194,-2.5194,-2.516,-2.5126,-2.5126,-2.5126,-2.507,-2.4868,-2.4507,-2.4045,-2.3509,-2.2718,-2.1955,-2.1483,-2.0805,-2.0348,-2.0506,-2.0303,-2.039,-2.1275,-2.1499,-2.1726,-2.2003,-2.2209,-2.2358,-2.2417,-2.2899,-2.33,-2.3544,-2.3946,-2.4199,-2.4199,-2.3692,-2.3314,-2.3189,-2.2712,-2.2407,-2.231,-2.2555,-2.2864,-2.3189,-2.3544,-2.3867,-2.4199,-2.4199,-2.4199]}]]